<?xml version="1.0" encoding="UTF-8" standalone="no" ?>
<gpx xmlns="http://www.topografix.com/GPX/1/1" creator="MapSource 6.16.3" version="1.1" xmlns:xsi="http://www.w3.org/2001/XMLSchema-instance" xsi:schemaLocation="http://www.topografix.com/GPX/1/1 http://www.topografix.com/GPX/1/1/gpx.xsd">

  <metadata>
    <link href="http://www.garmin.com">
      <text>Garmin International</text>
    </link>
    <time>2016-09-07T05:25:42Z</time>
    <bounds maxlat="44.393906593322754" maxlon="11.246910095214844" minlat="44.346141815185547" minlon="11.135287284851074"/>
  </metadata>

  <trk>
    <name>ACTIVE LOG</name>
    <trkseg>
      <trkpt lat="44.393842220306396" lon="11.245944499969482">
        <ele>108</ele>
        <time>2004-12-08T08:10:20Z</time>
      </trkpt>
      <trkpt lat="44.393734931945801" lon="11.246480941772461">
        <ele>107</ele>
        <time>2004-12-08T08:10:35Z</time>
      </trkpt>
      <trkpt lat="44.393606185913086" lon="11.246910095214844">
        <ele>107</ele>
        <time>2004-12-08T08:10:45Z</time>
      </trkpt>
      <trkpt lat="44.392940998077393" lon="11.246609687805176">
        <ele>106</ele>
        <time>2004-12-08T08:11:05Z</time>
      </trkpt>
      <trkpt lat="44.391911029815674" lon="11.246137619018555">
        <ele>106</ele>
        <time>2004-12-08T08:11:33Z</time>
      </trkpt>
      <trkpt lat="44.39150333404541" lon="11.245922958478332">
        <ele>106</ele>
        <time>2004-12-08T08:11:43Z</time>
      </trkpt>
      <trkpt lat="44.391331672668457" lon="11.245901584625244">
        <ele>106</ele>
        <time>2004-12-08T08:11:47Z</time>
      </trkpt>
      <trkpt lat="44.391224384307861" lon="11.245858669281006">
        <ele>106</ele>
        <time>2004-12-08T08:11:50Z</time>
      </trkpt>
      <trkpt lat="44.390966892242432" lon="11.245644092559814">
        <ele>106</ele>
        <time>2004-12-08T08:11:57Z</time>
      </trkpt>
      <trkpt lat="44.390087127685547" lon="11.245279312133789">
        <ele>105</ele>
        <time>2004-12-08T08:12:18Z</time>
      </trkpt>
      <trkpt lat="44.389443397521973" lon="11.244935989379883">
        <ele>107</ele>
        <time>2004-12-08T08:12:36Z</time>
      </trkpt>
      <trkpt lat="44.388971328735352" lon="11.244356632232666">
        <ele>110</ele>
        <time>2004-12-08T08:12:54Z</time>
      </trkpt>
      <trkpt lat="44.388027191162109" lon="11.243197917938232">
        <ele>110</ele>
        <time>2004-12-08T08:13:26Z</time>
      </trkpt>
      <trkpt lat="44.387662410736084" lon="11.242682933807373">
        <ele>111</ele>
        <time>2004-12-08T08:13:38Z</time>
      </trkpt>
      <trkpt lat="44.387619495391846" lon="11.242554187774658">
        <ele>111</ele>
        <time>2004-12-08T08:13:41Z</time>
      </trkpt>
      <trkpt lat="44.387469291687012" lon="11.241352558135986">
        <ele>108</ele>
        <time>2004-12-08T08:14:00Z</time>
      </trkpt>
      <trkpt lat="44.387362003326416" lon="11.24051570892334">
        <ele>107</ele>
        <time>2004-12-08T08:14:12Z</time>
      </trkpt>
      <trkpt lat="44.386804103851318" lon="11.239163875579834">
        <ele>105</ele>
        <time>2004-12-08T08:14:33Z</time>
      </trkpt>
      <trkpt lat="44.386246204376221" lon="11.238284111022949">
        <ele>106</ele>
        <time>2004-12-08T08:14:53Z</time>
      </trkpt>
      <trkpt lat="44.385945796966553" lon="11.237855041399598">
        <ele>107</ele>
        <time>2004-12-08T08:15:08Z</time>
      </trkpt>
      <trkpt lat="44.385967338457704" lon="11.237726211547852">
        <ele>107</ele>
        <time>2004-12-08T08:15:14Z</time>
      </trkpt>
      <trkpt lat="44.385988712310791" lon="11.237382888793945">
        <ele>109</ele>
        <time>2004-12-08T08:15:27Z</time>
      </trkpt>
      <trkpt lat="44.385666763409972" lon="11.236932277679443">
        <ele>111</ele>
        <time>2004-12-08T08:15:48Z</time>
      </trkpt>
      <trkpt lat="44.385559558868408" lon="11.236546039581299">
        <ele>113</ele>
        <time>2004-12-08T08:16:04Z</time>
      </trkpt>
      <trkpt lat="44.385581016540527" lon="11.236181259155273">
        <ele>116</ele>
        <time>2004-12-08T08:16:18Z</time>
      </trkpt>
      <trkpt lat="44.385623931884766" lon="11.235687732696533">
        <ele>118</ele>
        <time>2004-12-08T08:16:36Z</time>
      </trkpt>
      <trkpt lat="44.3857741355896" lon="11.235387325286865">
        <ele>121</ele>
        <time>2004-12-08T08:16:51Z</time>
      </trkpt>
      <trkpt lat="44.385902881622314" lon="11.235129833221436">
        <ele>124</ele>
        <time>2004-12-08T08:17:04Z</time>
      </trkpt>
      <trkpt lat="44.386117458343506" lon="11.234700679779053">
        <ele>126</ele>
        <time>2004-12-08T08:17:26Z</time>
      </trkpt>
      <trkpt lat="44.38622466288507" lon="11.23427152633667">
        <ele>129</ele>
        <time>2004-12-08T08:17:45Z</time>
      </trkpt>
      <trkpt lat="44.386289119720459" lon="11.233885288238525">
        <ele>132</ele>
        <time>2004-12-08T08:18:02Z</time>
      </trkpt>
      <trkpt lat="44.386375034227967" lon="11.233391761779785">
        <ele>135</ele>
        <time>2004-12-08T08:18:26Z</time>
      </trkpt>
      <trkpt lat="44.386439323425293" lon="11.233112812042236">
        <ele>138</ele>
        <time>2004-12-08T08:18:39Z</time>
      </trkpt>
      <trkpt lat="44.386482238769531" lon="11.232790863141418">
        <ele>140</ele>
        <time>2004-12-08T08:18:54Z</time>
      </trkpt>
      <trkpt lat="44.386375034227967" lon="11.232705116271973">
        <ele>140</ele>
        <time>2004-12-08T08:19:01Z</time>
      </trkpt>
      <trkpt lat="44.386074459180236" lon="11.232469081878662">
        <ele>140</ele>
        <time>2004-12-08T08:19:17Z</time>
      </trkpt>
      <trkpt lat="44.38581713475287" lon="11.232318878173828">
        <ele>140</ele>
        <time>2004-12-08T08:19:28Z</time>
      </trkpt>
      <trkpt lat="44.385430812835693" lon="11.23201847076416">
        <ele>139</ele>
        <time>2004-12-08T08:19:44Z</time>
      </trkpt>
      <trkpt lat="44.384958660230041" lon="11.231653690338135">
        <ele>140</ele>
        <time>2004-12-08T08:20:04Z</time>
      </trkpt>
      <trkpt lat="44.384550964459777" lon="11.231353282928467">
        <ele>140</ele>
        <time>2004-12-08T08:20:22Z</time>
      </trkpt>
      <trkpt lat="44.384036064147949" lon="11.230988502502441">
        <ele>141</ele>
        <time>2004-12-08T08:20:46Z</time>
      </trkpt>
      <trkpt lat="44.383628368377686" lon="11.230688095092773">
        <ele>142</ele>
        <time>2004-12-08T08:21:05Z</time>
      </trkpt>
      <trkpt lat="44.383370876312256" lon="11.230580806732178">
        <ele>142</ele>
        <time>2004-12-08T08:21:17Z</time>
      </trkpt>
      <trkpt lat="44.383220672607422" lon="11.230237483978271">
        <ele>144</ele>
        <time>2004-12-08T08:21:32Z</time>
      </trkpt>
      <trkpt lat="44.38326358795166" lon="11.229872703552246">
        <ele>146</ele>
        <time>2004-12-08T08:21:48Z</time>
      </trkpt>
      <trkpt lat="44.383413791656494" lon="11.229636669158936">
        <ele>150</ele>
        <time>2004-12-08T08:22:02Z</time>
      </trkpt>
      <trkpt lat="44.383585536852479" lon="11.229357719421387">
        <ele>153</ele>
        <time>2004-12-08T08:22:18Z</time>
      </trkpt>
      <trkpt lat="44.383735740557313" lon="11.229143058881164">
        <ele>156</ele>
        <time>2004-12-08T08:22:30Z</time>
      </trkpt>
      <trkpt lat="44.383606910705566" lon="11.228756904602051">
        <ele>156</ele>
        <time>2004-12-08T08:22:44Z</time>
      </trkpt>
      <trkpt lat="44.383370876312256" lon="11.228134632110596">
        <ele>154</ele>
        <time>2004-12-08T08:22:59Z</time>
      </trkpt>
      <trkpt lat="44.382920265197754" lon="11.227469360455871">
        <ele>154</ele>
        <time>2004-12-08T08:23:14Z</time>
      </trkpt>
      <trkpt lat="44.382405281066895" lon="11.226804340258241">
        <ele>156</ele>
        <time>2004-12-08T08:23:35Z</time>
      </trkpt>
      <trkpt lat="44.381825923919678" lon="11.226053237915039">
        <ele>157</ele>
        <time>2004-12-08T08:24:00Z</time>
      </trkpt>
      <trkpt lat="44.381353938952088" lon="11.225495338439941">
        <ele>156</ele>
        <time>2004-12-08T08:24:18Z</time>
      </trkpt>
      <trkpt lat="44.38126802444458" lon="11.225409507751465">
        <ele>156</ele>
        <time>2004-12-08T08:24:21Z</time>
      </trkpt>
      <trkpt lat="44.381053363904357" lon="11.225152015686035">
        <ele>155</ele>
        <time>2004-12-08T08:24:27Z</time>
      </trkpt>
      <trkpt lat="44.380860328674316" lon="11.224701404571533">
        <ele>153</ele>
        <time>2004-12-08T08:24:35Z</time>
      </trkpt>
      <trkpt lat="44.380924701690674" lon="11.224250793457031">
        <ele>152</ele>
        <time>2004-12-08T08:24:41Z</time>
      </trkpt>
      <trkpt lat="44.381074905395508" lon="11.223735809326172">
        <ele>148</ele>
        <time>2004-12-08T08:24:48Z</time>
      </trkpt>
      <trkpt lat="44.381139278411865" lon="11.22352123260498">
        <ele>146</ele>
        <time>2004-12-08T08:24:51Z</time>
      </trkpt>
      <trkpt lat="44.381310939788818" lon="11.223392486572266">
        <ele>143</ele>
        <time>2004-12-08T08:24:56Z</time>
      </trkpt>
      <trkpt lat="44.381538424640894" lon="11.223277067765594">
        <ele>143</ele>
        <time>1989-12-31T00:00:00Z</time>
      </trkpt>
      <trkpt lat="44.381997585296631" lon="11.22279167175293">
        <ele>154</ele>
        <time>2003-12-06T08:29:59Z</time>
      </trkpt>
      <trkpt lat="44.382083415985107" lon="11.222662925720215">
        <ele>155</ele>
        <time>2003-12-06T08:30:03Z</time>
      </trkpt>
      <trkpt lat="44.382190704345703" lon="11.222491264343262">
        <ele>158</ele>
        <time>2003-12-06T08:30:11Z</time>
      </trkpt>
      <trkpt lat="44.382426738739014" lon="11.222105026245117">
        <ele>162</ele>
        <time>2003-12-06T08:30:30Z</time>
      </trkpt>
      <trkpt lat="44.382576858624816" lon="11.221890365704894">
        <ele>165</ele>
        <time>2003-12-06T08:30:43Z</time>
      </trkpt>
      <trkpt lat="44.382791519165039" lon="11.22178316116333">
        <ele>168</ele>
        <time>2003-12-06T08:30:59Z</time>
      </trkpt>
      <trkpt lat="44.382941722869873" lon="11.221697330474854">
        <ele>172</ele>
        <time>2003-12-06T08:31:09Z</time>
      </trkpt>
      <trkpt lat="44.382941722869873" lon="11.221675872802734">
        <ele>172</ele>
        <time>2003-12-06T08:31:10Z</time>
      </trkpt>
      <trkpt lat="44.383049011230469" lon="11.221589958295226">
        <ele>175</ele>
        <time>2003-12-06T08:31:18Z</time>
      </trkpt>
      <trkpt lat="44.38326358795166" lon="11.221396923065186">
        <ele>178</ele>
        <time>2003-12-06T08:31:34Z</time>
      </trkpt>
      <trkpt lat="44.383456707000732" lon="11.221225261688232">
        <ele>181</ele>
        <time>2003-12-06T08:31:48Z</time>
      </trkpt>
      <trkpt lat="44.383606910705566" lon="11.221053600311279">
        <ele>185</ele>
        <time>2003-12-06T08:32:01Z</time>
      </trkpt>
      <trkpt lat="44.383692741394043" lon="11.220924938097596">
        <ele>188</ele>
        <time>2003-12-06T08:32:09Z</time>
      </trkpt>
      <trkpt lat="44.383842861279845" lon="11.220731735229492">
        <ele>189</ele>
        <time>2003-12-06T08:32:25Z</time>
      </trkpt>
      <trkpt lat="44.383993064984679" lon="11.22053861618042">
        <ele>192</ele>
        <time>2003-12-06T08:32:41Z</time>
      </trkpt>
      <trkpt lat="44.384143436327577" lon="11.220474159345031">
        <ele>196</ele>
        <time>2003-12-06T08:32:56Z</time>
      </trkpt>
      <trkpt lat="44.384465217590332" lon="11.220259666442871">
        <ele>199</ele>
        <time>2003-12-06T08:33:26Z</time>
      </trkpt>
      <trkpt lat="44.384679794311523" lon="11.220023632049561">
        <ele>202</ele>
        <time>2003-12-06T08:33:47Z</time>
      </trkpt>
      <trkpt lat="44.384915828704834" lon="11.219830513000488">
        <ele>205</ele>
        <time>2003-12-06T08:34:09Z</time>
      </trkpt>
      <trkpt lat="44.385066032409668" lon="11.219701766967773">
        <ele>209</ele>
        <time>2003-12-06T08:34:23Z</time>
      </trkpt>
      <trkpt lat="44.385108863934875" lon="11.219680309295654">
        <ele>210</ele>
        <time>2003-12-06T08:34:26Z</time>
      </trkpt>
      <trkpt lat="44.385216236114502" lon="11.219487190246582">
        <ele>212</ele>
        <time>2003-12-06T08:34:44Z</time>
      </trkpt>
      <trkpt lat="44.385302066802979" lon="11.219143867492676">
        <ele>214</ele>
        <time>2003-12-06T08:35:03Z</time>
      </trkpt>
      <trkpt lat="44.385430812835693" lon="11.218693340197206">
        <ele>217</ele>
        <time>2003-12-06T08:35:26Z</time>
      </trkpt>
      <trkpt lat="44.385473728179932" lon="11.218478679656982">
        <ele>216</ele>
        <time>2003-12-06T08:35:37Z</time>
      </trkpt>
      <trkpt lat="44.385495185852051" lon="11.218414306640625">
        <ele>216</ele>
        <time>2003-12-06T08:35:44Z</time>
      </trkpt>
      <trkpt lat="44.385452270507813" lon="11.217598915100098">
        <ele>217</ele>
        <time>2003-12-06T08:36:09Z</time>
      </trkpt>
      <trkpt lat="44.385666763409972" lon="11.216826438903809">
        <ele>217</ele>
        <time>2003-12-06T08:36:28Z</time>
      </trkpt>
      <trkpt lat="44.38575267791748" lon="11.216762065887451">
        <ele>219</ele>
        <time>2003-12-06T08:36:33Z</time>
      </trkpt>
      <trkpt lat="44.385881423950195" lon="11.216676235198975">
        <ele>222</ele>
        <time>2003-12-06T08:36:42Z</time>
      </trkpt>
      <trkpt lat="44.385902881622314" lon="11.216676235198975">
        <ele>222</ele>
        <time>2003-12-06T08:36:43Z</time>
      </trkpt>
      <trkpt lat="44.386096000671387" lon="11.216633319854736">
        <ele>225</ele>
        <time>2003-12-06T08:36:58Z</time>
      </trkpt>
      <trkpt lat="44.38622466288507" lon="11.216676235198975">
        <ele>228</ele>
        <time>2003-12-06T08:37:08Z</time>
      </trkpt>
      <trkpt lat="44.386375034227967" lon="11.216740608215332">
        <ele>231</ele>
        <time>2003-12-06T08:37:17Z</time>
      </trkpt>
      <trkpt lat="44.386396408081055" lon="11.216676235198975">
        <ele>231</ele>
        <time>2003-12-06T08:37:21Z</time>
      </trkpt>
      <trkpt lat="44.386460781097412" lon="11.216654777526855">
        <ele>232</ele>
        <time>2003-12-06T08:37:25Z</time>
      </trkpt>
      <trkpt lat="44.386739730834961" lon="11.216418659314513">
        <ele>234</ele>
        <time>2003-12-06T08:37:46Z</time>
      </trkpt>
      <trkpt lat="44.386825561523438" lon="11.216268539428711">
        <ele>234</ele>
        <time>2003-12-06T08:37:54Z</time>
      </trkpt>
      <trkpt lat="44.386632358655334" lon="11.21605396270752">
        <ele>234</ele>
        <time>2003-12-06T08:38:06Z</time>
      </trkpt>
      <trkpt lat="44.386417865753174" lon="11.215517520904541">
        <ele>234</ele>
        <time>2003-12-06T08:38:25Z</time>
      </trkpt>
      <trkpt lat="44.386353492736816" lon="11.215410232543945">
        <ele>233</ele>
        <time>2003-12-06T08:38:29Z</time>
      </trkpt>
      <trkpt lat="44.386160373687744" lon="11.215023994445801">
        <ele>231</ele>
        <time>2003-12-06T08:38:35Z</time>
      </trkpt>
      <trkpt lat="44.386096000671387" lon="11.214852333068848">
        <ele>230</ele>
        <time>2003-12-06T08:38:37Z</time>
      </trkpt>
      <trkpt lat="44.385988712310791" lon="11.21478796005249">
        <ele>229</ele>
        <time>2003-12-06T08:38:39Z</time>
      </trkpt>
      <trkpt lat="44.385709762573242" lon="11.214723587036133">
        <ele>230</ele>
        <time>2003-12-06T08:38:44Z</time>
      </trkpt>
      <trkpt lat="44.385473728179932" lon="11.21429443359375">
        <ele>228</ele>
        <time>2003-12-06T08:38:52Z</time>
      </trkpt>
      <trkpt lat="44.385387897491455" lon="11.213822364807129">
        <ele>229</ele>
        <time>2003-12-06T08:39:00Z</time>
      </trkpt>
      <trkpt lat="44.385387897491455" lon="11.213693618774414">
        <ele>227</ele>
        <time>2003-12-06T08:39:02Z</time>
      </trkpt>
      <trkpt lat="44.385709762573242" lon="11.212856769561768">
        <ele>227</ele>
        <time>2003-12-06T08:39:13Z</time>
      </trkpt>
      <trkpt lat="44.38581713475287" lon="11.21253490447998">
        <ele>227</ele>
        <time>2003-12-06T08:39:21Z</time>
      </trkpt>
      <trkpt lat="44.385902881622314" lon="11.212256038561463">
        <ele>230</ele>
        <time>2003-12-06T08:39:31Z</time>
      </trkpt>
      <trkpt lat="44.385945796966553" lon="11.212019920349121">
        <ele>234</ele>
        <time>2003-12-06T08:39:41Z</time>
      </trkpt>
      <trkpt lat="44.385945796966553" lon="11.211998462677002">
        <ele>234</ele>
        <time>2003-12-06T08:39:42Z</time>
      </trkpt>
      <trkpt lat="44.385945796966553" lon="11.211869716644287">
        <ele>237</ele>
        <time>2003-12-06T08:39:49Z</time>
      </trkpt>
      <trkpt lat="44.385988712310791" lon="11.211483478546143">
        <ele>239</ele>
        <time>2003-12-06T08:40:08Z</time>
      </trkpt>
      <trkpt lat="44.385988712310791" lon="11.211440563201904">
        <ele>240</ele>
        <time>2003-12-06T08:40:10Z</time>
      </trkpt>
      <trkpt lat="44.385967338457704" lon="11.211333274841309">
        <ele>241</ele>
        <time>2003-12-06T08:40:15Z</time>
      </trkpt>
      <trkpt lat="44.385924339294434" lon="11.210968494415283">
        <ele>245</ele>
        <time>2003-12-06T08:40:34Z</time>
      </trkpt>
      <trkpt lat="44.385967338457704" lon="11.210410594940186">
        <ele>245</ele>
        <time>2003-12-06T08:40:56Z</time>
      </trkpt>
      <trkpt lat="44.386289119720459" lon="11.210067272186279">
        <ele>248</ele>
        <time>2003-12-06T08:41:17Z</time>
      </trkpt>
      <trkpt lat="44.386460781097412" lon="11.209702491760254">
        <ele>252</ele>
        <time>2003-12-06T08:41:34Z</time>
      </trkpt>
      <trkpt lat="44.386417865753174" lon="11.209466541185975">
        <ele>253</ele>
        <time>2003-12-06T08:41:45Z</time>
      </trkpt>
      <trkpt lat="44.386074459180236" lon="11.209187507629395">
        <ele>253</ele>
        <time>2003-12-06T08:42:03Z</time>
      </trkpt>
      <trkpt lat="44.38575267791748" lon="11.20880126953125">
        <ele>255</ele>
        <time>2003-12-06T08:42:22Z</time>
      </trkpt>
      <trkpt lat="44.385559558868408" lon="11.208500862121582">
        <ele>253</ele>
        <time>2003-12-06T08:42:35Z</time>
      </trkpt>
      <trkpt lat="44.385538101196289" lon="11.208393573760986">
        <ele>252</ele>
        <time>2003-12-06T08:42:37Z</time>
      </trkpt>
      <trkpt lat="44.385538101196289" lon="11.208243370056152">
        <ele>252</ele>
        <time>2003-12-06T08:42:39Z</time>
      </trkpt>
      <trkpt lat="44.385623931884766" lon="11.208028793334961">
        <ele>251</ele>
        <time>2003-12-06T08:42:42Z</time>
      </trkpt>
      <trkpt lat="44.38575267791748" lon="11.207685470581055">
        <ele>251</ele>
        <time>2003-12-06T08:42:46Z</time>
      </trkpt>
      <trkpt lat="44.385988712310791" lon="11.207127571105957">
        <ele>251</ele>
        <time>2003-12-06T08:42:58Z</time>
      </trkpt>
      <trkpt lat="44.386053085327148" lon="11.206784164533019">
        <ele>254</ele>
        <time>2003-12-06T08:43:10Z</time>
      </trkpt>
      <trkpt lat="44.385967338457704" lon="11.206505298614502">
        <ele>257</ele>
        <time>2003-12-06T08:43:24Z</time>
      </trkpt>
      <trkpt lat="44.385924339294434" lon="11.206376636400819">
        <ele>259</ele>
        <time>2003-12-06T08:43:30Z</time>
      </trkpt>
      <trkpt lat="44.385902881622314" lon="11.206183433532715">
        <ele>262</ele>
        <time>2003-12-06T08:43:41Z</time>
      </trkpt>
      <trkpt lat="44.385838508605957" lon="11.205990314483643">
        <ele>265</ele>
        <time>2003-12-06T08:43:52Z</time>
      </trkpt>
      <trkpt lat="44.385795593261719" lon="11.205689907073975">
        <ele>269</ele>
        <time>2003-12-06T08:44:09Z</time>
      </trkpt>
      <trkpt lat="44.385881423950195" lon="11.205475330352783">
        <ele>272</ele>
        <time>2003-12-06T08:44:24Z</time>
      </trkpt>
      <trkpt lat="44.385988712310791" lon="11.205282211303711">
        <ele>276</ele>
        <time>2003-12-06T08:44:38Z</time>
      </trkpt>
      <trkpt lat="44.386181831359863" lon="11.204981803894043">
        <ele>277</ele>
        <time>2003-12-06T08:44:58Z</time>
      </trkpt>
      <trkpt lat="44.386332035064697" lon="11.204767227172852">
        <ele>276</ele>
        <time>2003-12-06T08:45:05Z</time>
      </trkpt>
      <trkpt lat="44.386417865753174" lon="11.204488277435303">
        <ele>276</ele>
        <time>2003-12-06T08:45:11Z</time>
      </trkpt>
      <trkpt lat="44.386332035064697" lon="11.203823089599609">
        <ele>277</ele>
        <time>2003-12-06T08:45:33Z</time>
      </trkpt>
      <trkpt lat="44.386310577392578" lon="11.203415393829346">
        <ele>280</ele>
        <time>2003-12-06T08:45:50Z</time>
      </trkpt>
      <trkpt lat="44.386332035064697" lon="11.203114986419678">
        <ele>284</ele>
        <time>2003-12-06T08:46:06Z</time>
      </trkpt>
      <trkpt lat="44.386353492736816" lon="11.202943325042725">
        <ele>287</ele>
        <time>2003-12-06T08:46:16Z</time>
      </trkpt>
      <trkpt lat="44.386375034227967" lon="11.202707290649414">
        <ele>290</ele>
        <time>2003-12-06T08:46:30Z</time>
      </trkpt>
      <trkpt lat="44.386417865753174" lon="11.202385425567627">
        <ele>294</ele>
        <time>2003-12-06T08:46:46Z</time>
      </trkpt>
      <trkpt lat="44.386460781097412" lon="11.202235221862793">
        <ele>297</ele>
        <time>2003-12-06T08:46:56Z</time>
      </trkpt>
      <trkpt lat="44.386482238769531" lon="11.202085018157959">
        <ele>300</ele>
        <time>2003-12-06T08:47:03Z</time>
      </trkpt>
      <trkpt lat="44.386439323425293" lon="11.201677322387695">
        <ele>301</ele>
        <time>2003-12-06T08:47:27Z</time>
      </trkpt>
      <trkpt lat="44.386417865753174" lon="11.201376914978027">
        <ele>303</ele>
        <time>2003-12-06T08:47:43Z</time>
      </trkpt>
      <trkpt lat="44.386375034227967" lon="11.201033592224121">
        <ele>307</ele>
        <time>2003-12-06T08:48:02Z</time>
      </trkpt>
      <trkpt lat="44.386353492736816" lon="11.200711727142334">
        <ele>310</ele>
        <time>2003-12-06T08:48:19Z</time>
      </trkpt>
      <trkpt lat="44.386353492736816" lon="11.200690269470215">
        <ele>310</ele>
        <time>2003-12-06T08:48:20Z</time>
      </trkpt>
      <trkpt lat="44.386353492736816" lon="11.200454235076904">
        <ele>314</ele>
        <time>2003-12-06T08:48:33Z</time>
      </trkpt>
      <trkpt lat="44.386353492736816" lon="11.200196659192443">
        <ele>317</ele>
        <time>2003-12-06T08:48:47Z</time>
      </trkpt>
      <trkpt lat="44.386353492736816" lon="11.200046539306641">
        <ele>319</ele>
        <time>2003-12-06T08:48:54Z</time>
      </trkpt>
      <trkpt lat="44.386417865753174" lon="11.199982166290283">
        <ele>323</ele>
        <time>2003-12-06T08:49:00Z</time>
      </trkpt>
      <trkpt lat="44.38650369644165" lon="11.199982166290283">
        <ele>326</ele>
        <time>2003-12-06T08:49:08Z</time>
      </trkpt>
      <trkpt lat="44.386589527130127" lon="11.200025081634521">
        <ele>328</ele>
        <time>2003-12-06T08:49:16Z</time>
      </trkpt>
      <trkpt lat="44.386653900146484" lon="11.200046539306641">
        <ele>330</ele>
        <time>2003-12-06T08:49:20Z</time>
      </trkpt>
      <trkpt lat="44.386847019195557" lon="11.200110912322998">
        <ele>333</ele>
        <time>2003-12-06T08:49:35Z</time>
      </trkpt>
      <trkpt lat="44.387061595916748" lon="11.200110912322998">
        <ele>336</ele>
        <time>2003-12-06T08:49:54Z</time>
      </trkpt>
      <trkpt lat="44.387083137407899" lon="11.200132369995117">
        <ele>337</ele>
        <time>2003-12-06T08:50:15Z</time>
      </trkpt>
      <trkpt lat="44.387104511260986" lon="11.200132369995117">
        <ele>335</ele>
        <time>2003-12-06T08:53:50Z</time>
      </trkpt>
      <trkpt lat="44.387211799621582" lon="11.200110912322998">
        <ele>334</ele>
        <time>2003-12-06T08:54:41Z</time>
      </trkpt>
      <trkpt lat="44.387297630310059" lon="11.199960708618164">
        <ele>333</ele>
        <time>2003-12-06T08:54:44Z</time>
      </trkpt>
      <trkpt lat="44.38751220703125" lon="11.199874877929688">
        <ele>331</ele>
        <time>2003-12-06T08:54:48Z</time>
      </trkpt>
      <trkpt lat="44.387555122375488" lon="11.19981050491333">
        <ele>331</ele>
        <time>2003-12-06T08:54:52Z</time>
      </trkpt>
      <trkpt lat="44.387233341112733" lon="11.199617385864258">
        <ele>333</ele>
        <time>2003-12-06T08:55:13Z</time>
      </trkpt>
      <trkpt lat="44.387040138244629" lon="11.199402809143066">
        <ele>336</ele>
        <time>2003-12-06T08:55:29Z</time>
      </trkpt>
      <trkpt lat="44.386889934539795" lon="11.198866367340088">
        <ele>338</ele>
        <time>2003-12-06T08:55:52Z</time>
      </trkpt>
      <trkpt lat="44.386696815490723" lon="11.198694705963135">
        <ele>341</ele>
        <time>2003-12-06T08:56:07Z</time>
      </trkpt>
      <trkpt lat="44.386610984802246" lon="11.198630332946777">
        <ele>343</ele>
        <time>2003-12-06T08:56:13Z</time>
      </trkpt>
      <trkpt lat="44.386589527130127" lon="11.198287010192871">
        <ele>346</ele>
        <time>2003-12-06T08:56:29Z</time>
      </trkpt>
      <trkpt lat="44.386653900146484" lon="11.197900772094727">
        <ele>344</ele>
        <time>2003-12-06T08:56:44Z</time>
      </trkpt>
      <trkpt lat="44.386675441637635" lon="11.197836399078369">
        <ele>343</ele>
        <time>2003-12-06T08:56:45Z</time>
      </trkpt>
      <trkpt lat="44.386997222900391" lon="11.197428703308105">
        <ele>339</ele>
        <time>2003-12-06T08:56:51Z</time>
      </trkpt>
      <trkpt lat="44.387168884277344" lon="11.197214126586914">
        <ele>338</ele>
        <time>2003-12-06T08:56:54Z</time>
      </trkpt>
      <trkpt lat="44.387426376342773" lon="11.196849262341857">
        <ele>339</ele>
        <time>2003-12-06T08:57:20Z</time>
      </trkpt>
      <trkpt lat="44.387383460998535" lon="11.196677684783936">
        <ele>342</ele>
        <time>2003-12-06T08:57:35Z</time>
      </trkpt>
      <trkpt lat="44.387104511260986" lon="11.196742141619325">
        <ele>345</ele>
        <time>2003-12-06T08:57:59Z</time>
      </trkpt>
      <trkpt lat="44.386932766065001" lon="11.196742141619325">
        <ele>346</ele>
        <time>2003-12-06T08:58:11Z</time>
      </trkpt>
      <trkpt lat="44.386911392211914" lon="11.196699058637023">
        <ele>346</ele>
        <time>2003-12-06T08:58:14Z</time>
      </trkpt>
      <trkpt lat="44.386889934539795" lon="11.196656227111816">
        <ele>347</ele>
        <time>2003-12-06T08:58:19Z</time>
      </trkpt>
      <trkpt lat="44.386932766065001" lon="11.196634769439697">
        <ele>348</ele>
        <time>2003-12-06T08:58:26Z</time>
      </trkpt>
      <trkpt lat="44.387104511260986" lon="11.196699058637023">
        <ele>348</ele>
        <time>2003-12-06T08:58:49Z</time>
      </trkpt>
      <trkpt lat="44.387147426605225" lon="11.196656227111816">
        <ele>351</ele>
        <time>2003-12-06T08:59:15Z</time>
      </trkpt>
      <trkpt lat="44.387319087982178" lon="11.196634769439697">
        <ele>353</ele>
        <time>2003-12-06T08:59:28Z</time>
      </trkpt>
      <trkpt lat="44.387533664703369" lon="11.196484565734863">
        <ele>356</ele>
        <time>2003-12-06T08:59:48Z</time>
      </trkpt>
      <trkpt lat="44.387598037719727" lon="11.196398735046387">
        <ele>360</ele>
        <time>2003-12-06T08:59:58Z</time>
      </trkpt>
      <trkpt lat="44.387683868408203" lon="11.196248531341553">
        <ele>363</ele>
        <time>2003-12-06T09:00:10Z</time>
      </trkpt>
      <trkpt lat="44.387748241424561" lon="11.196098327636719">
        <ele>366</ele>
        <time>2003-12-06T09:00:20Z</time>
      </trkpt>
      <trkpt lat="44.38776969909668" lon="11.196034038439393">
        <ele>368</ele>
        <time>2003-12-06T09:00:24Z</time>
      </trkpt>
      <trkpt lat="44.387726783752441" lon="11.195948123931885">
        <ele>368</ele>
        <time>2003-12-06T09:00:32Z</time>
      </trkpt>
      <trkpt lat="44.387426376342773" lon="11.195862293243408">
        <ele>371</ele>
        <time>2003-12-06T09:00:56Z</time>
      </trkpt>
      <trkpt lat="44.387276172637939" lon="11.195905208587646">
        <ele>375</ele>
        <time>2003-12-06T09:01:08Z</time>
      </trkpt>
      <trkpt lat="44.387104511260986" lon="11.195948123931885">
        <ele>377</ele>
        <time>2003-12-06T09:01:22Z</time>
      </trkpt>
      <trkpt lat="44.386954307556152" lon="11.195926666259766">
        <ele>381</ele>
        <time>2003-12-06T09:01:32Z</time>
      </trkpt>
      <trkpt lat="44.386911392211914" lon="11.195926666259766">
        <ele>382</ele>
        <time>2003-12-06T09:01:34Z</time>
      </trkpt>
      <trkpt lat="44.386782562360168" lon="11.195905208587646">
        <ele>385</ele>
        <time>2003-12-06T09:01:43Z</time>
      </trkpt>
      <trkpt lat="44.38676118850708" lon="11.195733463391662">
        <ele>387</ele>
        <time>2003-12-06T09:01:59Z</time>
      </trkpt>
      <trkpt lat="44.38676118850708" lon="11.195712089538574">
        <ele>388</ele>
        <time>2003-12-06T09:02:02Z</time>
      </trkpt>
      <trkpt lat="44.386804103851318" lon="11.195669174194336">
        <ele>389</ele>
        <time>2003-12-06T09:02:06Z</time>
      </trkpt>
      <trkpt lat="44.386847019195557" lon="11.195604801177979">
        <ele>392</ele>
        <time>2003-12-06T09:02:11Z</time>
      </trkpt>
      <trkpt lat="44.386868476867676" lon="11.19556188583374">
        <ele>393</ele>
        <time>2003-12-06T09:02:13Z</time>
      </trkpt>
      <trkpt lat="44.386954307556152" lon="11.195454597473145">
        <ele>396</ele>
        <time>2003-12-06T09:02:19Z</time>
      </trkpt>
      <trkpt lat="44.38701868057251" lon="11.195240020751953">
        <ele>399</ele>
        <time>2003-12-06T09:02:31Z</time>
      </trkpt>
      <trkpt lat="44.387040138244629" lon="11.195197105407715">
        <ele>400</ele>
        <time>2003-12-06T09:02:33Z</time>
      </trkpt>
      <trkpt lat="44.387083137407899" lon="11.19502536021173">
        <ele>403</ele>
        <time>2003-12-06T09:02:42Z</time>
      </trkpt>
      <trkpt lat="44.387061595916748" lon="11.194789409637451">
        <ele>405</ele>
        <time>2003-12-06T09:02:58Z</time>
      </trkpt>
      <trkpt lat="44.386997222900391" lon="11.194703578948975">
        <ele>407</ele>
        <time>2003-12-06T09:03:07Z</time>
      </trkpt>
      <trkpt lat="44.386932766065001" lon="11.194660663604736">
        <ele>409</ele>
        <time>2003-12-06T09:03:12Z</time>
      </trkpt>
      <trkpt lat="44.386847019195557" lon="11.19457483291626">
        <ele>412</ele>
        <time>2003-12-06T09:03:20Z</time>
      </trkpt>
      <trkpt lat="44.386804103851318" lon="11.194467460736632">
        <ele>414</ele>
        <time>2003-12-06T09:03:31Z</time>
      </trkpt>
      <trkpt lat="44.386868476867676" lon="11.194424629211426">
        <ele>416</ele>
        <time>2003-12-06T09:03:46Z</time>
      </trkpt>
      <trkpt lat="44.386911392211914" lon="11.194446086883545">
        <ele>416</ele>
        <time>2003-12-06T09:03:50Z</time>
      </trkpt>
      <trkpt lat="44.38701868057251" lon="11.19457483291626">
        <ele>419</ele>
        <time>2003-12-06T09:04:06Z</time>
      </trkpt>
      <trkpt lat="44.387147426605225" lon="11.194639205932617">
        <ele>421</ele>
        <time>2003-12-06T09:04:15Z</time>
      </trkpt>
      <trkpt lat="44.387211799621582" lon="11.194660663604736">
        <ele>424</ele>
        <time>2003-12-06T09:04:20Z</time>
      </trkpt>
      <trkpt lat="44.387383460998535" lon="11.19481086730957">
        <ele>426</ele>
        <time>2003-12-06T09:04:34Z</time>
      </trkpt>
      <trkpt lat="44.387426376342773" lon="11.194853782653809">
        <ele>427</ele>
        <time>2003-12-06T09:04:48Z</time>
      </trkpt>
      <trkpt lat="44.387447834014893" lon="11.194789409637451">
        <ele>426</ele>
        <time>2003-12-06T09:05:29Z</time>
      </trkpt>
      <trkpt lat="44.387404918670654" lon="11.194768035784364">
        <ele>427</ele>
        <time>2003-12-06T09:05:47Z</time>
      </trkpt>
      <trkpt lat="44.387619495391846" lon="11.194617664441466">
        <ele>429</ele>
        <time>2003-12-06T09:06:03Z</time>
      </trkpt>
      <trkpt lat="44.387855529785156" lon="11.194446086883545">
        <ele>430</ele>
        <time>2003-12-06T09:06:22Z</time>
      </trkpt>
      <trkpt lat="44.388070106506348" lon="11.194274425506592">
        <ele>434</ele>
        <time>2003-12-06T09:06:38Z</time>
      </trkpt>
      <trkpt lat="44.388220310211182" lon="11.19408130645752">
        <ele>437</ele>
        <time>2003-12-06T09:06:53Z</time>
      </trkpt>
      <trkpt lat="44.388241767883301" lon="11.19408130645752">
        <ele>437</ele>
        <time>2003-12-06T09:06:54Z</time>
      </trkpt>
      <trkpt lat="44.388327598571777" lon="11.193995475769043">
        <ele>440</ele>
        <time>2003-12-06T09:07:00Z</time>
      </trkpt>
      <trkpt lat="44.388413429260254" lon="11.193888187408447">
        <ele>443</ele>
        <time>2003-12-06T09:07:06Z</time>
      </trkpt>
      <trkpt lat="44.388628005981445" lon="11.193866729736328">
        <ele>446</ele>
        <time>2003-12-06T09:07:22Z</time>
      </trkpt>
      <trkpt lat="44.388842582702637" lon="11.194016933441162">
        <ele>446</ele>
        <time>2003-12-06T09:07:40Z</time>
      </trkpt>
      <trkpt lat="44.389142990112305" lon="11.194252967834473">
        <ele>448</ele>
        <time>2003-12-06T09:08:06Z</time>
      </trkpt>
      <trkpt lat="44.389336109161377" lon="11.194231510162354">
        <ele>450</ele>
        <time>2003-12-06T09:08:20Z</time>
      </trkpt>
      <trkpt lat="44.389443397521973" lon="11.194124221801758">
        <ele>454</ele>
        <time>2003-12-06T09:08:29Z</time>
      </trkpt>
      <trkpt lat="44.389593601226807" lon="11.194038391113281">
        <ele>456</ele>
        <time>2003-12-06T09:08:39Z</time>
      </trkpt>
      <trkpt lat="44.389851093292236" lon="11.194210136309266">
        <ele>459</ele>
        <time>2003-12-06T09:09:02Z</time>
      </trkpt>
      <trkpt lat="44.390087127685547" lon="11.194338798522949">
        <ele>462</ele>
        <time>2003-12-06T09:09:22Z</time>
      </trkpt>
      <trkpt lat="44.390215873718262" lon="11.194489002227783">
        <ele>465</ele>
        <time>2003-12-06T09:09:33Z</time>
      </trkpt>
      <trkpt lat="44.390301704406738" lon="11.194617664441466">
        <ele>469</ele>
        <time>2003-12-06T09:09:42Z</time>
      </trkpt>
      <trkpt lat="44.390430534258485" lon="11.194853782653809">
        <ele>472</ele>
        <time>2003-12-06T09:09:59Z</time>
      </trkpt>
      <trkpt lat="44.390559196472168" lon="11.19502536021173">
        <ele>475</ele>
        <time>2003-12-06T09:10:15Z</time>
      </trkpt>
      <trkpt lat="44.390687858685851" lon="11.195111274719238">
        <ele>478</ele>
        <time>2003-12-06T09:10:30Z</time>
      </trkpt>
      <trkpt lat="44.390816688537598" lon="11.195261478424072">
        <ele>480</ele>
        <time>2003-12-06T09:10:50Z</time>
      </trkpt>
      <trkpt lat="44.390881061553955" lon="11.195325935259461">
        <ele>474</ele>
        <time>2004-03-14T08:28:10Z</time>
      </trkpt>
      <trkpt lat="44.390645027160645" lon="11.194918239489198">
        <ele>474</ele>
        <time>2004-03-14T08:28:24Z</time>
      </trkpt>
      <trkpt lat="44.3902587890625" lon="11.194252967834473">
        <ele>475</ele>
        <time>2004-03-14T08:28:48Z</time>
      </trkpt>
      <trkpt lat="44.389851093292236" lon="11.193802440539002">
        <ele>477</ele>
        <time>2004-03-14T08:29:07Z</time>
      </trkpt>
      <trkpt lat="44.389464939013124" lon="11.193480491638184">
        <ele>480</ele>
        <time>2004-03-14T08:29:25Z</time>
      </trkpt>
      <trkpt lat="44.388971328735352" lon="11.193137168884277">
        <ele>482</ele>
        <time>2004-03-14T08:29:45Z</time>
      </trkpt>
      <trkpt lat="44.388735294342041" lon="11.192922592163086">
        <ele>485</ele>
        <time>2004-03-14T08:30:01Z</time>
      </trkpt>
      <trkpt lat="44.388563632965088" lon="11.192643558606505">
        <ele>487</ele>
        <time>2004-03-14T08:30:17Z</time>
      </trkpt>
      <trkpt lat="44.388434886932373" lon="11.192450523376465">
        <ele>490</ele>
        <time>2004-03-14T08:30:26Z</time>
      </trkpt>
      <trkpt lat="44.388413429260254" lon="11.192429065704346">
        <ele>490</ele>
        <time>2004-03-14T08:30:27Z</time>
      </trkpt>
      <trkpt lat="44.388370513916016" lon="11.192343235015869">
        <ele>491</ele>
        <time>2004-03-14T08:30:30Z</time>
      </trkpt>
      <trkpt lat="44.38826322555542" lon="11.192171573638916">
        <ele>495</ele>
        <time>2004-03-14T08:30:39Z</time>
      </trkpt>
      <trkpt lat="44.388198936358094" lon="11.192085659131408">
        <ele>496</ele>
        <time>2004-03-14T08:30:45Z</time>
      </trkpt>
      <trkpt lat="44.388113021850586" lon="11.191828334704041">
        <ele>499</ele>
        <time>2004-03-14T08:30:59Z</time>
      </trkpt>
      <trkpt lat="44.388070106506348" lon="11.191613674163818">
        <ele>502</ele>
        <time>2004-03-14T08:31:10Z</time>
      </trkpt>
      <trkpt lat="44.388048565015197" lon="11.191163063049316">
        <ele>504</ele>
        <time>2004-03-14T08:31:32Z</time>
      </trkpt>
      <trkpt lat="44.388134479522705" lon="11.190841197967529">
        <ele>504</ele>
        <time>2004-03-14T08:31:46Z</time>
      </trkpt>
      <trkpt lat="44.38849925994873" lon="11.19032621383667">
        <ele>501</ele>
        <time>2004-03-14T08:31:57Z</time>
      </trkpt>
      <trkpt lat="44.388756835833192" lon="11.189703941345215">
        <ele>501</ele>
        <time>2004-03-14T08:32:06Z</time>
      </trkpt>
      <trkpt lat="44.388778209686279" lon="11.189124584197998">
        <ele>501</ele>
        <time>2004-03-14T08:32:18Z</time>
      </trkpt>
      <trkpt lat="44.388778209686279" lon="11.189017295837402">
        <ele>501</ele>
        <time>2004-03-14T08:32:20Z</time>
      </trkpt>
      <trkpt lat="44.388542175292969" lon="11.188437938690186">
        <ele>500</ele>
        <time>2004-03-14T08:32:29Z</time>
      </trkpt>
      <trkpt lat="44.388370513916016" lon="11.188094615936279">
        <ele>500</ele>
        <time>2004-03-14T08:32:35Z</time>
      </trkpt>
      <trkpt lat="44.388327598571777" lon="11.187858581542969">
        <ele>500</ele>
        <time>2004-03-14T08:32:39Z</time>
      </trkpt>
      <trkpt lat="44.38849925994873" lon="11.187171936035156">
        <ele>501</ele>
        <time>2004-03-14T08:32:55Z</time>
      </trkpt>
      <trkpt lat="44.388606464490294" lon="11.18682861328125">
        <ele>504</ele>
        <time>2004-03-14T08:33:09Z</time>
      </trkpt>
      <trkpt lat="44.388606464490294" lon="11.186785697937012">
        <ele>506</ele>
        <time>2004-03-14T08:33:12Z</time>
      </trkpt>
      <trkpt lat="44.38852071762085" lon="11.186592578887939">
        <ele>510</ele>
        <time>2004-03-14T08:33:23Z</time>
      </trkpt>
      <trkpt lat="44.388477802276611" lon="11.186292171478271">
        <ele>513</ele>
        <time>2004-03-14T08:33:39Z</time>
      </trkpt>
      <trkpt lat="44.388477802276611" lon="11.185884475708008">
        <ele>516</ele>
        <time>2004-03-14T08:33:57Z</time>
      </trkpt>
      <trkpt lat="44.388434886932373" lon="11.185648441314697">
        <ele>519</ele>
        <time>2004-03-14T08:34:08Z</time>
      </trkpt>
      <trkpt lat="44.388413429260254" lon="11.18558406829834">
        <ele>520</ele>
        <time>2004-03-14T08:34:10Z</time>
      </trkpt>
      <trkpt lat="44.38826322555542" lon="11.185305118560791">
        <ele>522</ele>
        <time>2004-03-14T08:34:25Z</time>
      </trkpt>
      <trkpt lat="44.388091564178467" lon="11.184961795806885">
        <ele>524</ele>
        <time>2004-03-14T08:34:38Z</time>
      </trkpt>
      <trkpt lat="44.388155937194824" lon="11.184704303741455">
        <ele>524</ele>
        <time>2004-03-14T08:34:48Z</time>
      </trkpt>
      <trkpt lat="44.38852071762085" lon="11.184017658233643">
        <ele>525</ele>
        <time>2004-03-14T08:35:08Z</time>
      </trkpt>
      <trkpt lat="44.38849925994873" lon="11.183416759595275">
        <ele>526</ele>
        <time>2004-03-14T08:35:23Z</time>
      </trkpt>
      <trkpt lat="44.388413429260254" lon="11.183180809020996">
        <ele>528</ele>
        <time>2004-03-14T08:35:31Z</time>
      </trkpt>
      <trkpt lat="44.388155937194824" lon="11.182923316955566">
        <ele>531</ele>
        <time>2004-03-14T08:35:44Z</time>
      </trkpt>
      <trkpt lat="44.387941360473633" lon="11.182665824890137">
        <ele>534</ele>
        <time>2004-03-14T08:35:56Z</time>
      </trkpt>
      <trkpt lat="44.387812614440918" lon="11.182472705841064">
        <ele>538</ele>
        <time>2004-03-14T08:36:08Z</time>
      </trkpt>
      <trkpt lat="44.387791240587831" lon="11.182472705841064">
        <ele>538</ele>
        <time>2004-03-14T08:36:09Z</time>
      </trkpt>
      <trkpt lat="44.38776969909668" lon="11.182408332824707">
        <ele>539</ele>
        <time>2004-03-14T08:36:14Z</time>
      </trkpt>
      <trkpt lat="44.38776969909668" lon="11.182279586791992">
        <ele>540</ele>
        <time>2004-03-14T08:36:20Z</time>
      </trkpt>
      <trkpt lat="44.387791240587831" lon="11.182065010070801">
        <ele>542</ele>
        <time>2004-03-14T08:36:29Z</time>
      </trkpt>
      <trkpt lat="44.38776969909668" lon="11.181421279907227">
        <ele>544</ele>
        <time>2004-03-14T08:36:55Z</time>
      </trkpt>
      <trkpt lat="44.387490665540099" lon="11.180992126464844">
        <ele>546</ele>
        <time>2004-03-14T08:37:15Z</time>
      </trkpt>
      <trkpt lat="44.387276172637939" lon="11.180691719055176">
        <ele>549</ele>
        <time>2004-03-14T08:37:29Z</time>
      </trkpt>
      <trkpt lat="44.387168884277344" lon="11.180262565612793">
        <ele>549</ele>
        <time>2004-03-14T08:37:44Z</time>
      </trkpt>
      <trkpt lat="44.387083137407899" lon="11.17957592010498">
        <ele>546</ele>
        <time>2004-03-14T08:37:56Z</time>
      </trkpt>
      <trkpt lat="44.38701868057251" lon="11.178524494171143">
        <ele>544</ele>
        <time>2004-03-14T08:38:10Z</time>
      </trkpt>
      <trkpt lat="44.386696815490723" lon="11.177687561139464">
        <ele>545</ele>
        <time>2004-03-14T08:38:27Z</time>
      </trkpt>
      <trkpt lat="44.386332035064697" lon="11.176958084106445">
        <ele>547</ele>
        <time>2004-03-14T08:38:48Z</time>
      </trkpt>
      <trkpt lat="44.385881423950195" lon="11.176378726959229">
        <ele>548</ele>
        <time>2004-03-14T08:39:08Z</time>
      </trkpt>
      <trkpt lat="44.385602474212646" lon="11.176056861877441">
        <ele>551</ele>
        <time>2004-03-14T08:39:26Z</time>
      </trkpt>
      <trkpt lat="44.385473728179932" lon="11.175906658172607">
        <ele>553</ele>
        <time>2004-03-14T08:39:38Z</time>
      </trkpt>
      <trkpt lat="44.385366439819336" lon="11.175756538286805">
        <ele>556</ele>
        <time>2004-03-14T08:39:48Z</time>
      </trkpt>
      <trkpt lat="44.385194778442383" lon="11.175498962402344">
        <ele>560</ele>
        <time>2004-03-14T08:40:05Z</time>
      </trkpt>
      <trkpt lat="44.385173320770264" lon="11.175498962402344">
        <ele>560</ele>
        <time>2004-03-14T08:40:06Z</time>
      </trkpt>
      <trkpt lat="44.38502311706543" lon="11.17530575953424">
        <ele>563</ele>
        <time>2004-03-14T08:40:21Z</time>
      </trkpt>
      <trkpt lat="44.384937286376953" lon="11.175220012664795">
        <ele>566</ele>
        <time>2004-03-14T08:40:30Z</time>
      </trkpt>
      <trkpt lat="44.384872913360596" lon="11.175155639648438">
        <ele>568</ele>
        <time>2004-03-14T08:40:36Z</time>
      </trkpt>
      <trkpt lat="44.384701335802674" lon="11.175069808959961">
        <ele>570</ele>
        <time>2004-03-14T08:40:52Z</time>
      </trkpt>
      <trkpt lat="44.38450813293457" lon="11.175069808959961">
        <ele>574</ele>
        <time>2004-03-14T08:41:05Z</time>
      </trkpt>
      <trkpt lat="44.384315013885498" lon="11.175112724304199">
        <ele>577</ele>
        <time>2004-03-14T08:41:19Z</time>
      </trkpt>
      <trkpt lat="44.384100437164307" lon="11.175177097320557">
        <ele>579</ele>
        <time>2004-03-14T08:41:34Z</time>
      </trkpt>
      <trkpt lat="44.384057521820068" lon="11.17534875869751">
        <ele>583</ele>
        <time>2004-03-14T08:41:46Z</time>
      </trkpt>
      <trkpt lat="44.384078979492188" lon="11.175477504730225">
        <ele>586</ele>
        <time>2004-03-14T08:41:54Z</time>
      </trkpt>
      <trkpt lat="44.384143436327577" lon="11.175627708435059">
        <ele>588</ele>
        <time>2004-03-14T08:42:03Z</time>
      </trkpt>
      <trkpt lat="44.384293640032411" lon="11.176013862714171">
        <ele>592</ele>
        <time>2004-03-14T08:42:23Z</time>
      </trkpt>
      <trkpt lat="44.384357929229736" lon="11.176142692565918">
        <ele>594</ele>
        <time>2004-03-14T08:42:29Z</time>
      </trkpt>
      <trkpt lat="44.384379386901855" lon="11.176164234057069">
        <ele>595</ele>
        <time>2004-03-14T08:42:31Z</time>
      </trkpt>
      <trkpt lat="44.384293640032411" lon="11.176207065582275">
        <ele>596</ele>
        <time>2004-03-14T08:42:35Z</time>
      </trkpt>
      <trkpt lat="44.384036064147949" lon="11.176056861877441">
        <ele>600</ele>
        <time>2004-03-14T08:42:49Z</time>
      </trkpt>
      <trkpt lat="44.383842861279845" lon="11.175885200500488">
        <ele>603</ele>
        <time>2004-03-14T08:43:02Z</time>
      </trkpt>
      <trkpt lat="44.383585536852479" lon="11.17584228515625">
        <ele>606</ele>
        <time>2004-03-14T08:43:15Z</time>
      </trkpt>
      <trkpt lat="44.383370876312256" lon="11.17584228515625">
        <ele>610</ele>
        <time>2004-03-14T08:43:28Z</time>
      </trkpt>
      <trkpt lat="44.383370876312256" lon="11.17584228515625">
        <ele>610</ele>
        <time>2004-03-14T08:43:29Z</time>
      </trkpt>
      <trkpt lat="44.383070468902588" lon="11.175799369812012">
        <ele>613</ele>
        <time>2004-03-14T08:43:48Z</time>
      </trkpt>
      <trkpt lat="44.382963180541992" lon="11.175777912139893">
        <ele>616</ele>
        <time>2004-03-14T08:43:57Z</time>
      </trkpt>
      <trkpt lat="44.382748603820801" lon="11.175713539123535">
        <ele>619</ele>
        <time>2004-03-14T08:44:11Z</time>
      </trkpt>
      <trkpt lat="44.382619941607118" lon="11.175670623779297">
        <ele>623</ele>
        <time>2004-03-14T08:44:20Z</time>
      </trkpt>
      <trkpt lat="44.382383823394775" lon="11.175627708435059">
        <ele>626</ele>
        <time>2004-03-14T08:44:35Z</time>
      </trkpt>
      <trkpt lat="44.382169162854552" lon="11.175649166107178">
        <ele>628</ele>
        <time>2004-03-14T08:44:51Z</time>
      </trkpt>
      <trkpt lat="44.381911838427186" lon="11.175670623779297">
        <ele>631</ele>
        <time>2004-03-14T08:45:10Z</time>
      </trkpt>
      <trkpt lat="44.381697177886963" lon="11.175520420074463">
        <ele>632</ele>
        <time>2004-03-14T08:45:27Z</time>
      </trkpt>
      <trkpt lat="44.381482601165771" lon="11.17530575953424">
        <ele>633</ele>
        <time>2004-03-14T08:45:43Z</time>
      </trkpt>
      <trkpt lat="44.381074905395508" lon="11.174983978271484">
        <ele>634</ele>
        <time>2004-03-14T08:46:07Z</time>
      </trkpt>
      <trkpt lat="44.380796039476991" lon="11.174876689910889">
        <ele>634</ele>
        <time>2004-03-14T08:46:25Z</time>
      </trkpt>
      <trkpt lat="44.379650065675378" lon="11.1743822414428">
        <ele>634</ele>
        <time>1989-12-31T00:00:00Z</time>
      </trkpt>
      <trkpt lat="44.379058806225657" lon="11.174251567572355">
        <ele>634</ele>
        <time>1989-12-31T00:00:00Z</time>
      </trkpt>
      <trkpt lat="44.378105197101831" lon="11.173053709790111">
        <ele>634</ele>
        <time>1989-12-31T00:00:00Z</time>
      </trkpt>
      <trkpt lat="44.377391813322902" lon="11.171462992206216">
        <ele>634</ele>
        <time>1989-12-31T00:00:00Z</time>
      </trkpt>
      <trkpt lat="44.37722023576498" lon="11.171347573399544">
        <ele>634</ele>
        <time>1989-12-31T00:00:00Z</time>
      </trkpt>
      <trkpt lat="44.376850090920925" lon="11.171705229207873">
        <ele>634</ele>
        <time>1989-12-31T00:00:00Z</time>
      </trkpt>
      <trkpt lat="44.37668614089489" lon="11.171498280018568">
        <ele>634</ele>
        <time>1989-12-31T00:00:00Z</time>
      </trkpt>
      <trkpt lat="44.377006497234106" lon="11.170906098559499">
        <ele>634</ele>
        <time>1989-12-31T00:00:00Z</time>
      </trkpt>
      <trkpt lat="44.376907339319587" lon="11.170205119997263">
        <ele>634</ele>
        <time>1989-12-31T00:00:00Z</time>
      </trkpt>
      <trkpt lat="44.376071915030479" lon="11.168345510959625">
        <ele>634</ele>
        <time>1989-12-31T00:00:00Z</time>
      </trkpt>
      <trkpt lat="44.375629434362054" lon="11.166842468082905">
        <ele>634</ele>
        <time>1989-12-31T00:00:00Z</time>
      </trkpt>
      <trkpt lat="44.374897023662925" lon="11.165594067424536">
        <ele>634</ele>
        <time>1989-12-31T00:00:00Z</time>
      </trkpt>
      <trkpt lat="44.37458798289299" lon="11.165217384696007">
        <ele>634</ele>
        <time>1989-12-31T00:00:00Z</time>
      </trkpt>
      <trkpt lat="44.374507935717702" lon="11.164822597056627">
        <ele>634</ele>
        <time>1989-12-31T00:00:00Z</time>
      </trkpt>
      <trkpt lat="44.374061599373817" lon="11.164493607357144">
        <ele>634</ele>
        <time>1989-12-31T00:00:00Z</time>
      </trkpt>
      <trkpt lat="44.374106358736753" lon="11.16283206269145">
        <ele>620</ele>
        <time>2004-06-05T09:57:19Z</time>
      </trkpt>
      <trkpt lat="44.373508477583528" lon="11.160896262153983">
        <ele>620</ele>
        <time>1989-12-31T00:00:00Z</time>
      </trkpt>
      <trkpt lat="44.372493680566549" lon="11.159707121551037">
        <ele>575</ele>
        <time>1989-12-31T00:00:00Z</time>
      </trkpt>
      <trkpt lat="44.372215317562222" lon="11.159555409103632">
        <ele>575</ele>
        <time>1989-12-31T00:00:00Z</time>
      </trkpt>
      <trkpt lat="44.371570581570268" lon="11.159597402438521">
        <ele>600</ele>
        <time>1989-12-31T00:00:00Z</time>
      </trkpt>
      <trkpt lat="44.371017459779978" lon="11.160010294988751">
        <ele>610</ele>
        <time>1989-12-31T00:00:00Z</time>
      </trkpt>
      <trkpt lat="44.370891563594341" lon="11.160256387665868">
        <ele>610</ele>
        <time>1989-12-31T00:00:00Z</time>
      </trkpt>
      <trkpt lat="44.370658881962299" lon="11.160192517563701">
        <ele>610</ele>
        <time>1989-12-31T00:00:00Z</time>
      </trkpt>
      <trkpt lat="44.370258310809731" lon="11.161199603229761">
        <ele>630</ele>
        <time>1989-12-31T00:00:00Z</time>
      </trkpt>
      <trkpt lat="44.370033340528607" lon="11.161212930455804">
        <ele>630</ele>
        <time>1989-12-31T00:00:00Z</time>
      </trkpt>
      <trkpt lat="44.370109615847468" lon="11.160683613270521">
        <ele>630</ele>
        <time>1989-12-31T00:00:00Z</time>
      </trkpt>
      <trkpt lat="44.369716588407755" lon="11.160886790603399">
        <ele>650</ele>
        <time>1989-12-31T00:00:00Z</time>
      </trkpt>
      <trkpt lat="44.368843110278249" lon="11.161831934005022">
        <ele>675</ele>
        <time>1989-12-31T00:00:00Z</time>
      </trkpt>
      <trkpt lat="44.368514958769083" lon="11.161960596218705">
        <ele>690</ele>
        <time>1989-12-31T00:00:00Z</time>
      </trkpt>
      <trkpt lat="44.368366179987788" lon="11.161810895428061">
        <ele>690</ele>
        <time>1989-12-31T00:00:00Z</time>
      </trkpt>
      <trkpt lat="44.368331898003817" lon="11.16157821379602">
        <ele>690</ele>
        <time>1989-12-31T00:00:00Z</time>
      </trkpt>
      <trkpt lat="44.368171719834208" lon="11.161427507176995">
        <ele>695</ele>
        <time>1989-12-31T00:00:00Z</time>
      </trkpt>
      <trkpt lat="44.368122098967433" lon="11.160875307396054">
        <ele>695</ele>
        <time>1989-12-31T00:00:00Z</time>
      </trkpt>
      <trkpt lat="44.368019085377455" lon="11.160654108971357">
        <ele>695</ele>
        <time>1989-12-31T00:00:00Z</time>
      </trkpt>
      <trkpt lat="44.367668218910694" lon="11.16032981313765">
        <ele>700</ele>
        <time>1989-12-31T00:00:00Z</time>
      </trkpt>
      <trkpt lat="44.366996828466654" lon="11.159731931984425">
        <ele>708</ele>
        <time>1989-12-31T00:00:00Z</time>
      </trkpt>
      <trkpt lat="44.36698148958385" lon="11.159014692530036">
        <ele>717</ele>
        <time>1989-12-31T00:00:00Z</time>
      </trkpt>
      <trkpt lat="44.36617280356586" lon="11.157506871968508">
        <ele>730</ele>
        <time>1989-12-31T00:00:00Z</time>
      </trkpt>
      <trkpt lat="44.365844735875726" lon="11.157248541712761">
        <ele>730</ele>
        <time>1989-12-31T00:00:00Z</time>
      </trkpt>
      <trkpt lat="44.364967318251729" lon="11.157179810106754">
        <ele>734</ele>
        <time>1989-12-31T00:00:00Z</time>
      </trkpt>
      <trkpt lat="44.364734636619687" lon="11.156395934522152">
        <ele>734</ele>
        <time>1989-12-31T00:00:00Z</time>
      </trkpt>
      <trkpt lat="44.364692727103829" lon="11.155979186296463">
        <ele>734</ele>
        <time>1989-12-31T00:00:00Z</time>
      </trkpt>
      <trkpt lat="44.364746119827032" lon="11.15567022934556">
        <ele>734</ele>
        <time>1989-12-31T00:00:00Z</time>
      </trkpt>
      <trkpt lat="44.364654505625367" lon="11.155267730355263">
        <ele>734</ele>
        <time>1989-12-31T00:00:00Z</time>
      </trkpt>
      <trkpt lat="44.364147232845426" lon="11.155010238289833">
        <ele>720</ele>
        <time>1989-12-31T00:00:00Z</time>
      </trkpt>
      <trkpt lat="44.363773316144943" lon="11.153743732720613">
        <ele>717</ele>
        <time>1989-12-31T00:00:00Z</time>
      </trkpt>
      <trkpt lat="44.363380372524261" lon="11.153299324214458">
        <ele>717</ele>
        <time>1989-12-31T00:00:00Z</time>
      </trkpt>
      <trkpt lat="44.363239305093884" lon="11.152764307335019">
        <ele>717</ele>
        <time>1989-12-31T00:00:00Z</time>
      </trkpt>
      <trkpt lat="44.363102009519935" lon="11.152525926008821">
        <ele>717</ele>
        <time>1989-12-31T00:00:00Z</time>
      </trkpt>
      <trkpt lat="44.362892210483551" lon="11.152423918247223">
        <ele>717</ele>
        <time>1989-12-31T00:00:00Z</time>
      </trkpt>
      <trkpt lat="44.362045302987099" lon="11.152481082826853">
        <ele>717</ele>
        <time>1989-12-31T00:00:00Z</time>
      </trkpt>
      <trkpt lat="44.361854614689946" lon="11.152316965162754">
        <ele>710</ele>
        <time>1989-12-31T00:00:00Z</time>
      </trkpt>
      <trkpt lat="44.361766772344708" lon="11.152034830302">
        <ele>710</ele>
        <time>1989-12-31T00:00:00Z</time>
      </trkpt>
      <trkpt lat="44.362209336832166" lon="11.151054399088025">
        <ele>700</ele>
        <time>1989-12-31T00:00:00Z</time>
      </trkpt>
      <trkpt lat="44.362419135868549" lon="11.150821717455983">
        <ele>700</ele>
        <time>1989-12-31T00:00:00Z</time>
      </trkpt>
      <trkpt lat="44.362945603206754" lon="11.150822639465332">
        <ele>680</ele>
        <time>1989-12-31T00:00:00Z</time>
      </trkpt>
      <trkpt lat="44.363296469673514" lon="11.151050627231598">
        <ele>680</ele>
        <time>1989-12-31T00:00:00Z</time>
      </trkpt>
      <trkpt lat="44.36354449018836" lon="11.151072503998876">
        <ele>680</ele>
        <time>1989-12-31T00:00:00Z</time>
      </trkpt>
      <trkpt lat="44.364471361041069" lon="11.150444028899074">
        <ele>675</ele>
        <time>1989-12-31T00:00:00Z</time>
      </trkpt>
      <trkpt lat="44.364784173667431" lon="11.149704912677407">
        <ele>680</ele>
        <time>1989-12-31T00:00:00Z</time>
      </trkpt>
      <trkpt lat="44.364917781203985" lon="11.149191940203309">
        <ele>680</ele>
        <time>1989-12-31T00:00:00Z</time>
      </trkpt>
      <trkpt lat="44.364913925528526" lon="11.148655917495489">
        <ele>680</ele>
        <time>1989-12-31T00:00:00Z</time>
      </trkpt>
      <trkpt lat="44.364822395145893" lon="11.148222908377647">
        <ele>670</ele>
        <time>1989-12-31T00:00:00Z</time>
      </trkpt>
      <trkpt lat="44.364620223641396" lon="11.147893918678164">
        <ele>670</ele>
        <time>1989-12-31T00:00:00Z</time>
      </trkpt>
      <trkpt lat="44.364578230306506" lon="11.147241638973355">
        <ele>670</ele>
        <time>1989-12-31T00:00:00Z</time>
      </trkpt>
      <trkpt lat="44.36429601162672" lon="11.146153500303626">
        <ele>660</ele>
        <time>1989-12-31T00:00:00Z</time>
      </trkpt>
      <trkpt lat="44.36409761197865" lon="11.145772878080606">
        <ele>660</ele>
        <time>1989-12-31T00:00:00Z</time>
      </trkpt>
      <trkpt lat="44.364058971405029" lon="11.145522594451904">
        <ele>658</ele>
        <time>2004-06-05T09:29:50Z</time>
      </trkpt>
      <trkpt lat="44.363973140716553" lon="11.145136440172791">
        <ele>659</ele>
        <time>2004-06-05T09:29:42Z</time>
      </trkpt>
      <trkpt lat="44.363973140716553" lon="11.144320964813232">
        <ele>659</ele>
        <time>2004-06-05T09:29:20Z</time>
      </trkpt>
      <trkpt lat="44.363994598388672" lon="11.143870437517762">
        <ele>658</ele>
        <time>2004-06-05T09:29:07Z</time>
      </trkpt>
      <trkpt lat="44.363694190979004" lon="11.143398284912109">
        <ele>657</ele>
        <time>2004-06-05T09:28:50Z</time>
      </trkpt>
      <trkpt lat="44.36354398727417" lon="11.142861759290099">
        <ele>657</ele>
        <time>2004-06-05T09:28:34Z</time>
      </trkpt>
      <trkpt lat="44.363694190979004" lon="11.142196739092469">
        <ele>655</ele>
        <time>2004-06-05T09:28:15Z</time>
      </trkpt>
      <trkpt lat="44.363608360290527" lon="11.141552925109863">
        <ele>654</ele>
        <time>2004-06-05T09:27:58Z</time>
      </trkpt>
      <trkpt lat="44.363651275634766" lon="11.141080940142274">
        <ele>653</ele>
        <time>2004-06-05T09:27:43Z</time>
      </trkpt>
      <trkpt lat="44.363822937011719" lon="11.140565872192383">
        <ele>652</ele>
        <time>2004-06-05T09:27:28Z</time>
      </trkpt>
      <trkpt lat="44.363608360290527" lon="11.139771938323975">
        <ele>650</ele>
        <time>2004-06-05T09:27:09Z</time>
      </trkpt>
      <trkpt lat="44.363350868225098" lon="11.139020919799805">
        <ele>651</ele>
        <time>2004-06-05T09:26:54Z</time>
      </trkpt>
      <trkpt lat="44.36328649520874" lon="11.138699138537049">
        <ele>651</ele>
        <time>2004-06-05T09:26:49Z</time>
      </trkpt>
      <trkpt lat="44.363393783569336" lon="11.138055324554443">
        <ele>651</ele>
        <time>2004-06-05T09:26:41Z</time>
      </trkpt>
      <trkpt lat="44.363393783569336" lon="11.137969493865967">
        <ele>652</ele>
        <time>2004-06-05T09:26:40Z</time>
      </trkpt>
      <trkpt lat="44.363243579864502" lon="11.137561798095703">
        <ele>653</ele>
        <time>2004-06-05T09:26:32Z</time>
      </trkpt>
      <trkpt lat="44.36279296875" lon="11.137497425079346">
        <ele>655</ele>
        <time>2004-06-05T09:26:22Z</time>
      </trkpt>
      <trkpt lat="44.362599765881896" lon="11.137325763702393">
        <ele>656</ele>
        <time>2004-06-05T09:26:17Z</time>
      </trkpt>
      <trkpt lat="44.36253547668457" lon="11.137282764539123">
        <ele>658</ele>
        <time>2004-06-05T09:26:14Z</time>
      </trkpt>
      <trkpt lat="44.362514019012451" lon="11.137347221374512">
        <ele>659</ele>
        <time>2004-06-05T09:26:12Z</time>
      </trkpt>
      <trkpt lat="44.362449562177062" lon="11.137475967407227">
        <ele>662</ele>
        <time>2004-06-05T09:26:09Z</time>
      </trkpt>
      <trkpt lat="44.362320899963379" lon="11.137690460309386">
        <ele>663</ele>
        <time>2004-06-05T09:26:05Z</time>
      </trkpt>
      <trkpt lat="44.362256526947021" lon="11.137712001800537">
        <ele>663</ele>
        <time>2004-06-05T09:26:01Z</time>
      </trkpt>
      <trkpt lat="44.362256526947021" lon="11.137712001800537">
        <ele>662</ele>
        <time>2004-06-05T09:25:25Z</time>
      </trkpt>
      <trkpt lat="44.362256526947021" lon="11.137712001800537">
        <ele>664</ele>
        <time>2004-06-05T09:24:51Z</time>
      </trkpt>
      <trkpt lat="44.362235069274902" lon="11.137712001800537">
        <ele>665</ele>
        <time>2004-06-05T09:24:42Z</time>
      </trkpt>
      <trkpt lat="44.362020492553711" lon="11.137347221374512">
        <ele>670</ele>
        <time>2004-06-05T09:24:38Z</time>
      </trkpt>
      <trkpt lat="44.362020492553711" lon="11.137325763702393">
        <ele>670</ele>
        <time>2004-06-05T09:24:37Z</time>
      </trkpt>
      <trkpt lat="44.362063407897949" lon="11.137132560834289">
        <ele>673</ele>
        <time>2004-06-05T09:24:35Z</time>
      </trkpt>
      <trkpt lat="44.361934661865234" lon="11.137218475341797">
        <ele>675</ele>
        <time>2004-06-05T09:24:33Z</time>
      </trkpt>
      <trkpt lat="44.361677169799805" lon="11.136467540636659">
        <ele>680</ele>
        <time>2004-06-05T09:24:30Z</time>
      </trkpt>
      <trkpt lat="44.361376762390137" lon="11.135458862408996">
        <ele>684</ele>
        <time>2004-06-05T09:24:25Z</time>
      </trkpt>
      <trkpt lat="44.361333763226867" lon="11.135458862408996">
        <ele>685</ele>
        <time>2004-06-05T09:24:22Z</time>
      </trkpt>
      <trkpt lat="44.361269474029541" lon="11.13539457321167">
        <ele>686</ele>
        <time>2004-06-05T09:24:21Z</time>
      </trkpt>
      <trkpt lat="44.361162185668945" lon="11.135287284851074">
        <ele>686</ele>
        <time>2004-06-05T09:24:19Z</time>
      </trkpt>
      <trkpt lat="44.360754489898682" lon="11.135952472686768">
        <ele>687</ele>
        <time>2004-06-05T09:24:18Z</time>
      </trkpt>
      <trkpt lat="44.36053991317749" lon="11.136081218719482">
        <ele>690</ele>
        <time>2004-06-05T09:24:15Z</time>
      </trkpt>
      <trkpt lat="44.360475540161133" lon="11.13614559173584">
        <ele>690</ele>
        <time>2004-06-05T09:24:14Z</time>
      </trkpt>
      <trkpt lat="44.360196590423584" lon="11.136445999145508">
        <ele>694</ele>
        <time>2004-06-05T09:24:10Z</time>
      </trkpt>
      <trkpt lat="44.359917640686035" lon="11.136660575866699">
        <ele>698</ele>
        <time>2004-06-05T09:24:06Z</time>
      </trkpt>
      <trkpt lat="44.359595775604248" lon="11.136746406555176">
        <ele>700</ele>
        <time>2004-06-05T09:24:01Z</time>
      </trkpt>
      <trkpt lat="44.35950986109674" lon="11.136746406555176">
        <ele>701</ele>
        <time>2004-06-05T09:23:59Z</time>
      </trkpt>
      <trkpt lat="44.359381198883057" lon="11.136918067932129">
        <ele>703</ele>
        <time>2004-06-05T09:23:50Z</time>
      </trkpt>
      <trkpt lat="44.359381198883057" lon="11.136960983276367">
        <ele>703</ele>
        <time>2004-06-05T09:23:24Z</time>
      </trkpt>
      <trkpt lat="44.359338283538818" lon="11.137068271636963">
        <ele>703</ele>
        <time>2004-06-05T09:23:08Z</time>
      </trkpt>
      <trkpt lat="44.359016418457031" lon="11.136960983276367">
        <ele>701</ele>
        <time>2004-06-05T09:22:44Z</time>
      </trkpt>
      <trkpt lat="44.358716011047363" lon="11.137197017669678">
        <ele>698</ele>
        <time>2004-06-05T09:22:29Z</time>
      </trkpt>
      <trkpt lat="44.358608722686768" lon="11.137218475341797">
        <ele>697</ele>
        <time>2004-06-05T09:22:23Z</time>
      </trkpt>
      <trkpt lat="44.358587265014648" lon="11.137282764539123">
        <ele>697</ele>
        <time>2004-06-05T09:22:21Z</time>
      </trkpt>
      <trkpt lat="44.358565807342529" lon="11.137411594390869">
        <ele>695</ele>
        <time>2004-06-05T09:22:17Z</time>
      </trkpt>
      <trkpt lat="44.358415603637695" lon="11.137926578521729">
        <ele>695</ele>
        <time>2004-06-05T09:21:53Z</time>
      </trkpt>
      <trkpt lat="44.358329772949219" lon="11.138226985931396">
        <ele>692</ele>
        <time>2004-06-05T09:21:41Z</time>
      </trkpt>
      <trkpt lat="44.358265399932861" lon="11.13837718963623">
        <ele>689</ele>
        <time>2004-06-05T09:21:35Z</time>
      </trkpt>
      <trkpt lat="44.358072280883789" lon="11.138720512390137">
        <ele>687</ele>
        <time>2004-06-05T09:21:14Z</time>
      </trkpt>
      <trkpt lat="44.357943534851074" lon="11.138999462127686">
        <ele>686</ele>
        <time>2004-06-05T09:20:55Z</time>
      </trkpt>
      <trkpt lat="44.357857704162598" lon="11.139214038848877">
        <ele>683</ele>
        <time>2004-06-05T09:20:36Z</time>
      </trkpt>
      <trkpt lat="44.357836162671447" lon="11.139492988586426">
        <ele>680</ele>
        <time>2004-06-05T09:20:13Z</time>
      </trkpt>
      <trkpt lat="44.357900619506836" lon="11.139600276947021">
        <ele>680</ele>
        <time>2004-06-05T09:20:05Z</time>
      </trkpt>
      <trkpt lat="44.357922077178955" lon="11.139900684356689">
        <ele>677</ele>
        <time>2004-06-05T09:19:48Z</time>
      </trkpt>
      <trkpt lat="44.357814788818359" lon="11.140286922454834">
        <ele>675</ele>
        <time>2004-06-05T09:19:30Z</time>
      </trkpt>
      <trkpt lat="44.357171058654785" lon="11.141939163208008">
        <ele>672</ele>
        <time>2004-06-05T09:18:51Z</time>
      </trkpt>
      <trkpt lat="44.357128059491515" lon="11.142067909240723">
        <ele>674</ele>
        <time>2004-06-05T09:18:48Z</time>
      </trkpt>
      <trkpt lat="44.357020938768983" lon="11.142518520355225">
        <ele>677</ele>
        <time>2004-06-05T09:18:36Z</time>
      </trkpt>
      <trkpt lat="44.356913566589355" lon="11.142990589141846">
        <ele>679</ele>
        <time>2004-06-05T09:18:13Z</time>
      </trkpt>
      <trkpt lat="44.356892108917236" lon="11.142990589141846">
        <ele>681</ele>
        <time>2004-06-05T09:16:44Z</time>
      </trkpt>
      <trkpt lat="44.356892108917236" lon="11.143226623535156">
        <ele>679</ele>
        <time>2004-06-05T09:16:24Z</time>
      </trkpt>
      <trkpt lat="44.356892108917236" lon="11.143505573272705">
        <ele>675</ele>
        <time>2004-06-05T09:16:10Z</time>
      </trkpt>
      <trkpt lat="44.356870735064149" lon="11.14363431930542">
        <ele>675</ele>
        <time>2004-06-05T09:16:04Z</time>
      </trkpt>
      <trkpt lat="44.356741905212402" lon="11.143956184387207">
        <ele>672</ele>
        <time>2004-06-05T09:15:47Z</time>
      </trkpt>
      <trkpt lat="44.35654878616333" lon="11.144277965649962">
        <ele>671</ele>
        <time>2004-06-05T09:15:28Z</time>
      </trkpt>
      <trkpt lat="44.356184005737305" lon="11.14438533782959">
        <ele>671</ele>
        <time>2004-06-05T09:15:04Z</time>
      </trkpt>
      <trkpt lat="44.35605525970459" lon="11.144707202911377">
        <ele>667</ele>
        <time>2004-06-05T09:14:51Z</time>
      </trkpt>
      <trkpt lat="44.355840682983398" lon="11.145200729370117">
        <ele>666</ele>
        <time>2004-06-05T09:14:36Z</time>
      </trkpt>
      <trkpt lat="44.355432987213135" lon="11.14537239074707">
        <ele>668</ele>
        <time>2004-06-05T09:14:27Z</time>
      </trkpt>
      <trkpt lat="44.355239868164063" lon="11.145479679107666">
        <ele>670</ele>
        <time>2004-06-05T09:14:24Z</time>
      </trkpt>
      <trkpt lat="44.354746341705322" lon="11.145694339647889">
        <ele>673</ele>
        <time>2004-06-05T09:14:13Z</time>
      </trkpt>
      <trkpt lat="44.354681968688965" lon="11.145694339647889">
        <ele>674</ele>
        <time>2004-06-05T09:14:11Z</time>
      </trkpt>
      <trkpt lat="44.354317188262939" lon="11.145544135943055">
        <ele>677</ele>
        <time>2004-06-05T09:13:54Z</time>
      </trkpt>
      <trkpt lat="44.35429573059082" lon="11.145522594451904">
        <ele>677</ele>
        <time>2004-06-05T09:13:40Z</time>
      </trkpt>
      <trkpt lat="44.354317188262939" lon="11.145522594451904">
        <ele>677</ele>
        <time>2004-06-05T09:13:00Z</time>
      </trkpt>
      <trkpt lat="44.354317188262939" lon="11.145522594451904">
        <ele>676</ele>
        <time>2004-06-05T09:12:36Z</time>
      </trkpt>
      <trkpt lat="44.35429573059082" lon="11.145436763763428">
        <ele>676</ele>
        <time>2004-06-05T09:12:19Z</time>
      </trkpt>
      <trkpt lat="44.35429573059082" lon="11.145179271697998">
        <ele>674</ele>
        <time>2004-06-05T09:12:06Z</time>
      </trkpt>
      <trkpt lat="44.35429573059082" lon="11.14483586512506">
        <ele>671</ele>
        <time>2004-06-05T09:11:49Z</time>
      </trkpt>
      <trkpt lat="44.35429573059082" lon="11.144814491271973">
        <ele>671</ele>
        <time>2004-06-05T09:11:48Z</time>
      </trkpt>
      <trkpt lat="44.354338562116027" lon="11.14442833699286">
        <ele>667</ele>
        <time>2004-06-05T09:11:30Z</time>
      </trkpt>
      <trkpt lat="44.354338562116027" lon="11.144320964813232">
        <ele>666</ele>
        <time>2004-06-05T09:11:11Z</time>
      </trkpt>
      <trkpt lat="44.35429573059082" lon="11.144149303436279">
        <ele>665</ele>
        <time>2004-06-05T09:10:56Z</time>
      </trkpt>
      <trkpt lat="44.354209899902344" lon="11.143999099731445">
        <ele>664</ele>
        <time>2004-06-05T09:10:43Z</time>
      </trkpt>
      <trkpt lat="44.354124069213867" lon="11.143741607666016">
        <ele>662</ele>
        <time>2004-06-05T09:10:29Z</time>
      </trkpt>
      <trkpt lat="44.354124069213867" lon="11.143720066174865">
        <ele>662</ele>
        <time>2004-06-05T09:10:28Z</time>
      </trkpt>
      <trkpt lat="44.354081237688661" lon="11.143441200256348">
        <ele>659</ele>
        <time>2004-06-05T09:10:15Z</time>
      </trkpt>
      <trkpt lat="44.353995323181152" lon="11.143097877502441">
        <ele>656</ele>
        <time>2004-06-05T09:09:56Z</time>
      </trkpt>
      <trkpt lat="44.353737831115723" lon="11.142990589141846">
        <ele>652</ele>
        <time>2004-06-05T09:09:39Z</time>
      </trkpt>
      <trkpt lat="44.353415966033936" lon="11.14288330078125">
        <ele>650</ele>
        <time>2004-06-05T09:09:21Z</time>
      </trkpt>
      <trkpt lat="44.353351593017578" lon="11.14288330078125">
        <ele>652</ele>
        <time>2004-06-05T09:09:18Z</time>
      </trkpt>
      <trkpt lat="44.352900981903076" lon="11.142990589141846">
        <ele>651</ele>
        <time>2004-06-05T09:09:08Z</time>
      </trkpt>
      <trkpt lat="44.352815235033631" lon="11.142969131469727">
        <ele>653</ele>
        <time>2004-06-05T09:09:06Z</time>
      </trkpt>
      <trkpt lat="44.352750778198242" lon="11.142969131469727">
        <ele>654</ele>
        <time>2004-06-05T09:09:04Z</time>
      </trkpt>
      <trkpt lat="44.352686405181885" lon="11.142990589141846">
        <ele>655</ele>
        <time>2004-06-05T09:09:02Z</time>
      </trkpt>
      <trkpt lat="44.352493286132812" lon="11.14288330078125">
        <ele>657</ele>
        <time>2004-06-05T09:08:55Z</time>
      </trkpt>
      <trkpt lat="44.352364540100098" lon="11.142840385437012">
        <ele>661</ele>
        <time>2004-06-05T09:08:50Z</time>
      </trkpt>
      <trkpt lat="44.352321624755859" lon="11.142840385437012">
        <ele>662</ele>
        <time>2004-06-05T09:08:48Z</time>
      </trkpt>
      <trkpt lat="44.351978302001953" lon="11.142990589141846">
        <ele>664</ele>
        <time>2004-06-05T09:08:34Z</time>
      </trkpt>
      <trkpt lat="44.351871013641357" lon="11.143011962994933">
        <ele>665</ele>
        <time>2004-06-05T09:08:31Z</time>
      </trkpt>
      <trkpt lat="44.351656436920166" lon="11.142969131469727">
        <ele>667</ele>
        <time>2004-06-05T09:08:25Z</time>
      </trkpt>
      <trkpt lat="44.351549064740539" lon="11.142797470092773">
        <ele>669</ele>
        <time>2004-06-05T09:08:13Z</time>
      </trkpt>
      <trkpt lat="44.351463317871094" lon="11.142647266387939">
        <ele>669</ele>
        <time>2004-06-05T09:08:04Z</time>
      </trkpt>
      <trkpt lat="44.351141536608338" lon="11.141939163208008">
        <ele>673</ele>
        <time>2004-06-05T09:07:52Z</time>
      </trkpt>
      <trkpt lat="44.35105562210083" lon="11.141638839617372">
        <ele>674</ele>
        <time>2004-06-05T09:07:48Z</time>
      </trkpt>
      <trkpt lat="44.351012706756592" lon="11.141488635912538">
        <ele>676</ele>
        <time>2004-06-05T09:07:46Z</time>
      </trkpt>
      <trkpt lat="44.350948333740234" lon="11.141402721405029">
        <ele>677</ele>
        <time>2004-06-05T09:07:44Z</time>
      </trkpt>
      <trkpt lat="44.350862503051758" lon="11.141424179077148">
        <ele>677</ele>
        <time>2004-06-05T09:07:41Z</time>
      </trkpt>
      <trkpt lat="44.350733840838075" lon="11.141531467437744">
        <ele>680</ele>
        <time>2004-06-05T09:07:36Z</time>
      </trkpt>
      <trkpt lat="44.350540637969971" lon="11.141660213470459">
        <ele>682</ele>
        <time>2004-06-05T09:07:27Z</time>
      </trkpt>
      <trkpt lat="44.350519180297852" lon="11.141660213470459">
        <ele>682</ele>
        <time>2004-06-05T09:07:05Z</time>
      </trkpt>
      <trkpt lat="44.350497722625732" lon="11.141660213470459">
        <ele>682</ele>
        <time>2004-06-05T09:06:34Z</time>
      </trkpt>
      <trkpt lat="44.350476264953613" lon="11.141703128814697">
        <ele>682</ele>
        <time>2004-06-05T09:05:42Z</time>
      </trkpt>
      <trkpt lat="44.350454807281494" lon="11.141788959503174">
        <ele>682</ele>
        <time>2004-06-05T09:05:26Z</time>
      </trkpt>
      <trkpt lat="44.350240230560303" lon="11.142153739929199">
        <ele>681</ele>
        <time>2004-06-05T09:05:08Z</time>
      </trkpt>
      <trkpt lat="44.349982738494873" lon="11.142454063519835">
        <ele>679</ele>
        <time>2004-06-05T09:04:51Z</time>
      </trkpt>
      <trkpt lat="44.349961280822754" lon="11.142518520355225">
        <ele>679</ele>
        <time>2004-06-05T09:04:46Z</time>
      </trkpt>
      <trkpt lat="44.349896907806396" lon="11.142582893371582">
        <ele>679</ele>
        <time>2004-06-05T09:02:55Z</time>
      </trkpt>
      <trkpt lat="44.349875533953309" lon="11.142604434862733">
        <ele>679</ele>
        <time>2004-06-05T08:57:32Z</time>
      </trkpt>
      <trkpt lat="44.349768161773682" lon="11.142818927764893">
        <ele>677</ele>
        <time>2004-06-05T08:57:13Z</time>
      </trkpt>
      <trkpt lat="44.349746704101563" lon="11.14288330078125">
        <ele>677</ele>
        <time>2004-06-05T08:57:07Z</time>
      </trkpt>
      <trkpt lat="44.349703788757324" lon="11.143011962994933">
        <ele>674</ele>
        <time>2004-06-05T08:56:53Z</time>
      </trkpt>
      <trkpt lat="44.349746704101563" lon="11.143183708190918">
        <ele>672</ele>
        <time>2004-06-05T08:56:36Z</time>
      </trkpt>
      <trkpt lat="44.349768161773682" lon="11.143269538879395">
        <ele>670</ele>
        <time>2004-06-05T08:56:25Z</time>
      </trkpt>
      <trkpt lat="44.349768161773682" lon="11.143355369567871">
        <ele>667</ele>
        <time>2004-06-05T08:56:17Z</time>
      </trkpt>
      <trkpt lat="44.349789619445801" lon="11.143419658765197">
        <ele>667</ele>
        <time>2004-06-05T08:56:11Z</time>
      </trkpt>
      <trkpt lat="44.349789619445801" lon="11.143419658765197">
        <ele>667</ele>
        <time>2004-06-05T08:56:10Z</time>
      </trkpt>
      <trkpt lat="44.349832534790039" lon="11.143569862470031">
        <ele>664</ele>
        <time>2004-06-05T08:55:54Z</time>
      </trkpt>
      <trkpt lat="44.349896907806396" lon="11.143763065338135">
        <ele>662</ele>
        <time>2004-06-05T08:55:36Z</time>
      </trkpt>
      <trkpt lat="44.349875533953309" lon="11.143870437517762">
        <ele>660</ele>
        <time>2004-06-05T08:55:23Z</time>
      </trkpt>
      <trkpt lat="44.349832534790039" lon="11.143934726715088">
        <ele>658</ele>
        <time>2004-06-05T08:55:09Z</time>
      </trkpt>
      <trkpt lat="44.349789619445801" lon="11.143999099731445">
        <ele>655</ele>
        <time>2004-06-05T08:54:57Z</time>
      </trkpt>
      <trkpt lat="44.349789619445801" lon="11.144149303436279">
        <ele>653</ele>
        <time>2004-06-05T08:54:38Z</time>
      </trkpt>
      <trkpt lat="44.34981107711792" lon="11.144299507141113">
        <ele>650</ele>
        <time>2004-06-05T08:54:24Z</time>
      </trkpt>
      <trkpt lat="44.34981107711792" lon="11.144320964813232">
        <ele>649</ele>
        <time>2004-06-05T08:54:21Z</time>
      </trkpt>
      <trkpt lat="44.349875533953309" lon="11.144449710845947">
        <ele>647</ele>
        <time>2004-06-05T08:54:16Z</time>
      </trkpt>
      <trkpt lat="44.349939823150635" lon="11.14487886428833">
        <ele>644</ele>
        <time>2004-06-05T08:53:58Z</time>
      </trkpt>
      <trkpt lat="44.349918365478516" lon="11.145200729370117">
        <ele>643</ele>
        <time>2004-06-05T08:53:39Z</time>
      </trkpt>
      <trkpt lat="44.34981107711792" lon="11.145415306091309">
        <ele>640</ele>
        <time>2004-06-05T08:53:28Z</time>
      </trkpt>
      <trkpt lat="44.349660873413086" lon="11.145737171173096">
        <ele>637</ele>
        <time>2004-06-05T08:53:11Z</time>
      </trkpt>
      <trkpt lat="44.349660873413086" lon="11.145780086517334">
        <ele>637</ele>
        <time>2004-06-05T08:53:09Z</time>
      </trkpt>
      <trkpt lat="44.349532127380371" lon="11.146080493927002">
        <ele>635</ele>
        <time>2004-06-05T08:52:53Z</time>
      </trkpt>
      <trkpt lat="44.349403381347656" lon="11.146445274353027">
        <ele>633</ele>
        <time>2004-06-05T08:52:35Z</time>
      </trkpt>
      <trkpt lat="44.349274635314941" lon="11.146788597106934">
        <ele>631</ele>
        <time>2004-06-05T08:52:15Z</time>
      </trkpt>
      <trkpt lat="44.349102973937988" lon="11.147110462188721">
        <ele>629</ele>
        <time>2004-06-05T08:51:53Z</time>
      </trkpt>
      <trkpt lat="44.348952770233154" lon="11.147325038909912">
        <ele>628</ele>
        <time>2004-06-05T08:51:35Z</time>
      </trkpt>
      <trkpt lat="44.348845481872559" lon="11.147453784942627">
        <ele>624</ele>
        <time>2004-06-05T08:51:24Z</time>
      </trkpt>
      <trkpt lat="44.34880256652832" lon="11.147518241778016">
        <ele>624</ele>
        <time>2004-06-05T08:51:17Z</time>
      </trkpt>
      <trkpt lat="44.348781108856201" lon="11.147646903991699">
        <ele>623</ele>
        <time>2004-06-05T08:51:05Z</time>
      </trkpt>
      <trkpt lat="44.348759735003114" lon="11.147711277008057">
        <ele>621</ele>
        <time>2004-06-05T08:50:56Z</time>
      </trkpt>
      <trkpt lat="44.348673820495605" lon="11.147990226745605">
        <ele>619</ele>
        <time>2004-06-05T08:50:40Z</time>
      </trkpt>
      <trkpt lat="44.348630905151367" lon="11.148247718811035">
        <ele>615</ele>
        <time>2004-06-05T08:50:29Z</time>
      </trkpt>
      <trkpt lat="44.348695278167725" lon="11.148397922515869">
        <ele>613</ele>
        <time>2004-06-05T08:50:23Z</time>
      </trkpt>
      <trkpt lat="44.348738193511963" lon="11.148440837860107">
        <ele>611</ele>
        <time>2004-06-05T08:50:20Z</time>
      </trkpt>
      <trkpt lat="44.348952770233154" lon="11.148762702941895">
        <ele>612</ele>
        <time>2004-06-05T08:50:11Z</time>
      </trkpt>
      <trkpt lat="44.348952770233154" lon="11.148762702941895">
        <ele>613</ele>
        <time>2004-06-05T08:49:58Z</time>
      </trkpt>
      <trkpt lat="44.349167263135314" lon="11.148676872253418">
        <ele>614</ele>
        <time>2004-06-05T08:49:36Z</time>
      </trkpt>
      <trkpt lat="44.349360466003418" lon="11.148655414581299">
        <ele>612</ele>
        <time>2004-06-05T08:49:19Z</time>
      </trkpt>
      <trkpt lat="44.349424839019775" lon="11.148698329925537">
        <ele>608</ele>
        <time>2004-06-05T08:49:13Z</time>
      </trkpt>
      <trkpt lat="44.349532127380371" lon="11.148827075958252">
        <ele>604</ele>
        <time>2004-06-05T08:49:06Z</time>
      </trkpt>
      <trkpt lat="44.349618041887879" lon="11.148934364318848">
        <ele>602</ele>
        <time>2004-06-05T08:49:00Z</time>
      </trkpt>
      <trkpt lat="44.349768161773682" lon="11.14936351776123">
        <ele>599</ele>
        <time>2004-06-05T08:48:41Z</time>
      </trkpt>
      <trkpt lat="44.349703788757324" lon="11.149835586547852">
        <ele>597</ele>
        <time>2004-06-05T08:48:15Z</time>
      </trkpt>
      <trkpt lat="44.349532127380371" lon="11.150200366973877">
        <ele>595</ele>
        <time>2004-06-05T08:47:52Z</time>
      </trkpt>
      <trkpt lat="44.349424839019775" lon="11.150522232055664">
        <ele>592</ele>
        <time>2004-06-05T08:47:28Z</time>
      </trkpt>
      <trkpt lat="44.349403381347656" lon="11.150779724121094">
        <ele>590</ele>
        <time>2004-06-05T08:47:10Z</time>
      </trkpt>
      <trkpt lat="44.349403381347656" lon="11.151122963055968">
        <ele>587</ele>
        <time>2004-06-05T08:46:50Z</time>
      </trkpt>
      <trkpt lat="44.349296092987061" lon="11.151444911956787">
        <ele>584</ele>
        <time>2004-06-05T08:46:29Z</time>
      </trkpt>
      <trkpt lat="44.349210262298584" lon="11.151723861694336">
        <ele>582</ele>
        <time>2004-06-05T08:46:11Z</time>
      </trkpt>
      <trkpt lat="44.349167263135314" lon="11.151895523071289">
        <ele>579</ele>
        <time>2004-06-05T08:46:00Z</time>
      </trkpt>
      <trkpt lat="44.349102973937988" lon="11.152067184448242">
        <ele>575</ele>
        <time>2004-06-05T08:45:48Z</time>
      </trkpt>
      <trkpt lat="44.349038600921631" lon="11.152303218841553">
        <ele>572</ele>
        <time>2004-06-05T08:45:33Z</time>
      </trkpt>
      <trkpt lat="44.348995685577393" lon="11.152539337053895">
        <ele>569</ele>
        <time>2004-06-05T08:45:20Z</time>
      </trkpt>
      <trkpt lat="44.348952770233154" lon="11.152753829956055">
        <ele>565</ele>
        <time>2004-06-05T08:45:08Z</time>
      </trkpt>
      <trkpt lat="44.348931312561035" lon="11.152989864349365">
        <ele>562</ele>
        <time>2004-06-05T08:44:49Z</time>
      </trkpt>
      <trkpt lat="44.34880256652832" lon="11.153182983398438">
        <ele>560</ele>
        <time>2004-06-05T08:44:34Z</time>
      </trkpt>
      <trkpt lat="44.348609363660216" lon="11.153440475463867">
        <ele>558</ele>
        <time>2004-06-05T08:44:14Z</time>
      </trkpt>
      <trkpt lat="44.348373413085938" lon="11.153697967529297">
        <ele>556</ele>
        <time>2004-06-05T08:43:50Z</time>
      </trkpt>
      <trkpt lat="44.348115921020508" lon="11.153955459594727">
        <ele>554</ele>
        <time>2004-06-05T08:43:24Z</time>
      </trkpt>
      <trkpt lat="44.347879886627197" lon="11.154084205627441">
        <ele>553</ele>
        <time>2004-06-05T08:43:03Z</time>
      </trkpt>
      <trkpt lat="44.347729682922363" lon="11.154341697692871">
        <ele>552</ele>
        <time>2004-06-05T08:42:42Z</time>
      </trkpt>
      <trkpt lat="44.347665309906006" lon="11.154513359069824">
        <ele>548</ele>
        <time>2004-06-05T08:42:29Z</time>
      </trkpt>
      <trkpt lat="44.347536563873291" lon="11.154727935791016">
        <ele>547</ele>
        <time>2004-06-05T08:42:11Z</time>
      </trkpt>
      <trkpt lat="44.347407817840576" lon="11.154963970184326">
        <ele>544</ele>
        <time>2004-06-05T08:41:55Z</time>
      </trkpt>
      <trkpt lat="44.347386360168457" lon="11.154985427856445">
        <ele>544</ele>
        <time>2004-06-05T08:41:54Z</time>
      </trkpt>
      <trkpt lat="44.347279071807861" lon="11.155157089233398">
        <ele>540</ele>
        <time>2004-06-05T08:41:47Z</time>
      </trkpt>
      <trkpt lat="44.347128868103027" lon="11.15558615885675">
        <ele>537</ele>
        <time>2004-06-05T08:41:24Z</time>
      </trkpt>
      <trkpt lat="44.347086036577821" lon="11.15586519241333">
        <ele>536</ele>
        <time>2004-06-05T08:41:05Z</time>
      </trkpt>
      <trkpt lat="44.34706449508667" lon="11.156101226806641">
        <ele>534</ele>
        <time>2004-06-05T08:40:45Z</time>
      </trkpt>
      <trkpt lat="44.34706449508667" lon="11.156380176544189">
        <ele>531</ele>
        <time>2004-06-05T08:40:26Z</time>
      </trkpt>
      <trkpt lat="44.34706449508667" lon="11.156659126281738">
        <ele>527</ele>
        <time>2004-06-05T08:40:11Z</time>
      </trkpt>
      <trkpt lat="44.347043037414551" lon="11.156916618347168">
        <ele>525</ele>
        <time>2004-06-05T08:39:55Z</time>
      </trkpt>
      <trkpt lat="44.347128868103027" lon="11.157088279724121">
        <ele>522</ele>
        <time>2004-06-05T08:39:44Z</time>
      </trkpt>
      <trkpt lat="44.347257614135742" lon="11.157388687133789">
        <ele>519</ele>
        <time>2004-06-05T08:39:24Z</time>
      </trkpt>
      <trkpt lat="44.3473219871521" lon="11.157774925231934">
        <ele>516</ele>
        <time>2004-06-05T08:39:05Z</time>
      </trkpt>
      <trkpt lat="44.347086036577821" lon="11.158032417297363">
        <ele>514</ele>
        <time>2004-06-05T08:38:44Z</time>
      </trkpt>
      <trkpt lat="44.346871376037598" lon="11.158161163330078">
        <ele>513</ele>
        <time>2004-06-05T08:38:28Z</time>
      </trkpt>
      <trkpt lat="44.346828460693359" lon="11.158204078674316">
        <ele>513</ele>
        <time>2004-06-05T08:38:24Z</time>
      </trkpt>
      <trkpt lat="44.346764087677002" lon="11.158246994018555">
        <ele>512</ele>
        <time>2004-06-05T08:38:19Z</time>
      </trkpt>
      <trkpt lat="44.346742630004883" lon="11.158268535509706">
        <ele>512</ele>
        <time>2004-06-05T08:38:17Z</time>
      </trkpt>
      <trkpt lat="44.346764087677002" lon="11.158311367034912">
        <ele>513</ele>
        <time>2004-06-05T08:38:14Z</time>
      </trkpt>
      <trkpt lat="44.346849918365479" lon="11.158268535509706">
        <ele>515</ele>
        <time>2004-06-05T08:38:11Z</time>
      </trkpt>
      <trkpt lat="44.347021579742432" lon="11.158182621002197">
        <ele>518</ele>
        <time>2004-06-05T08:38:06Z</time>
      </trkpt>
      <trkpt lat="44.347043037414551" lon="11.158182621002197">
        <ele>518</ele>
        <time>2004-06-05T08:38:05Z</time>
      </trkpt>
      <trkpt lat="44.347214698791504" lon="11.15835428237915">
        <ele>522</ele>
        <time>2004-06-05T08:37:58Z</time>
      </trkpt>
      <trkpt lat="44.347279071807861" lon="11.158847808837891">
        <ele>525</ele>
        <time>2004-06-05T08:37:46Z</time>
      </trkpt>
      <trkpt lat="44.347343361005187" lon="11.159298419952393">
        <ele>524</ele>
        <time>2004-06-05T08:37:27Z</time>
      </trkpt>
      <trkpt lat="44.347364902496338" lon="11.159427165985107">
        <ele>524</ele>
        <time>2004-06-05T08:37:20Z</time>
      </trkpt>
      <trkpt lat="44.347364902496338" lon="11.159577369689941">
        <ele>525</ele>
        <time>2004-06-05T08:32:18Z</time>
      </trkpt>
      <trkpt lat="44.347407817840576" lon="11.159920692443848">
        <ele>525</ele>
        <time>2004-06-05T08:31:59Z</time>
      </trkpt>
      <trkpt lat="44.347450733184814" lon="11.160306930541992">
        <ele>525</ele>
        <time>2004-06-05T08:31:38Z</time>
      </trkpt>
      <trkpt lat="44.347472190856934" lon="11.160521507263184">
        <ele>522</ele>
        <time>2004-06-05T08:31:28Z</time>
      </trkpt>
      <trkpt lat="44.347493564710021" lon="11.160843372344971">
        <ele>519</ele>
        <time>2004-06-05T08:31:18Z</time>
      </trkpt>
      <trkpt lat="44.347515106201172" lon="11.160886287689209">
        <ele>518</ele>
        <time>2004-06-05T08:31:16Z</time>
      </trkpt>
      <trkpt lat="44.34755802154541" lon="11.16112232208252">
        <ele>514</ele>
        <time>2004-06-05T08:31:05Z</time>
      </trkpt>
      <trkpt lat="44.347622394561768" lon="11.161465561017394">
        <ele>513</ele>
        <time>2004-06-05T08:30:47Z</time>
      </trkpt>
      <trkpt lat="44.34755802154541" lon="11.161808967590332">
        <ele>512</ele>
        <time>2004-06-05T08:30:29Z</time>
      </trkpt>
      <trkpt lat="44.347515106201172" lon="11.162216663360596">
        <ele>511</ele>
        <time>2004-06-05T08:30:05Z</time>
      </trkpt>
      <trkpt lat="44.347493564710021" lon="11.162302494049072">
        <ele>511</ele>
        <time>2004-06-05T08:29:59Z</time>
      </trkpt>
      <trkpt lat="44.347472190856934" lon="11.162452697753906">
        <ele>510</ele>
        <time>2004-06-05T08:29:50Z</time>
      </trkpt>
      <trkpt lat="44.347450733184814" lon="11.162495613098145">
        <ele>510</ele>
        <time>2004-06-05T08:29:46Z</time>
      </trkpt>
      <trkpt lat="44.347407817840576" lon="11.162753105163574">
        <ele>509</ele>
        <time>2004-06-05T08:29:28Z</time>
      </trkpt>
      <trkpt lat="44.347407817840576" lon="11.163032138720155">
        <ele>506</ele>
        <time>2004-06-05T08:29:09Z</time>
      </trkpt>
      <trkpt lat="44.347407817840576" lon="11.163053512573242">
        <ele>506</ele>
        <time>2004-06-05T08:29:07Z</time>
      </trkpt>
      <trkpt lat="44.347386360168457" lon="11.163203716278076">
        <ele>504</ele>
        <time>2004-06-05T08:28:57Z</time>
      </trkpt>
      <trkpt lat="44.347364902496338" lon="11.163246631622314">
        <ele>503</ele>
        <time>2004-06-05T08:28:53Z</time>
      </trkpt>
      <trkpt lat="44.347364902496338" lon="11.163332462310791">
        <ele>501</ele>
        <time>2004-06-05T08:28:47Z</time>
      </trkpt>
      <trkpt lat="44.347343361005187" lon="11.16335391998291">
        <ele>501</ele>
        <time>2004-06-05T08:28:46Z</time>
      </trkpt>
      <trkpt lat="44.347343361005187" lon="11.163547039031982">
        <ele>498</ele>
        <time>2004-06-05T08:28:39Z</time>
      </trkpt>
      <trkpt lat="44.347343361005187" lon="11.163718700408936">
        <ele>495</ele>
        <time>2004-06-05T08:28:30Z</time>
      </trkpt>
      <trkpt lat="44.347407817840576" lon="11.163740241900086">
        <ele>496</ele>
        <time>2004-06-05T08:27:18Z</time>
      </trkpt>
      <trkpt lat="44.347429275512695" lon="11.163783073425293">
        <ele>495</ele>
        <time>2004-06-05T08:27:04Z</time>
      </trkpt>
      <trkpt lat="44.347279071807861" lon="11.16386890411377">
        <ele>494</ele>
        <time>2004-06-05T08:26:44Z</time>
      </trkpt>
      <trkpt lat="44.347279071807861" lon="11.163890361785889">
        <ele>493</ele>
        <time>2004-06-05T08:26:42Z</time>
      </trkpt>
      <trkpt lat="44.347279071807861" lon="11.163933277130127">
        <ele>492</ele>
        <time>2004-06-05T08:26:39Z</time>
      </trkpt>
      <trkpt lat="44.347257614135742" lon="11.163997733965516">
        <ele>490</ele>
        <time>2004-06-05T08:26:35Z</time>
      </trkpt>
      <trkpt lat="44.347257614135742" lon="11.164062023162842">
        <ele>490</ele>
        <time>2004-06-05T08:26:33Z</time>
      </trkpt>
      <trkpt lat="44.347193241119385" lon="11.164233684539795">
        <ele>486</ele>
        <time>2004-06-05T08:26:25Z</time>
      </trkpt>
      <trkpt lat="44.347171783447266" lon="11.164298141375184">
        <ele>485</ele>
        <time>2004-06-05T08:26:22Z</time>
      </trkpt>
      <trkpt lat="44.347086036577821" lon="11.164534091949463">
        <ele>482</ele>
        <time>2004-06-05T08:26:06Z</time>
      </trkpt>
      <trkpt lat="44.347086036577821" lon="11.164641380310059">
        <ele>481</ele>
        <time>2004-06-05T08:25:59Z</time>
      </trkpt>
      <trkpt lat="44.347086036577821" lon="11.164662837982178">
        <ele>481</ele>
        <time>2004-06-05T08:25:09Z</time>
      </trkpt>
      <trkpt lat="44.34706449508667" lon="11.164770126342773">
        <ele>479</ele>
        <time>2004-06-05T08:24:52Z</time>
      </trkpt>
      <trkpt lat="44.347043037414551" lon="11.164856040850282">
        <ele>478</ele>
        <time>2004-06-05T08:24:33Z</time>
      </trkpt>
      <trkpt lat="44.347000122070313" lon="11.164984703063965">
        <ele>475</ele>
        <time>2004-06-05T08:24:18Z</time>
      </trkpt>
      <trkpt lat="44.346978664398193" lon="11.164984703063965">
        <ele>475</ele>
        <time>2004-06-05T08:24:17Z</time>
      </trkpt>
      <trkpt lat="44.347000122070313" lon="11.165134906768799">
        <ele>471</ele>
        <time>2004-06-05T08:24:03Z</time>
      </trkpt>
      <trkpt lat="44.34706449508667" lon="11.165285110473633">
        <ele>468</ele>
        <time>2004-06-05T08:23:44Z</time>
      </trkpt>
      <trkpt lat="44.347128868103027" lon="11.165392398834229">
        <ele>465</ele>
        <time>2004-06-05T08:23:30Z</time>
      </trkpt>
      <trkpt lat="44.347150325775146" lon="11.165456771850586">
        <ele>463</ele>
        <time>2004-06-05T08:23:22Z</time>
      </trkpt>
      <trkpt lat="44.347257614135742" lon="11.165499687194824">
        <ele>461</ele>
        <time>2004-06-05T08:23:06Z</time>
      </trkpt>
      <trkpt lat="44.347171783447266" lon="11.16560697555542">
        <ele>457</ele>
        <time>2004-06-05T08:22:49Z</time>
      </trkpt>
      <trkpt lat="44.347171783447266" lon="11.16560697555542">
        <ele>458</ele>
        <time>2004-06-05T08:22:45Z</time>
      </trkpt>
      <trkpt lat="44.346978664398193" lon="11.165564060211182">
        <ele>454</ele>
        <time>2004-06-05T08:22:31Z</time>
      </trkpt>
      <trkpt lat="44.346742630004883" lon="11.165499687194824">
        <ele>452</ele>
        <time>2004-06-05T08:22:12Z</time>
      </trkpt>
      <trkpt lat="44.34657096862793" lon="11.165413940325379">
        <ele>448</ele>
        <time>2004-06-05T08:21:58Z</time>
      </trkpt>
      <trkpt lat="44.346420764923096" lon="11.165091991424561">
        <ele>446</ele>
        <time>2004-06-05T08:21:42Z</time>
      </trkpt>
      <trkpt lat="44.346356391906738" lon="11.164941787719727">
        <ele>444</ele>
        <time>2004-06-05T08:21:30Z</time>
      </trkpt>
      <trkpt lat="44.346334934234619" lon="11.164920330047607">
        <ele>445</ele>
        <time>2004-06-05T08:21:12Z</time>
      </trkpt>
      <trkpt lat="44.346292018890381" lon="11.164856040850282">
        <ele>444</ele>
        <time>2004-06-05T08:20:53Z</time>
      </trkpt>
      <trkpt lat="44.346270561218262" lon="11.164856040850282">
        <ele>443</ele>
        <time>2004-06-05T08:20:24Z</time>
      </trkpt>
      <trkpt lat="44.346206188201904" lon="11.164684295654297">
        <ele>442</ele>
        <time>2004-06-05T08:20:06Z</time>
      </trkpt>
      <trkpt lat="44.346206188201904" lon="11.164684295654297">
        <ele>442</ele>
        <time>2004-06-05T08:20:05Z</time>
      </trkpt>
      <trkpt lat="44.346163272857666" lon="11.164748668670654">
        <ele>440</ele>
        <time>2004-06-05T08:19:48Z</time>
      </trkpt>
      <trkpt lat="44.346141815185547" lon="11.164898872375488">
        <ele>437</ele>
        <time>2004-06-05T08:19:35Z</time>
      </trkpt>
      <trkpt lat="44.346163272857666" lon="11.164984703063965">
        <ele>435</ele>
        <time>2004-06-05T08:19:17Z</time>
      </trkpt>
      <trkpt lat="44.346184730529785" lon="11.164963161572814">
        <ele>433</ele>
        <time>2004-06-05T08:18:43Z</time>
      </trkpt>
      <trkpt lat="44.346184730529785" lon="11.164941787719727">
        <ele>432</ele>
        <time>2004-06-05T08:18:26Z</time>
      </trkpt>
      <trkpt lat="44.346184730529785" lon="11.165091991424561">
        <ele>430</ele>
        <time>2004-06-05T08:18:10Z</time>
      </trkpt>
      <trkpt lat="44.346163272857666" lon="11.165134906768799">
        <ele>429</ele>
        <time>2004-06-05T08:18:08Z</time>
      </trkpt>
      <trkpt lat="44.346184730529785" lon="11.165134906768799">
        <ele>429</ele>
        <time>2004-06-05T08:15:59Z</time>
      </trkpt>
      <trkpt lat="44.346206188201904" lon="11.165220737457275">
        <ele>429</ele>
        <time>2004-06-05T08:15:15Z</time>
      </trkpt>
      <trkpt lat="44.3463134765625" lon="11.165392398834229">
        <ele>432</ele>
        <time>2004-06-05T08:14:46Z</time>
      </trkpt>
      <trkpt lat="44.346292018890381" lon="11.165392398834229">
        <ele>421</ele>
        <time>2004-06-05T08:14:45Z</time>
      </trkpt>
      <trkpt lat="44.346292018890381" lon="11.165413940325379">
        <ele>430</ele>
        <time>2004-06-05T08:14:42Z</time>
      </trkpt>
      <trkpt lat="44.346292018890381" lon="11.165413940325379">
        <ele>432</ele>
        <time>2004-06-05T08:14:40Z</time>
      </trkpt>
      <trkpt lat="44.346292018890381" lon="11.165413940325379">
        <ele>434</ele>
        <time>2004-06-05T08:14:39Z</time>
      </trkpt>
      <trkpt lat="44.346292018890381" lon="11.165413940325379">
        <ele>428</ele>
        <time>2004-06-05T08:14:38Z</time>
      </trkpt>
      <trkpt lat="44.3463134765625" lon="11.165435314178467">
        <ele>431</ele>
        <time>2004-06-05T08:13:25Z</time>
      </trkpt>
      <trkpt lat="44.346334934234619" lon="11.165499687194824">
        <ele>431</ele>
        <time>2004-06-05T08:13:10Z</time>
      </trkpt>
      <trkpt lat="44.346463680267334" lon="11.165714263916016">
        <ele>431</ele>
        <time>2004-06-05T08:12:49Z</time>
      </trkpt>
      <trkpt lat="44.346528137102723" lon="11.165757179260254">
        <ele>431</ele>
        <time>2004-06-05T08:12:43Z</time>
      </trkpt>
      <trkpt lat="44.346678340807557" lon="11.16584300994873">
        <ele>430</ele>
        <time>2004-06-05T08:12:27Z</time>
      </trkpt>
      <trkpt lat="44.34680700302124" lon="11.165928840637207">
        <ele>427</ele>
        <time>2004-06-05T08:12:08Z</time>
      </trkpt>
      <trkpt lat="44.346914291381836" lon="11.165971839800477">
        <ele>425</ele>
        <time>2004-06-05T08:11:58Z</time>
      </trkpt>
      <trkpt lat="44.346935665234923" lon="11.166014671325684">
        <ele>424</ele>
        <time>2004-06-05T08:11:54Z</time>
      </trkpt>
      <trkpt lat="44.347086036577821" lon="11.166121959686279">
        <ele>421</ele>
        <time>2004-06-05T08:11:39Z</time>
      </trkpt>
      <trkpt lat="44.347128868103027" lon="11.166186332702637">
        <ele>420</ele>
        <time>2004-06-05T08:11:33Z</time>
      </trkpt>
      <trkpt lat="44.347193241119385" lon="11.166186332702637">
        <ele>418</ele>
        <time>2004-06-05T08:11:27Z</time>
      </trkpt>
      <trkpt lat="44.34730052947998" lon="11.166207790374756">
        <ele>415</ele>
        <time>2004-06-05T08:11:18Z</time>
      </trkpt>
      <trkpt lat="44.347450733184814" lon="11.166207790374756">
        <ele>412</ele>
        <time>2004-06-05T08:11:08Z</time>
      </trkpt>
      <trkpt lat="44.347622394561768" lon="11.166250705718994">
        <ele>409</ele>
        <time>2004-06-05T08:10:56Z</time>
      </trkpt>
      <trkpt lat="44.347622394561768" lon="11.166250705718994">
        <ele>409</ele>
        <time>2004-06-05T08:10:55Z</time>
      </trkpt>
      <trkpt lat="44.347772598266602" lon="11.166379535570741">
        <ele>405</ele>
        <time>2004-06-05T08:10:46Z</time>
      </trkpt>
      <trkpt lat="44.347836971282959" lon="11.166400909423828">
        <ele>402</ele>
        <time>2004-06-05T08:10:42Z</time>
      </trkpt>
      <trkpt lat="44.347836971282959" lon="11.166379535570741">
        <ele>402</ele>
        <time>2004-06-05T08:10:08Z</time>
      </trkpt>
      <trkpt lat="44.347836971282959" lon="11.166443824768066">
        <ele>403</ele>
        <time>2004-06-05T08:09:53Z</time>
      </trkpt>
      <trkpt lat="44.347729682922363" lon="11.166486740112305">
        <ele>400</ele>
        <time>2004-06-05T08:09:37Z</time>
      </trkpt>
      <trkpt lat="44.347643936052918" lon="11.166508197784424">
        <ele>399</ele>
        <time>2004-06-05T08:09:23Z</time>
      </trkpt>
      <trkpt lat="44.347579479217529" lon="11.166572570800781">
        <ele>397</ele>
        <time>2004-06-05T08:09:11Z</time>
      </trkpt>
      <trkpt lat="44.347536563873291" lon="11.16661548614502">
        <ele>396</ele>
        <time>2004-06-05T08:08:57Z</time>
      </trkpt>
      <trkpt lat="44.347493564710021" lon="11.166658401489258">
        <ele>393</ele>
        <time>2004-06-05T08:08:40Z</time>
      </trkpt>
      <trkpt lat="44.347450733184814" lon="11.166744232177734">
        <ele>390</ele>
        <time>2004-06-05T08:08:27Z</time>
      </trkpt>
      <trkpt lat="44.347472190856934" lon="11.166744232177734">
        <ele>390</ele>
        <time>2004-06-05T08:08:26Z</time>
      </trkpt>
      <trkpt lat="44.347622394561768" lon="11.166787063702941">
        <ele>387</ele>
        <time>2004-06-05T08:08:15Z</time>
      </trkpt>
      <trkpt lat="44.347794139757752" lon="11.166808605194092">
        <ele>384</ele>
        <time>2004-06-05T08:08:06Z</time>
      </trkpt>
      <trkpt lat="44.347794139757752" lon="11.166808605194092">
        <ele>384</ele>
        <time>2004-06-05T08:08:05Z</time>
      </trkpt>
      <trkpt lat="44.347879886627197" lon="11.166808605194092">
        <ele>382</ele>
        <time>2004-06-05T08:07:35Z</time>
      </trkpt>
      <trkpt lat="44.347944259643555" lon="11.166679859161377">
        <ele>381</ele>
        <time>2004-06-05T08:06:13Z</time>
      </trkpt>
      <trkpt lat="44.347965717315674" lon="11.166679859161377">
        <ele>380</ele>
        <time>2004-06-05T08:05:39Z</time>
      </trkpt>
      <trkpt lat="44.347987174987793" lon="11.166701316833496">
        <ele>380</ele>
        <time>2004-06-05T08:05:27Z</time>
      </trkpt>
      <trkpt lat="44.347965717315674" lon="11.166765689849854">
        <ele>379</ele>
        <time>2004-06-05T08:05:23Z</time>
      </trkpt>
      <trkpt lat="44.347922801971436" lon="11.166787063702941">
        <ele>379</ele>
        <time>2004-06-05T08:05:10Z</time>
      </trkpt>
      <trkpt lat="44.347987174987793" lon="11.16685152053833">
        <ele>379</ele>
        <time>2004-06-05T08:04:55Z</time>
      </trkpt>
      <trkpt lat="44.347965717315674" lon="11.166958808898926">
        <ele>380</ele>
        <time>2004-06-05T08:04:44Z</time>
      </trkpt>
      <trkpt lat="44.347879886627197" lon="11.167237758636475">
        <ele>384</ele>
        <time>2004-06-05T08:04:37Z</time>
      </trkpt>
      <trkpt lat="44.347922801971436" lon="11.167366504669189">
        <ele>385</ele>
        <time>2004-06-05T08:04:33Z</time>
      </trkpt>
      <trkpt lat="44.347965717315674" lon="11.167430877685547">
        <ele>386</ele>
        <time>2004-06-05T08:04:32Z</time>
      </trkpt>
      <trkpt lat="44.348201835528016" lon="11.167817115783691">
        <ele>389</ele>
        <time>2004-06-05T08:04:25Z</time>
      </trkpt>
      <trkpt lat="44.348266124725342" lon="11.168010234832764">
        <ele>391</ele>
        <time>2004-06-05T08:04:22Z</time>
      </trkpt>
      <trkpt lat="44.348287582397461" lon="11.168074607849121">
        <ele>391</ele>
        <time>2004-06-05T08:04:21Z</time>
      </trkpt>
      <trkpt lat="44.34835203923285" lon="11.168246269226074">
        <ele>395</ele>
        <time>2004-06-05T08:04:18Z</time>
      </trkpt>
      <trkpt lat="44.348480701446533" lon="11.16858959197998">
        <ele>398</ele>
        <time>2004-06-05T08:04:13Z</time>
      </trkpt>
      <trkpt lat="44.348502159118652" lon="11.168718338012695">
        <ele>400</ele>
        <time>2004-06-05T08:04:11Z</time>
      </trkpt>
      <trkpt lat="44.348523616790771" lon="11.168782711029053">
        <ele>401</ele>
        <time>2004-06-05T08:04:10Z</time>
      </trkpt>
      <trkpt lat="44.348609363660216" lon="11.169083118438721">
        <ele>403</ele>
        <time>2004-06-05T08:04:06Z</time>
      </trkpt>
      <trkpt lat="44.348609363660216" lon="11.169233322143555">
        <ele>404</ele>
        <time>2004-06-05T08:04:04Z</time>
      </trkpt>
      <trkpt lat="44.348609363660216" lon="11.169490814208984">
        <ele>407</ele>
        <time>2004-06-05T08:04:00Z</time>
      </trkpt>
      <trkpt lat="44.348609363660216" lon="11.169576561078429">
        <ele>407</ele>
        <time>2004-06-05T08:03:59Z</time>
      </trkpt>
      <trkpt lat="44.348630905151367" lon="11.170048713684082">
        <ele>411</ele>
        <time>2004-06-05T08:03:52Z</time>
      </trkpt>
      <trkpt lat="44.348716735839844" lon="11.171121597290039">
        <ele>413</ele>
        <time>2004-06-05T08:03:38Z</time>
      </trkpt>
      <trkpt lat="44.348845481872559" lon="11.171271800994873">
        <ele>414</ele>
        <time>2004-06-05T08:03:35Z</time>
      </trkpt>
      <trkpt lat="44.349145889282227" lon="11.17135763168335">
        <ele>419</ele>
        <time>2004-06-05T08:03:31Z</time>
      </trkpt>
      <trkpt lat="44.349231719970703" lon="11.17135763168335">
        <ele>421</ele>
        <time>2004-06-05T08:03:30Z</time>
      </trkpt>
      <trkpt lat="44.349360466003418" lon="11.17135763168335">
        <ele>425</ele>
        <time>2004-06-05T08:03:28Z</time>
      </trkpt>
      <trkpt lat="44.349446296691895" lon="11.171400463208556">
        <ele>430</ele>
        <time>2004-06-05T08:03:24Z</time>
      </trkpt>
      <trkpt lat="44.349446296691895" lon="11.17159366607666">
        <ele>432</ele>
        <time>2004-06-05T08:03:20Z</time>
      </trkpt>
      <trkpt lat="44.349339008331299" lon="11.172108734026551">
        <ele>433</ele>
        <time>2004-06-05T08:03:14Z</time>
      </trkpt>
      <trkpt lat="44.349339008331299" lon="11.172258937731385">
        <ele>435</ele>
        <time>2004-06-05T08:03:12Z</time>
      </trkpt>
      <trkpt lat="44.349360466003418" lon="11.172387599945068">
        <ele>436</ele>
        <time>2004-06-05T08:03:10Z</time>
      </trkpt>
      <trkpt lat="44.349424839019775" lon="11.172709465026855">
        <ele>440</ele>
        <time>2004-06-05T08:03:04Z</time>
      </trkpt>
      <trkpt lat="44.349746704101563" lon="11.173117160797119">
        <ele>442</ele>
        <time>2004-06-05T08:02:52Z</time>
      </trkpt>
      <trkpt lat="44.350197315216064" lon="11.173331737518311">
        <ele>441</ele>
        <time>2004-06-05T08:02:36Z</time>
      </trkpt>
      <trkpt lat="44.350240230560303" lon="11.17335319519043">
        <ele>442</ele>
        <time>2004-06-05T08:02:32Z</time>
      </trkpt>
      <trkpt lat="44.350283062085509" lon="11.173374736681581">
        <ele>441</ele>
        <time>2004-06-05T08:02:28Z</time>
      </trkpt>
      <trkpt lat="44.35030460357666" lon="11.173374736681581">
        <ele>441</ele>
        <time>2004-06-05T08:02:25Z</time>
      </trkpt>
      <trkpt lat="44.350390434265137" lon="11.173374736681581">
        <ele>440</ele>
        <time>2004-06-05T08:02:13Z</time>
      </trkpt>
      <trkpt lat="44.350476264953613" lon="11.173267364501953">
        <ele>440</ele>
        <time>2004-06-05T08:02:02Z</time>
      </trkpt>
      <trkpt lat="44.350605010986328" lon="11.173138618469238">
        <ele>441</ele>
        <time>2004-06-05T08:01:49Z</time>
      </trkpt>
      <trkpt lat="44.350755214691162" lon="11.173052787780762">
        <ele>441</ele>
        <time>2004-06-05T08:01:37Z</time>
      </trkpt>
      <trkpt lat="44.350905418395996" lon="11.173052787780762">
        <ele>440</ele>
        <time>2004-06-05T08:01:23Z</time>
      </trkpt>
      <trkpt lat="44.350926876068115" lon="11.173138618469238">
        <ele>439</ele>
        <time>2004-06-05T08:01:12Z</time>
      </trkpt>
      <trkpt lat="44.350883960723877" lon="11.173288822174072">
        <ele>439</ele>
        <time>2004-06-05T08:01:09Z</time>
      </trkpt>
      <trkpt lat="44.350862503051758" lon="11.173374736681581">
        <ele>439</ele>
        <time>2004-06-05T08:01:08Z</time>
      </trkpt>
      <trkpt lat="44.35081958770752" lon="11.173610687255859">
        <ele>443</ele>
        <time>2004-06-05T08:01:05Z</time>
      </trkpt>
      <trkpt lat="44.350755214691162" lon="11.173932636156678">
        <ele>447</ele>
        <time>2004-06-05T08:01:00Z</time>
      </trkpt>
      <trkpt lat="44.350755214691162" lon="11.174018383026123">
        <ele>449</ele>
        <time>2004-06-05T08:00:59Z</time>
      </trkpt>
      <trkpt lat="44.3507981300354" lon="11.174211502075195">
        <ele>452</ele>
        <time>2004-06-05T08:00:56Z</time>
      </trkpt>
      <trkpt lat="44.35081958770752" lon="11.174426078796387">
        <ele>456</ele>
        <time>2004-06-05T08:00:52Z</time>
      </trkpt>
      <trkpt lat="44.350905418395996" lon="11.174619197845459">
        <ele>458</ele>
        <time>2004-06-05T08:00:48Z</time>
      </trkpt>
      <trkpt lat="44.350948333740234" lon="11.174662113189697">
        <ele>459</ele>
        <time>2004-06-05T08:00:47Z</time>
      </trkpt>
      <trkpt lat="44.350969791412354" lon="11.174683570861816">
        <ele>460</ele>
        <time>2004-06-05T08:00:44Z</time>
      </trkpt>
      <trkpt lat="44.351012706756592" lon="11.174554824829102">
        <ele>461</ele>
        <time>2004-06-05T07:59:18Z</time>
      </trkpt>
      <trkpt lat="44.351012706756592" lon="11.174490535631776">
        <ele>460</ele>
        <time>2004-06-05T07:59:10Z</time>
      </trkpt>
      <trkpt lat="44.351034164428711" lon="11.173975467681885">
        <ele>463</ele>
        <time>2004-06-05T07:59:00Z</time>
      </trkpt>
      <trkpt lat="44.351119995117188" lon="11.173782264813781">
        <ele>465</ele>
        <time>2004-06-05T07:58:57Z</time>
      </trkpt>
      <trkpt lat="44.351270198822021" lon="11.173567771911621">
        <ele>469</ele>
        <time>2004-06-05T07:58:53Z</time>
      </trkpt>
      <trkpt lat="44.351463317871094" lon="11.173331737518311">
        <ele>471</ele>
        <time>2004-06-05T07:58:48Z</time>
      </trkpt>
      <trkpt lat="44.351570606231689" lon="11.173245906829834">
        <ele>473</ele>
        <time>2004-06-05T07:58:45Z</time>
      </trkpt>
      <trkpt lat="44.351656436920166" lon="11.173202991485596">
        <ele>475</ele>
        <time>2004-06-05T07:58:43Z</time>
      </trkpt>
      <trkpt lat="44.352021217346191" lon="11.172859668731689">
        <ele>478</ele>
        <time>2004-06-05T07:58:24Z</time>
      </trkpt>
      <trkpt lat="44.352149963378906" lon="11.172666465863585">
        <ele>478</ele>
        <time>2004-06-05T07:58:10Z</time>
      </trkpt>
      <trkpt lat="44.352149963378906" lon="11.172645092010498">
        <ele>478</ele>
        <time>2004-06-05T07:58:08Z</time>
      </trkpt>
      <trkpt lat="44.352171421051025" lon="11.17260217666626">
        <ele>478</ele>
        <time>2004-06-05T07:58:05Z</time>
      </trkpt>
      <trkpt lat="44.352192878723145" lon="11.172473430633545">
        <ele>478</ele>
        <time>2004-06-05T07:57:53Z</time>
      </trkpt>
      <trkpt lat="44.352192878723145" lon="11.172194480895996">
        <ele>479</ele>
        <time>2004-06-05T07:57:38Z</time>
      </trkpt>
      <trkpt lat="44.352214336395264" lon="11.172173023223877">
        <ele>479</ele>
        <time>2004-06-05T07:57:37Z</time>
      </trkpt>
      <trkpt lat="44.35230016708374" lon="11.171915531158447">
        <ele>480</ele>
        <time>2004-06-05T07:57:17Z</time>
      </trkpt>
      <trkpt lat="44.352321624755859" lon="11.171786785125732">
        <ele>479</ele>
        <time>2004-06-05T07:57:09Z</time>
      </trkpt>
      <trkpt lat="44.352321624755859" lon="11.171743869781494">
        <ele>478</ele>
        <time>2004-06-05T07:57:06Z</time>
      </trkpt>
      <trkpt lat="44.352171421051025" lon="11.171636581420898">
        <ele>478</ele>
        <time>2004-06-05T07:56:40Z</time>
      </trkpt>
      <trkpt lat="44.352042675018311" lon="11.171679496765137">
        <ele>479</ele>
        <time>2004-06-05T07:56:26Z</time>
      </trkpt>
      <trkpt lat="44.351720809936523" lon="11.17180815897882">
        <ele>479</ele>
        <time>2004-06-05T07:56:14Z</time>
      </trkpt>
      <trkpt lat="44.351420402526855" lon="11.17185115814209">
        <ele>482</ele>
        <time>2004-06-05T07:56:04Z</time>
      </trkpt>
      <trkpt lat="44.351334571838379" lon="11.17185115814209">
        <ele>482</ele>
        <time>2004-06-05T07:53:03Z</time>
      </trkpt>
      <trkpt lat="44.351077079772949" lon="11.171829700469971">
        <ele>485</ele>
        <time>2004-06-05T07:52:57Z</time>
      </trkpt>
      <trkpt lat="44.350948333740234" lon="11.171829700469971">
        <ele>486</ele>
        <time>2004-06-05T07:52:54Z</time>
      </trkpt>
      <trkpt lat="44.350712299346924" lon="11.17180815897882">
        <ele>488</ele>
        <time>2004-06-05T07:52:43Z</time>
      </trkpt>
      <trkpt lat="44.350390434265137" lon="11.171722412109375">
        <ele>490</ele>
        <time>2004-06-05T07:52:28Z</time>
      </trkpt>
      <trkpt lat="44.350368976593018" lon="11.171615123748779">
        <ele>490</ele>
        <time>2004-06-05T07:52:24Z</time>
      </trkpt>
      <trkpt lat="44.350368976593018" lon="11.171615123748779">
        <ele>490</ele>
        <time>2004-06-05T07:52:23Z</time>
      </trkpt>
      <trkpt lat="44.350411891937256" lon="11.171529293060303">
        <ele>492</ele>
        <time>2004-06-05T07:52:20Z</time>
      </trkpt>
      <trkpt lat="44.350454807281494" lon="11.171507835388184">
        <ele>493</ele>
        <time>2004-06-05T07:52:19Z</time>
      </trkpt>
      <trkpt lat="44.350497722625732" lon="11.171314716339111">
        <ele>496</ele>
        <time>2004-06-05T07:52:12Z</time>
      </trkpt>
      <trkpt lat="44.350497722625732" lon="11.171314716339111">
        <ele>496</ele>
        <time>2004-06-05T07:51:52Z</time>
      </trkpt>
      <trkpt lat="44.35056209564209" lon="11.171293258666992">
        <ele>496</ele>
        <time>2004-06-05T07:51:27Z</time>
      </trkpt>
      <trkpt lat="44.350712299346924" lon="11.17133617401123">
        <ele>500</ele>
        <time>2004-06-05T07:51:19Z</time>
      </trkpt>
      <trkpt lat="44.350840961560607" lon="11.17133617401123">
        <ele>500</ele>
        <time>2004-06-05T07:51:16Z</time>
      </trkpt>
      <trkpt lat="44.350991165265441" lon="11.171314716339111">
        <ele>503</ele>
        <time>2004-06-05T07:51:12Z</time>
      </trkpt>
      <trkpt lat="44.351141536608338" lon="11.171228885650635">
        <ele>506</ele>
        <time>2004-06-05T07:51:09Z</time>
      </trkpt>
      <trkpt lat="44.351162910461426" lon="11.171207427978516">
        <ele>507</ele>
        <time>2004-06-05T07:51:08Z</time>
      </trkpt>
      <trkpt lat="44.351205825805664" lon="11.171185970306396">
        <ele>512</ele>
        <time>2004-06-05T07:50:52Z</time>
      </trkpt>
      <trkpt lat="44.351205825805664" lon="11.17114313878119">
        <ele>513</ele>
        <time>2004-06-05T07:50:39Z</time>
      </trkpt>
      <trkpt lat="44.351184368133545" lon="11.171078681945801">
        <ele>513</ele>
        <time>2004-06-05T07:50:36Z</time>
      </trkpt>
      <trkpt lat="44.351162910461426" lon="11.171057224273682">
        <ele>514</ele>
        <time>2004-06-05T07:50:35Z</time>
      </trkpt>
      <trkpt lat="44.351034164428711" lon="11.170885562896729">
        <ele>518</ele>
        <time>2004-06-05T07:50:31Z</time>
      </trkpt>
      <trkpt lat="44.351012706756592" lon="11.170842563733459">
        <ele>518</ele>
        <time>2004-06-05T07:50:30Z</time>
      </trkpt>
      <trkpt lat="44.350948333740234" lon="11.170735359191895">
        <ele>521</ele>
        <time>2004-06-05T07:50:28Z</time>
      </trkpt>
      <trkpt lat="44.350883960723877" lon="11.17060661315918">
        <ele>526</ele>
        <time>2004-06-05T07:50:25Z</time>
      </trkpt>
      <trkpt lat="44.350840961560607" lon="11.170520782470703">
        <ele>529</ele>
        <time>2004-06-05T07:50:23Z</time>
      </trkpt>
      <trkpt lat="44.3507981300354" lon="11.170284664258361">
        <ele>532</ele>
        <time>2004-06-05T07:50:19Z</time>
      </trkpt>
      <trkpt lat="44.350862503051758" lon="11.170048713684082">
        <ele>534</ele>
        <time>2004-06-05T07:50:15Z</time>
      </trkpt>
      <trkpt lat="44.350862503051758" lon="11.169984340667725">
        <ele>535</ele>
        <time>2004-06-05T07:49:25Z</time>
      </trkpt>
      <trkpt lat="44.350948333740234" lon="11.169941425323486">
        <ele>535</ele>
        <time>2004-06-05T07:48:45Z</time>
      </trkpt>
      <trkpt lat="44.351012706756592" lon="11.169941425323486">
        <ele>536</ele>
        <time>2004-06-05T07:48:30Z</time>
      </trkpt>
      <trkpt lat="44.35131311416626" lon="11.169769763946533">
        <ele>539</ele>
        <time>2004-06-05T07:48:22Z</time>
      </trkpt>
      <trkpt lat="44.351484775543213" lon="11.169705390930176">
        <ele>543</ele>
        <time>2004-06-05T07:48:18Z</time>
      </trkpt>
      <trkpt lat="44.351613521575928" lon="11.169662475585937">
        <ele>548</ele>
        <time>2004-06-05T07:48:15Z</time>
      </trkpt>
      <trkpt lat="44.351720809936523" lon="11.169619560241699">
        <ele>552</ele>
        <time>2004-06-05T07:48:12Z</time>
      </trkpt>
      <trkpt lat="44.35184963978827" lon="11.169555187225342">
        <ele>556</ele>
        <time>2004-06-05T07:48:09Z</time>
      </trkpt>
      <trkpt lat="44.351956760510802" lon="11.169490814208984">
        <ele>560</ele>
        <time>2004-06-05T07:48:06Z</time>
      </trkpt>
      <trkpt lat="44.35230016708374" lon="11.16934061050415">
        <ele>563</ele>
        <time>2004-06-05T07:47:57Z</time>
      </trkpt>
      <trkpt lat="44.352922439575195" lon="11.169040203094482">
        <ele>563</ele>
        <time>2004-06-05T07:47:42Z</time>
      </trkpt>
      <trkpt lat="44.353158473968506" lon="11.168889999389648">
        <ele>566</ele>
        <time>2004-06-05T07:47:37Z</time>
      </trkpt>
      <trkpt lat="44.353222763165832" lon="11.168868541717529">
        <ele>566</ele>
        <time>2004-06-05T07:47:36Z</time>
      </trkpt>
      <trkpt lat="44.353351593017578" lon="11.168825626373291">
        <ele>570</ele>
        <time>2004-06-05T07:47:34Z</time>
      </trkpt>
      <trkpt lat="44.353609085083008" lon="11.168804168701172">
        <ele>574</ele>
        <time>2004-06-05T07:47:30Z</time>
      </trkpt>
      <trkpt lat="44.353866577148438" lon="11.168782711029053">
        <ele>578</ele>
        <time>2004-06-05T07:47:26Z</time>
      </trkpt>
      <trkpt lat="44.353995323181152" lon="11.168825626373291">
        <ele>581</ele>
        <time>2004-06-05T07:47:24Z</time>
      </trkpt>
      <trkpt lat="44.354166984558105" lon="11.168932914733887">
        <ele>586</ele>
        <time>2004-06-05T07:47:20Z</time>
      </trkpt>
      <trkpt lat="44.354231441393495" lon="11.168954372406006">
        <ele>586</ele>
        <time>2004-06-05T07:47:16Z</time>
      </trkpt>
      <trkpt lat="44.354274272918701" lon="11.169018661603332">
        <ele>587</ele>
        <time>2004-06-05T07:47:08Z</time>
      </trkpt>
      <trkpt lat="44.354531764984131" lon="11.169233322143555">
        <ele>586</ele>
        <time>2004-06-05T07:46:56Z</time>
      </trkpt>
      <trkpt lat="44.35455322265625" lon="11.169233322143555">
        <ele>586</ele>
        <time>2004-06-05T07:46:48Z</time>
      </trkpt>
      <trkpt lat="44.35455322265625" lon="11.169233322143555">
        <ele>585</ele>
        <time>2004-06-05T07:46:03Z</time>
      </trkpt>
      <trkpt lat="44.354596138000488" lon="11.169211864471436">
        <ele>587</ele>
        <time>2004-06-05T07:45:53Z</time>
      </trkpt>
      <trkpt lat="44.354746341705322" lon="11.169190406799316">
        <ele>590</ele>
        <time>2004-06-05T07:45:49Z</time>
      </trkpt>
      <trkpt lat="44.354918003082275" lon="11.16910457611084">
        <ele>592</ele>
        <time>2004-06-05T07:45:45Z</time>
      </trkpt>
      <trkpt lat="44.355154037475586" lon="11.168889999389648">
        <ele>595</ele>
        <time>2004-06-05T07:45:39Z</time>
      </trkpt>
      <trkpt lat="44.355368614196777" lon="11.168525218963623">
        <ele>593</ele>
        <time>2004-06-05T07:45:19Z</time>
      </trkpt>
      <trkpt lat="44.355368614196777" lon="11.168503761291504">
        <ele>593</ele>
        <time>2004-06-05T07:45:17Z</time>
      </trkpt>
      <trkpt lat="44.355325698852539" lon="11.168375015258789">
        <ele>592</ele>
        <time>2004-06-05T07:44:52Z</time>
      </trkpt>
      <trkpt lat="44.355711936950684" lon="11.168289184570313">
        <ele>591</ele>
        <time>2004-06-05T07:44:31Z</time>
      </trkpt>
      <trkpt lat="44.356741905212402" lon="11.168031692504883">
        <ele>589</ele>
        <time>2004-06-05T07:44:00Z</time>
      </trkpt>
      <trkpt lat="44.357213973999023" lon="11.167902862653136">
        <ele>590</ele>
        <time>2004-06-05T07:43:45Z</time>
      </trkpt>
      <trkpt lat="44.357814788818359" lon="11.167473793029785">
        <ele>590</ele>
        <time>2004-06-05T07:43:25Z</time>
      </trkpt>
      <trkpt lat="44.35805082321167" lon="11.16710901260376">
        <ele>590</ele>
        <time>2004-06-05T07:43:10Z</time>
      </trkpt>
      <trkpt lat="44.358329772949219" lon="11.167173385620117">
        <ele>587</ele>
        <time>2004-06-05T07:42:58Z</time>
      </trkpt>
      <trkpt lat="44.358630180358887" lon="11.167237758636475">
        <ele>588</ele>
        <time>2004-06-05T07:42:51Z</time>
      </trkpt>
      <trkpt lat="44.358780384063721" lon="11.167323589324951">
        <ele>589</ele>
        <time>2004-06-05T07:42:48Z</time>
      </trkpt>
      <trkpt lat="44.358909130096436" lon="11.167409420013428">
        <ele>590</ele>
        <time>2004-06-05T07:42:46Z</time>
      </trkpt>
      <trkpt lat="44.359424114227295" lon="11.167709827423096">
        <ele>594</ele>
        <time>2004-06-05T07:42:39Z</time>
      </trkpt>
      <trkpt lat="44.359488487243652" lon="11.167731285095215">
        <ele>595</ele>
        <time>2004-06-05T07:42:38Z</time>
      </trkpt>
      <trkpt lat="44.359767436981201" lon="11.167774200439453">
        <ele>598</ele>
        <time>2004-06-05T07:42:34Z</time>
      </trkpt>
      <trkpt lat="44.359982013702393" lon="11.167795658111572">
        <ele>598</ele>
        <time>2004-06-05T07:42:31Z</time>
      </trkpt>
      <trkpt lat="44.36004638671875" lon="11.167817115783691">
        <ele>598</ele>
        <time>2004-06-05T07:42:30Z</time>
      </trkpt>
      <trkpt lat="44.360432624816895" lon="11.167924404144287">
        <ele>601</ele>
        <time>2004-06-05T07:42:25Z</time>
      </trkpt>
      <trkpt lat="44.3610764387995" lon="11.16809606552124">
        <ele>604</ele>
        <time>2004-06-05T07:42:17Z</time>
      </trkpt>
      <trkpt lat="44.361183559522033" lon="11.168246269226074">
        <ele>606</ele>
        <time>2004-06-05T07:42:15Z</time>
      </trkpt>
      <trkpt lat="44.361248016357422" lon="11.168439388275146">
        <ele>607</ele>
        <time>2004-06-05T07:42:13Z</time>
      </trkpt>
      <trkpt lat="44.36129093170166" lon="11.168525218963623">
        <ele>607</ele>
        <time>2004-06-05T07:42:12Z</time>
      </trkpt>
      <trkpt lat="44.361312389373779" lon="11.168632507324219">
        <ele>607</ele>
        <time>2004-06-05T07:42:11Z</time>
      </trkpt>
      <trkpt lat="44.361505508422852" lon="11.169168865308166">
        <ele>611</ele>
        <time>2004-06-05T07:42:06Z</time>
      </trkpt>
      <trkpt lat="44.361569881439209" lon="11.16936206817627">
        <ele>612</ele>
        <time>2004-06-05T07:42:04Z</time>
      </trkpt>
      <trkpt lat="44.361655712127686" lon="11.169533729553223">
        <ele>617</ele>
        <time>2004-06-05T07:42:02Z</time>
      </trkpt>
      <trkpt lat="44.361870288848877" lon="11.169941425323486">
        <ele>621</ele>
        <time>2004-06-05T07:41:57Z</time>
      </trkpt>
      <trkpt lat="44.361956119537354" lon="11.17009162902832">
        <ele>624</ele>
        <time>2004-06-05T07:41:54Z</time>
      </trkpt>
      <trkpt lat="44.362127780914307" lon="11.170156002044678">
        <ele>627</ele>
        <time>2004-06-05T07:41:47Z</time>
      </trkpt>
      <trkpt lat="44.362149238586426" lon="11.170134460553527">
        <ele>627</ele>
        <time>2004-06-05T07:41:46Z</time>
      </trkpt>
      <trkpt lat="44.362256526947021" lon="11.170156002044678">
        <ele>630</ele>
        <time>2004-06-05T07:41:42Z</time>
      </trkpt>
      <trkpt lat="44.362320899963379" lon="11.170177459716797">
        <ele>633</ele>
        <time>2004-06-05T07:41:39Z</time>
      </trkpt>
      <trkpt lat="44.362406730651855" lon="11.170198917388916">
        <ele>637</ele>
        <time>2004-06-05T07:41:36Z</time>
      </trkpt>
      <trkpt lat="44.362428188323975" lon="11.170220375061035">
        <ele>637</ele>
        <time>2004-06-05T07:41:35Z</time>
      </trkpt>
      <trkpt lat="44.362514019012451" lon="11.170306205749512">
        <ele>640</ele>
        <time>2004-06-05T07:41:31Z</time>
      </trkpt>
      <trkpt lat="44.36253547668457" lon="11.170327663421631">
        <ele>640</ele>
        <time>2004-06-05T07:41:30Z</time>
      </trkpt>
      <trkpt lat="44.362599765881896" lon="11.170542240142822">
        <ele>644</ele>
        <time>2004-06-05T07:41:22Z</time>
      </trkpt>
      <trkpt lat="44.362599765881896" lon="11.170563697814941">
        <ele>644</ele>
        <time>2004-06-05T07:40:48Z</time>
      </trkpt>
      <trkpt lat="44.362599765881896" lon="11.17060661315918">
        <ele>645</ele>
        <time>2004-06-05T07:40:39Z</time>
      </trkpt>
      <trkpt lat="44.362621307373047" lon="11.170628070831299">
        <ele>645</ele>
        <time>2004-06-05T07:40:38Z</time>
      </trkpt>
      <trkpt lat="44.362664222717285" lon="11.170713901519775">
        <ele>648</ele>
        <time>2004-06-05T07:40:36Z</time>
      </trkpt>
      <trkpt lat="44.362707138061523" lon="11.170842563733459">
        <ele>651</ele>
        <time>2004-06-05T07:40:33Z</time>
      </trkpt>
      <trkpt lat="44.362707138061523" lon="11.170907020568848">
        <ele>652</ele>
        <time>2004-06-05T07:40:31Z</time>
      </trkpt>
      <trkpt lat="44.362900340929627" lon="11.171314716339111">
        <ele>656</ele>
        <time>2004-06-05T07:40:23Z</time>
      </trkpt>
      <trkpt lat="44.363029003143311" lon="11.171271800994873">
        <ele>658</ele>
        <time>2004-06-05T07:40:17Z</time>
      </trkpt>
      <trkpt lat="44.36328649520874" lon="11.171207427978516">
        <ele>660</ele>
        <time>2004-06-05T07:34:26Z</time>
      </trkpt>
      <trkpt lat="44.363479614257813" lon="11.171121597290039">
        <ele>662</ele>
        <time>2004-06-05T07:34:20Z</time>
      </trkpt>
      <trkpt lat="44.363651275634766" lon="11.171057224273682">
        <ele>664</ele>
        <time>2004-06-05T07:34:17Z</time>
      </trkpt>
      <trkpt lat="44.363930225372314" lon="11.170928478240967">
        <ele>664</ele>
        <time>2004-06-05T07:34:13Z</time>
      </trkpt>
      <trkpt lat="44.364080429077148" lon="11.170907020568848">
        <ele>665</ele>
        <time>2004-06-05T07:34:11Z</time>
      </trkpt>
      <trkpt lat="44.364423835650086" lon="11.170885562896729">
        <ele>666</ele>
        <time>2004-06-05T07:34:07Z</time>
      </trkpt>
      <trkpt lat="44.364852905273438" lon="11.170842563733459">
        <ele>670</ele>
        <time>2004-06-05T07:34:02Z</time>
      </trkpt>
      <trkpt lat="44.365088939666748" lon="11.170821189880371">
        <ele>671</ele>
        <time>2004-06-05T07:33:59Z</time>
      </trkpt>
      <trkpt lat="44.365174770355225" lon="11.170821189880371">
        <ele>672</ele>
        <time>2004-06-05T07:33:58Z</time>
      </trkpt>
      <trkpt lat="44.365796959027648" lon="11.170563697814941">
        <ele>675</ele>
        <time>2004-06-05T07:33:49Z</time>
      </trkpt>
      <trkpt lat="44.365925788879395" lon="11.170520782470703">
        <ele>676</ele>
        <time>2004-06-05T07:33:47Z</time>
      </trkpt>
      <trkpt lat="44.366097534075379" lon="11.170392036437988">
        <ele>677</ele>
        <time>2004-06-05T07:33:44Z</time>
      </trkpt>
      <trkpt lat="44.366440773010254" lon="11.170070171356201">
        <ele>679</ele>
        <time>2004-06-05T07:33:37Z</time>
      </trkpt>
      <trkpt lat="44.366655265912414" lon="11.169726764783263">
        <ele>681</ele>
        <time>2004-06-05T07:33:32Z</time>
      </trkpt>
      <trkpt lat="44.366848468780518" lon="11.169447898864746">
        <ele>682</ele>
        <time>2004-06-05T07:33:28Z</time>
      </trkpt>
      <trkpt lat="44.367148876190186" lon="11.169276237487793">
        <ele>684</ele>
        <time>2004-06-05T07:33:24Z</time>
      </trkpt>
      <trkpt lat="44.367148876190186" lon="11.169190406799316">
        <ele>686</ele>
        <time>2004-06-05T07:33:23Z</time>
      </trkpt>
      <trkpt lat="44.36729907989502" lon="11.168911540880799">
        <ele>688</ele>
        <time>2004-06-05T07:33:20Z</time>
      </trkpt>
      <trkpt lat="44.367427825927734" lon="11.168718338012695">
        <ele>692</ele>
        <time>2004-06-05T07:33:18Z</time>
      </trkpt>
      <trkpt lat="44.367470741271973" lon="11.168632507324219">
        <ele>691</ele>
        <time>2004-06-05T07:33:17Z</time>
      </trkpt>
      <trkpt lat="44.367663860321045" lon="11.168353641405702">
        <ele>695</ele>
        <time>2004-06-05T07:33:14Z</time>
      </trkpt>
      <trkpt lat="44.367728233337402" lon="11.168246269226074">
        <ele>697</ele>
        <time>2004-06-05T07:33:13Z</time>
      </trkpt>
      <trkpt lat="44.367899894714355" lon="11.167988777160645">
        <ele>700</ele>
        <time>2004-06-05T07:33:10Z</time>
      </trkpt>
      <trkpt lat="44.367942810058594" lon="11.167731285095215">
        <ele>702</ele>
        <time>2004-06-05T07:33:08Z</time>
      </trkpt>
      <trkpt lat="44.368050098419189" lon="11.167344963178039">
        <ele>707</ele>
        <time>2004-06-05T07:33:05Z</time>
      </trkpt>
      <trkpt lat="44.368157386779785" lon="11.167130470275879">
        <ele>711</ele>
        <time>2004-06-05T07:33:02Z</time>
      </trkpt>
      <trkpt lat="44.368500709533691" lon="11.166722774505615">
        <ele>714</ele>
        <time>2004-06-05T07:32:49Z</time>
      </trkpt>
      <trkpt lat="44.368586540222168" lon="11.16661548614502">
        <ele>715</ele>
        <time>2004-06-05T07:32:46Z</time>
      </trkpt>
      <trkpt lat="44.368565082550049" lon="11.166293621063232">
        <ele>713</ele>
        <time>2004-06-05T07:32:30Z</time>
      </trkpt>
      <trkpt lat="44.368500709533691" lon="11.165928840637207">
        <ele>712</ele>
        <time>2004-06-05T07:32:16Z</time>
      </trkpt>
      <trkpt lat="44.368414878845215" lon="11.165478229522705">
        <ele>715</ele>
        <time>2004-06-05T07:32:02Z</time>
      </trkpt>
      <trkpt lat="44.368414878845215" lon="11.165285110473633">
        <ele>715</ele>
        <time>2004-06-05T07:31:53Z</time>
      </trkpt>
      <trkpt lat="44.368479335680604" lon="11.164512634277344">
        <ele>717</ele>
        <time>2004-06-05T07:31:35Z</time>
      </trkpt>
      <trkpt lat="44.368522167205811" lon="11.164062023162842">
        <ele>716</ele>
        <time>2004-06-05T07:31:15Z</time>
      </trkpt>
      <trkpt lat="44.368586540222168" lon="11.163783073425293">
        <ele>713</ele>
        <time>2004-06-05T07:31:00Z</time>
      </trkpt>
      <trkpt lat="44.368650913238525" lon="11.163568496704102">
        <ele>711</ele>
        <time>2004-06-05T07:30:12Z</time>
      </trkpt>
      <trkpt lat="44.368672370910645" lon="11.163547039031982">
        <ele>711</ele>
        <time>2004-06-05T07:29:55Z</time>
      </trkpt>
      <trkpt lat="44.368693828582764" lon="11.163504123687744">
        <ele>710</ele>
        <time>2004-06-05T07:29:51Z</time>
      </trkpt>
      <trkpt lat="44.368758201599121" lon="11.163525581359863">
        <ele>711</ele>
        <time>2004-06-05T07:29:45Z</time>
      </trkpt>
      <trkpt lat="44.369101524353027" lon="11.163825988769531">
        <ele>713</ele>
        <time>2004-06-05T07:29:30Z</time>
      </trkpt>
      <trkpt lat="44.369509220123291" lon="11.164019107818604">
        <ele>714</ele>
        <time>2004-06-05T07:29:10Z</time>
      </trkpt>
      <trkpt lat="44.369723796844482" lon="11.164169311523438">
        <ele>715</ele>
        <time>2004-06-05T07:28:54Z</time>
      </trkpt>
      <trkpt lat="44.369981288909912" lon="11.16414793767035">
        <ele>711</ele>
        <time>2004-06-05T07:28:38Z</time>
      </trkpt>
      <trkpt lat="44.370217323303223" lon="11.163847362622619">
        <ele>708</ele>
        <time>2004-06-05T07:28:21Z</time>
      </trkpt>
      <trkpt lat="44.370324611663818" lon="11.163804531097412">
        <ele>707</ele>
        <time>2004-06-05T07:28:16Z</time>
      </trkpt>
      <trkpt lat="44.370367527008057" lon="11.16386890411377">
        <ele>705</ele>
        <time>2004-06-05T07:28:13Z</time>
      </trkpt>
      <trkpt lat="44.370431900024414" lon="11.164233684539795">
        <ele>702</ele>
        <time>2004-06-05T07:28:01Z</time>
      </trkpt>
      <trkpt lat="44.370517730712891" lon="11.16436243057251">
        <ele>700</ele>
        <time>2004-06-05T07:27:55Z</time>
      </trkpt>
      <trkpt lat="44.370710765942931" lon="11.164448261260986">
        <ele>697</ele>
        <time>2004-06-05T07:27:42Z</time>
      </trkpt>
      <trkpt lat="44.370946884155273" lon="11.164405262097716">
        <ele>695</ele>
        <time>2004-06-05T07:27:26Z</time>
      </trkpt>
      <trkpt lat="44.371075630187988" lon="11.16436243057251">
        <ele>693</ele>
        <time>2004-06-05T07:27:18Z</time>
      </trkpt>
      <trkpt lat="44.371247291564941" lon="11.164383888244629">
        <ele>692</ele>
        <time>2004-06-05T07:27:05Z</time>
      </trkpt>
      <trkpt lat="44.371268665418029" lon="11.164319515228271">
        <ele>692</ele>
        <time>2004-06-05T07:26:57Z</time>
      </trkpt>
      <trkpt lat="44.371268665418029" lon="11.164298141375184">
        <ele>690</ele>
        <time>2004-06-05T07:26:43Z</time>
      </trkpt>
      <trkpt lat="44.37129020690918" lon="11.164319515228271">
        <ele>692</ele>
        <time>2004-06-05T07:25:22Z</time>
      </trkpt>
      <trkpt lat="44.37129020690918" lon="11.164298141375184">
        <ele>693</ele>
        <time>2004-06-05T07:25:05Z</time>
      </trkpt>
      <trkpt lat="44.371311664581299" lon="11.164319515228271">
        <ele>693</ele>
        <time>2004-06-05T07:25:02Z</time>
      </trkpt>
      <trkpt lat="44.371376037597656" lon="11.164383888244629">
        <ele>691</ele>
        <time>2004-06-05T07:24:53Z</time>
      </trkpt>
      <trkpt lat="44.371397495269775" lon="11.164383888244629">
        <ele>691</ele>
        <time>2004-06-05T07:24:51Z</time>
      </trkpt>
      <trkpt lat="44.371740818023682" lon="11.164383888244629">
        <ele>689</ele>
        <time>2004-06-05T07:24:30Z</time>
      </trkpt>
      <trkpt lat="44.371955394744873" lon="11.164383888244629">
        <ele>689</ele>
        <time>2004-06-05T07:24:17Z</time>
      </trkpt>
      <trkpt lat="44.372169971466064" lon="11.164469718933105">
        <ele>689</ele>
        <time>2004-06-05T07:23:59Z</time>
      </trkpt>
      <trkpt lat="44.372212886810303" lon="11.164512634277344">
        <ele>688</ele>
        <time>2004-06-05T07:23:47Z</time>
      </trkpt>
      <trkpt lat="44.372320175170898" lon="11.164641380310059">
        <ele>688</ele>
        <time>2004-06-05T07:23:30Z</time>
      </trkpt>
      <trkpt lat="44.372341632843018" lon="11.164641380310059">
        <ele>688</ele>
        <time>2004-06-05T07:23:29Z</time>
      </trkpt>
      <trkpt lat="44.372427463531494" lon="11.164705837145448">
        <ele>685</ele>
        <time>2004-06-05T07:23:24Z</time>
      </trkpt>
      <trkpt lat="44.372448921203613" lon="11.164705837145448">
        <ele>684</ele>
        <time>2004-06-05T07:23:23Z</time>
      </trkpt>
      <trkpt lat="44.372706413269043" lon="11.164856040850282">
        <ele>681</ele>
        <time>2004-06-05T07:23:09Z</time>
      </trkpt>
      <trkpt lat="44.372963905334473" lon="11.165049076080322">
        <ele>678</ele>
        <time>2004-06-05T07:22:53Z</time>
      </trkpt>
      <trkpt lat="44.373006820678711" lon="11.165113365277648">
        <ele>677</ele>
        <time>2004-06-05T07:22:50Z</time>
      </trkpt>
      <trkpt lat="44.373157024383545" lon="11.165585517883301">
        <ele>676</ele>
        <time>2004-06-05T07:22:31Z</time>
      </trkpt>
      <trkpt lat="44.373221397399902" lon="11.165928840637207">
        <ele>676</ele>
        <time>2004-06-05T07:22:16Z</time>
      </trkpt>
      <trkpt lat="44.373242938891053" lon="11.166229164227843">
        <ele>676</ele>
        <time>2004-06-05T07:22:01Z</time>
      </trkpt>
      <trkpt lat="44.373371601104736" lon="11.166722774505615">
        <ele>673</ele>
        <time>2004-06-05T07:21:43Z</time>
      </trkpt>
      <trkpt lat="44.373435974121094" lon="11.167023181915283">
        <ele>672</ele>
        <time>2004-06-05T07:21:27Z</time>
      </trkpt>
      <trkpt lat="44.373543262481689" lon="11.167259216308594">
        <ele>671</ele>
        <time>2004-06-05T07:21:10Z</time>
      </trkpt>
      <trkpt lat="44.373607635498047" lon="11.167559623718262">
        <ele>669</ele>
        <time>2004-06-05T07:20:58Z</time>
      </trkpt>
      <trkpt lat="44.373629093170166" lon="11.16764553822577">
        <ele>667</ele>
        <time>2004-06-05T07:20:54Z</time>
      </trkpt>
      <trkpt lat="44.373629093170166" lon="11.167988777160645">
        <ele>665</ele>
        <time>2004-06-05T07:20:36Z</time>
      </trkpt>
      <trkpt lat="44.373629093170166" lon="11.168053233996034">
        <ele>665</ele>
        <time>2004-06-05T07:20:32Z</time>
      </trkpt>
      <trkpt lat="44.373650634661317" lon="11.168353641405702">
        <ele>662</ele>
        <time>2004-06-05T07:20:16Z</time>
      </trkpt>
      <trkpt lat="44.373650634661317" lon="11.168739795684814">
        <ele>661</ele>
        <time>2004-06-05T07:19:58Z</time>
      </trkpt>
      <trkpt lat="44.37403678894043" lon="11.169404983520508">
        <ele>657</ele>
        <time>2004-06-05T07:19:46Z</time>
      </trkpt>
      <trkpt lat="44.37403678894043" lon="11.169404983520508">
        <ele>654</ele>
        <time>2004-06-05T07:19:32Z</time>
      </trkpt>
      <trkpt lat="44.37403678894043" lon="11.169404983520508">
        <ele>652</ele>
        <time>2004-06-05T07:19:22Z</time>
      </trkpt>
      <trkpt lat="44.374122619628906" lon="11.169469440355897">
        <ele>649</ele>
        <time>2004-06-05T07:19:09Z</time>
      </trkpt>
      <trkpt lat="44.374315738677979" lon="11.169683933258057">
        <ele>649</ele>
        <time>2004-06-05T07:18:56Z</time>
      </trkpt>
      <trkpt lat="44.374444484710693" lon="11.169941425323486">
        <ele>632</ele>
        <time>2003-12-06T09:59:21Z</time>
      </trkpt>
      <trkpt lat="44.374487400054932" lon="11.170134460553527">
        <ele>633</ele>
        <time>2003-12-06T09:59:28Z</time>
      </trkpt>
      <trkpt lat="44.374487400054932" lon="11.170220375061035">
        <ele>633</ele>
        <time>2003-12-06T09:59:44Z</time>
      </trkpt>
      <trkpt lat="44.374487400054932" lon="11.170456409454346">
        <ele>634</ele>
        <time>2003-12-06T10:00:05Z</time>
      </trkpt>
      <trkpt lat="44.37453031539917" lon="11.170907020568848">
        <ele>635</ele>
        <time>2003-12-06T10:00:24Z</time>
      </trkpt>
      <trkpt lat="44.374487400054932" lon="11.17135763168335">
        <ele>637</ele>
        <time>2003-12-06T10:00:44Z</time>
      </trkpt>
      <trkpt lat="44.374401569366455" lon="11.171658039093018">
        <ele>641</ele>
        <time>2003-12-06T10:00:59Z</time>
      </trkpt>
      <trkpt lat="44.374251365661621" lon="11.171979904174805">
        <ele>642</ele>
        <time>2003-12-06T10:01:19Z</time>
      </trkpt>
      <trkpt lat="44.373993873596191" lon="11.172366058453918">
        <ele>641</ele>
        <time>2003-12-06T10:01:34Z</time>
      </trkpt>
      <trkpt lat="44.373929500579834" lon="11.172430515289307">
        <ele>640</ele>
        <time>2003-12-06T10:01:36Z</time>
      </trkpt>
      <trkpt lat="44.373865127563477" lon="11.172645092010498">
        <ele>636</ele>
        <time>2003-12-06T10:01:39Z</time>
      </trkpt>
      <trkpt lat="44.373693466186523" lon="11.173160076141357">
        <ele>631</ele>
        <time>2003-12-06T10:01:45Z</time>
      </trkpt>
      <trkpt lat="44.373672008514404" lon="11.173224365338683">
        <ele>631</ele>
        <time>2003-12-06T10:01:46Z</time>
      </trkpt>
      <trkpt lat="44.373629093170166" lon="11.17335319519043">
        <ele>628</ele>
        <time>2003-12-06T10:01:48Z</time>
      </trkpt>
      <trkpt lat="44.373543262481689" lon="11.173524940386415">
        <ele>626</ele>
        <time>2003-12-06T10:01:51Z</time>
      </trkpt>
      <trkpt lat="44.373435974121094" lon="11.173739433288574">
        <ele>623</ele>
        <time>2003-12-06T10:01:55Z</time>
      </trkpt>
      <trkpt lat="44.373371601104736" lon="11.173911094665527">
        <ele>621</ele>
        <time>2003-12-06T10:01:58Z</time>
      </trkpt>
      <trkpt lat="44.37328577041626" lon="11.1741042137146">
        <ele>616</ele>
        <time>2003-12-06T10:02:02Z</time>
      </trkpt>
      <trkpt lat="44.373221397399902" lon="11.174254417419434">
        <ele>612</ele>
        <time>2003-12-06T10:02:05Z</time>
      </trkpt>
      <trkpt lat="44.373157024383545" lon="11.174404621124268">
        <ele>610</ele>
        <time>2003-12-06T10:02:08Z</time>
      </trkpt>
      <trkpt lat="44.373071193695068" lon="11.17459774017334">
        <ele>607</ele>
        <time>2003-12-06T10:02:13Z</time>
      </trkpt>
      <trkpt lat="44.373049736022949" lon="11.17464073933661">
        <ele>605</ele>
        <time>2003-12-06T10:02:15Z</time>
      </trkpt>
      <trkpt lat="44.372920989990234" lon="11.174790859222412">
        <ele>601</ele>
        <time>2003-12-06T10:02:20Z</time>
      </trkpt>
      <trkpt lat="44.372749328613281" lon="11.174919605255127">
        <ele>599</ele>
        <time>2003-12-06T10:02:25Z</time>
      </trkpt>
      <trkpt lat="44.372727870941162" lon="11.174941062927246">
        <ele>598</ele>
        <time>2003-12-06T10:02:26Z</time>
      </trkpt>
      <trkpt lat="44.372599124908447" lon="11.175048435106874">
        <ele>595</ele>
        <time>2003-12-06T10:02:31Z</time>
      </trkpt>
      <trkpt lat="44.372577667236328" lon="11.175069808959961">
        <ele>595</ele>
        <time>2003-12-06T10:02:32Z</time>
      </trkpt>
      <trkpt lat="44.372534835711122" lon="11.175155639648438">
        <ele>593</ele>
        <time>2003-12-06T10:02:35Z</time>
      </trkpt>
      <trkpt lat="44.372448921203613" lon="11.175284385681152">
        <ele>590</ele>
        <time>2003-12-06T10:02:39Z</time>
      </trkpt>
      <trkpt lat="44.372341632843018" lon="11.175391674041748">
        <ele>589</ele>
        <time>2003-12-06T10:02:43Z</time>
      </trkpt>
      <trkpt lat="44.372320175170898" lon="11.175391674041748">
        <ele>588</ele>
        <time>2003-12-06T10:03:05Z</time>
      </trkpt>
      <trkpt lat="44.372320175170898" lon="11.175391674041748">
        <ele>588</ele>
        <time>2003-12-06T10:03:40Z</time>
      </trkpt>
      <trkpt lat="44.372320175170898" lon="11.175413131713867">
        <ele>588</ele>
        <time>2003-12-06T10:04:15Z</time>
      </trkpt>
      <trkpt lat="44.372448921203613" lon="11.175434589385986">
        <ele>585</ele>
        <time>2003-12-06T10:04:20Z</time>
      </trkpt>
      <trkpt lat="44.372706413269043" lon="11.175391674041748">
        <ele>583</ele>
        <time>2003-12-06T10:04:25Z</time>
      </trkpt>
      <trkpt lat="44.372813701629639" lon="11.175370216369629">
        <ele>582</ele>
        <time>2003-12-06T10:04:27Z</time>
      </trkpt>
      <trkpt lat="44.372942363843322" lon="11.175370216369629">
        <ele>581</ele>
        <time>2003-12-06T10:04:29Z</time>
      </trkpt>
      <trkpt lat="44.373157024383545" lon="11.175327301025391">
        <ele>577</ele>
        <time>2003-12-06T10:04:33Z</time>
      </trkpt>
      <trkpt lat="44.373264312744141" lon="11.17530575953424">
        <ele>575</ele>
        <time>2003-12-06T10:04:35Z</time>
      </trkpt>
      <trkpt lat="44.373543262481689" lon="11.17558479309082">
        <ele>572</ele>
        <time>2003-12-06T10:04:41Z</time>
      </trkpt>
      <trkpt lat="44.373629093170166" lon="11.175799369812012">
        <ele>569</ele>
        <time>2003-12-06T10:04:48Z</time>
      </trkpt>
      <trkpt lat="44.373478889465332" lon="11.175906658172607">
        <ele>566</ele>
        <time>2003-12-06T10:04:53Z</time>
      </trkpt>
      <trkpt lat="44.373414516448975" lon="11.176056861877441">
        <ele>566</ele>
        <time>2003-12-06T10:04:56Z</time>
      </trkpt>
      <trkpt lat="44.373307228088379" lon="11.176378726959229">
        <ele>562</ele>
        <time>2003-12-06T10:05:05Z</time>
      </trkpt>
      <trkpt lat="44.373199939727783" lon="11.17633581161499">
        <ele>559</ele>
        <time>2003-12-06T10:05:09Z</time>
      </trkpt>
      <trkpt lat="44.373114109039307" lon="11.176142692565918">
        <ele>557</ele>
        <time>2003-12-06T10:05:12Z</time>
      </trkpt>
      <trkpt lat="44.372856616973877" lon="11.175670623779297">
        <ele>557</ele>
        <time>2003-12-06T10:05:21Z</time>
      </trkpt>
      <trkpt lat="44.372835159301758" lon="11.175777912139893">
        <ele>553</ele>
        <time>2003-12-06T10:05:27Z</time>
      </trkpt>
      <trkpt lat="44.372792160138488" lon="11.17584228515625">
        <ele>555</ele>
        <time>2003-12-06T10:05:40Z</time>
      </trkpt>
      <trkpt lat="44.372685039415956" lon="11.175928115844727">
        <ele>553</ele>
        <time>2003-12-06T10:05:52Z</time>
      </trkpt>
      <trkpt lat="44.372663497924805" lon="11.175949573516846">
        <ele>550</ele>
        <time>2003-12-06T10:05:56Z</time>
      </trkpt>
      <trkpt lat="44.372642040252686" lon="11.176013862714171">
        <ele>549</ele>
        <time>2003-12-06T10:05:58Z</time>
      </trkpt>
      <trkpt lat="44.372599124908447" lon="11.176185607910156">
        <ele>546</ele>
        <time>2003-12-06T10:06:05Z</time>
      </trkpt>
      <trkpt lat="44.372599124908447" lon="11.176207065582275">
        <ele>545</ele>
        <time>2003-12-06T10:06:06Z</time>
      </trkpt>
      <trkpt lat="44.372384464368224" lon="11.176636219024658">
        <ele>549</ele>
        <time>2003-12-06T10:06:24Z</time>
      </trkpt>
      <trkpt lat="44.372062683105469" lon="11.177065372467041">
        <ele>552</ele>
        <time>2003-12-06T10:06:59Z</time>
      </trkpt>
      <trkpt lat="44.37204122543335" lon="11.177172660827637">
        <ele>549</ele>
        <time>2003-12-06T10:07:26Z</time>
      </trkpt>
      <trkpt lat="44.37201976776123" lon="11.177194118499756">
        <ele>546</ele>
        <time>2003-12-06T10:07:29Z</time>
      </trkpt>
      <trkpt lat="44.371955394744873" lon="11.177215576171875">
        <ele>543</ele>
        <time>2003-12-06T10:07:43Z</time>
      </trkpt>
      <trkpt lat="44.371955394744873" lon="11.177215576171875">
        <ele>541</ele>
        <time>2003-12-06T10:07:46Z</time>
      </trkpt>
      <trkpt lat="44.371955394744873" lon="11.177215576171875">
        <ele>540</ele>
        <time>2003-12-06T10:07:48Z</time>
      </trkpt>
      <trkpt lat="44.371955394744873" lon="11.177194118499756">
        <ele>536</ele>
        <time>2003-12-06T10:07:52Z</time>
      </trkpt>
      <trkpt lat="44.371955394744873" lon="11.177194118499756">
        <ele>532</ele>
        <time>2003-12-06T10:07:55Z</time>
      </trkpt>
      <trkpt lat="44.371955394744873" lon="11.177194118499756">
        <ele>532</ele>
        <time>2003-12-06T10:07:56Z</time>
      </trkpt>
      <trkpt lat="44.371933937072754" lon="11.177194118499756">
        <ele>529</ele>
        <time>2003-12-06T10:07:59Z</time>
      </trkpt>
      <trkpt lat="44.371891021728516" lon="11.177194118499756">
        <ele>525</ele>
        <time>2003-12-06T10:08:08Z</time>
      </trkpt>
      <trkpt lat="44.371891021728516" lon="11.177194118499756">
        <ele>522</ele>
        <time>2003-12-06T10:08:10Z</time>
      </trkpt>
      <trkpt lat="44.371869564056396" lon="11.177194118499756">
        <ele>518</ele>
        <time>2003-12-06T10:08:13Z</time>
      </trkpt>
      <trkpt lat="44.371848106384277" lon="11.177237033843994">
        <ele>515</ele>
        <time>2003-12-06T10:08:16Z</time>
      </trkpt>
      <trkpt lat="44.371848106384277" lon="11.177237033843994">
        <ele>513</ele>
        <time>2003-12-06T10:08:18Z</time>
      </trkpt>
      <trkpt lat="44.370560562238097" lon="11.1785888671875">
        <ele>509</ele>
        <time>2003-12-06T10:08:23Z</time>
      </trkpt>
      <trkpt lat="44.370560562238097" lon="11.178567409515381">
        <ele>508</ele>
        <time>2003-12-06T10:08:24Z</time>
      </trkpt>
      <trkpt lat="44.37053918838501" lon="11.178567409515381">
        <ele>508</ele>
        <time>2003-12-06T10:08:37Z</time>
      </trkpt>
      <trkpt lat="44.37053918838501" lon="11.178631782531738">
        <ele>507</ele>
        <time>2003-12-06T10:08:48Z</time>
      </trkpt>
      <trkpt lat="44.370517730712891" lon="11.178696239367127">
        <ele>502</ele>
        <time>2003-12-06T10:08:52Z</time>
      </trkpt>
      <trkpt lat="44.370496273040771" lon="11.178717613220215">
        <ele>503</ele>
        <time>2003-12-06T10:08:53Z</time>
      </trkpt>
      <trkpt lat="44.370431900024414" lon="11.178781986236572">
        <ele>499</ele>
        <time>2003-12-06T10:08:59Z</time>
      </trkpt>
      <trkpt lat="44.370410358533263" lon="11.17884635925293">
        <ele>495</ele>
        <time>2003-12-06T10:09:02Z</time>
      </trkpt>
      <trkpt lat="44.370453441515565" lon="11.178910732269287">
        <ele>494</ele>
        <time>2003-12-06T10:09:18Z</time>
      </trkpt>
      <trkpt lat="44.370431900024414" lon="11.178975105285645">
        <ele>490</ele>
        <time>2003-12-06T10:09:45Z</time>
      </trkpt>
      <trkpt lat="44.370410358533263" lon="11.178975105285645">
        <ele>489</ele>
        <time>2003-12-06T10:09:46Z</time>
      </trkpt>
      <trkpt lat="44.370388984680176" lon="11.179018020629883">
        <ele>487</ele>
        <time>2003-12-06T10:09:49Z</time>
      </trkpt>
      <trkpt lat="44.370388984680176" lon="11.179103935137391">
        <ele>486</ele>
        <time>2003-12-06T10:10:13Z</time>
      </trkpt>
      <trkpt lat="44.370431900024414" lon="11.179125308990479">
        <ele>482</ele>
        <time>2003-12-06T10:10:17Z</time>
      </trkpt>
      <trkpt lat="44.370431900024414" lon="11.179168224334717">
        <ele>480</ele>
        <time>2003-12-06T10:10:20Z</time>
      </trkpt>
      <trkpt lat="44.370431900024414" lon="11.179254138842225">
        <ele>478</ele>
        <time>2003-12-06T10:10:25Z</time>
      </trkpt>
      <trkpt lat="44.370324611663818" lon="11.179554462432861">
        <ele>479</ele>
        <time>2003-12-06T10:10:54Z</time>
      </trkpt>
      <trkpt lat="44.370303237810731" lon="11.1795973777771">
        <ele>471</ele>
        <time>2003-12-06T10:11:48Z</time>
      </trkpt>
      <trkpt lat="44.370324611663818" lon="11.17957592010498">
        <ele>467</ele>
        <time>2003-12-06T10:11:51Z</time>
      </trkpt>
      <trkpt lat="44.370367527008057" lon="11.179554462432861">
        <ele>467</ele>
        <time>2003-12-06T10:11:52Z</time>
      </trkpt>
      <trkpt lat="44.370431900024414" lon="11.179533004760742">
        <ele>464</ele>
        <time>2003-12-06T10:11:56Z</time>
      </trkpt>
      <trkpt lat="44.370453441515565" lon="11.179533004760742">
        <ele>463</ele>
        <time>2003-12-06T10:11:57Z</time>
      </trkpt>
      <trkpt lat="44.370474815368652" lon="11.179554462432861">
        <ele>461</ele>
        <time>2003-12-06T10:12:00Z</time>
      </trkpt>
      <trkpt lat="44.370517730712891" lon="11.17957592010498">
        <ele>457</ele>
        <time>2003-12-06T10:12:02Z</time>
      </trkpt>
      <trkpt lat="44.37053918838501" lon="11.179640293121338">
        <ele>455</ele>
        <time>2003-12-06T10:12:05Z</time>
      </trkpt>
      <trkpt lat="44.370603561401367" lon="11.179683208465576">
        <ele>453</ele>
        <time>2003-12-06T10:12:08Z</time>
      </trkpt>
      <trkpt lat="44.370625019073486" lon="11.179726123809814">
        <ele>450</ele>
        <time>2003-12-06T10:12:12Z</time>
      </trkpt>
      <trkpt lat="44.370818138122559" lon="11.17983341217041">
        <ele>448</ele>
        <time>2003-12-06T10:12:29Z</time>
      </trkpt>
      <trkpt lat="44.370839595794678" lon="11.179854869842529">
        <ele>446</ele>
        <time>2003-12-06T10:12:31Z</time>
      </trkpt>
      <trkpt lat="44.37103271484375" lon="11.179897785186768">
        <ele>449</ele>
        <time>2003-12-06T10:12:43Z</time>
      </trkpt>
      <trkpt lat="44.371097087860107" lon="11.179897785186768">
        <ele>450</ele>
        <time>2003-12-06T10:12:46Z</time>
      </trkpt>
      <trkpt lat="44.371247291564941" lon="11.179897785186768">
        <ele>447</ele>
        <time>2003-12-06T10:13:01Z</time>
      </trkpt>
      <trkpt lat="44.371419036760926" lon="11.17983341217041">
        <ele>448</ele>
        <time>2003-12-06T10:13:16Z</time>
      </trkpt>
      <trkpt lat="44.372084140777588" lon="11.179404258728027">
        <ele>446</ele>
        <time>2003-12-06T10:13:28Z</time>
      </trkpt>
      <trkpt lat="44.372105598449707" lon="11.17957592010498">
        <ele>444</ele>
        <time>2003-12-06T10:13:30Z</time>
      </trkpt>
      <trkpt lat="44.372341632843018" lon="11.179554462432861">
        <ele>441</ele>
        <time>2003-12-06T10:13:34Z</time>
      </trkpt>
      <trkpt lat="44.372427463531494" lon="11.17957592010498">
        <ele>439</ele>
        <time>2003-12-06T10:13:38Z</time>
      </trkpt>
      <trkpt lat="44.372491836547852" lon="11.1795973777771">
        <ele>436</ele>
        <time>2003-12-06T10:13:41Z</time>
      </trkpt>
      <trkpt lat="44.372685039415956" lon="11.179618835449219">
        <ele>433</ele>
        <time>2003-12-06T10:13:49Z</time>
      </trkpt>
      <trkpt lat="44.373006820678711" lon="11.179361259564757">
        <ele>431</ele>
        <time>2003-12-06T10:13:52Z</time>
      </trkpt>
      <trkpt lat="44.373135566711426" lon="11.17933988571167">
        <ele>428</ele>
        <time>2003-12-06T10:13:56Z</time>
      </trkpt>
      <trkpt lat="44.373264312744141" lon="11.179254138842225">
        <ele>426</ele>
        <time>2003-12-06T10:14:00Z</time>
      </trkpt>
      <trkpt lat="44.373478889465332" lon="11.179296970367432">
        <ele>423</ele>
        <time>2003-12-06T10:14:14Z</time>
      </trkpt>
      <trkpt lat="44.373371601104736" lon="11.17983341217041">
        <ele>432</ele>
        <time>2003-12-06T10:22:33Z</time>
      </trkpt>
      <trkpt lat="44.373371601104736" lon="11.179854869842529">
        <ele>432</ele>
        <time>2003-12-06T10:22:34Z</time>
      </trkpt>
      <trkpt lat="44.373049736022949" lon="11.17983341217041">
        <ele>433</ele>
        <time>2003-12-06T10:22:41Z</time>
      </trkpt>
      <trkpt lat="44.37302827835083" lon="11.179854869842529">
        <ele>433</ele>
        <time>2003-12-06T10:22:45Z</time>
      </trkpt>
      <trkpt lat="44.372878074645996" lon="11.179983615875244">
        <ele>429</ele>
        <time>2003-12-06T10:22:56Z</time>
      </trkpt>
      <trkpt lat="44.372898107394576" lon="11.180741339921951">
        <ele>420</ele>
        <time>1989-12-31T00:00:00Z</time>
      </trkpt>
      <trkpt lat="44.3727707862854" lon="11.180820465087891">
        <ele>414</ele>
        <time>2003-09-28T09:22:14Z</time>
      </trkpt>
      <trkpt lat="44.372749328613281" lon="11.18084192276001">
        <ele>414</ele>
        <time>2003-09-28T09:22:15Z</time>
      </trkpt>
      <trkpt lat="44.372685039415956" lon="11.180949211120605">
        <ele>412</ele>
        <time>2003-09-28T09:22:19Z</time>
      </trkpt>
      <trkpt lat="44.372685039415956" lon="11.180970668792725">
        <ele>411</ele>
        <time>2003-09-28T09:22:20Z</time>
      </trkpt>
      <trkpt lat="44.372599124908447" lon="11.181142330169678">
        <ele>409</ele>
        <time>2003-09-28T09:22:26Z</time>
      </trkpt>
      <trkpt lat="44.372491836547852" lon="11.181335365399718">
        <ele>406</ele>
        <time>2003-09-28T09:22:36Z</time>
      </trkpt>
      <trkpt lat="44.372384464368224" lon="11.181442737579346">
        <ele>402</ele>
        <time>2003-09-28T09:22:41Z</time>
      </trkpt>
      <trkpt lat="44.372127139940858" lon="11.181721687316895">
        <ele>399</ele>
        <time>2003-09-28T09:22:54Z</time>
      </trkpt>
      <trkpt lat="44.371955394744873" lon="11.182043636217713">
        <ele>396</ele>
        <time>2003-09-28T09:23:05Z</time>
      </trkpt>
      <trkpt lat="44.37178373336792" lon="11.18232250213623">
        <ele>393</ele>
        <time>2003-09-28T09:23:15Z</time>
      </trkpt>
      <trkpt lat="44.371654987335205" lon="11.182558536529541">
        <ele>389</ele>
        <time>2003-09-28T09:23:23Z</time>
      </trkpt>
      <trkpt lat="44.371612071990967" lon="11.182665824890137">
        <ele>387</ele>
        <time>2003-09-28T09:23:34Z</time>
      </trkpt>
      <trkpt lat="44.371547698974609" lon="11.182751739397645">
        <ele>385</ele>
        <time>2003-09-28T09:23:45Z</time>
      </trkpt>
      <trkpt lat="44.371461868286133" lon="11.182901859283447">
        <ele>383</ele>
        <time>2003-09-28T09:23:53Z</time>
      </trkpt>
      <trkpt lat="44.371419036760926" lon="11.182966232299805">
        <ele>382</ele>
        <time>2003-09-28T09:23:55Z</time>
      </trkpt>
      <trkpt lat="44.37180326320231" lon="11.182867996394634">
        <ele>382</ele>
        <time>1989-12-31T00:00:00Z</time>
      </trkpt>
      <trkpt lat="44.37225722707808" lon="11.183197991922498">
        <ele>382</ele>
        <time>1989-12-31T00:00:00Z</time>
      </trkpt>
      <trkpt lat="44.372737929224968" lon="11.183215091004968">
        <ele>382</ele>
        <time>1989-12-31T00:00:00Z</time>
      </trkpt>
      <trkpt lat="44.372775983065367" lon="11.183360097929835">
        <ele>382</ele>
        <time>1989-12-31T00:00:00Z</time>
      </trkpt>
      <trkpt lat="44.372543301433325" lon="11.183565119281411">
        <ele>382</ele>
        <time>1989-12-31T00:00:00Z</time>
      </trkpt>
      <trkpt lat="44.372478509321809" lon="11.183939035981894">
        <ele>382</ele>
        <time>1989-12-31T00:00:00Z</time>
      </trkpt>
      <trkpt lat="44.37227725982666" lon="11.184167861938477">
        <ele>363</ele>
        <time>2003-09-28T09:25:26Z</time>
      </trkpt>
      <trkpt lat="44.371955897659063" lon="11.184183117002249">
        <ele>363</ele>
        <time>1989-12-31T00:00:00Z</time>
      </trkpt>
      <trkpt lat="44.371788008138537" lon="11.18400382809341">
        <ele>363</ele>
        <time>1989-12-31T00:00:00Z</time>
      </trkpt>
      <trkpt lat="44.371658340096474" lon="11.18419736623764">
        <ele>363</ele>
        <time>1989-12-31T00:00:00Z</time>
      </trkpt>
      <trkpt lat="44.371483325958252" lon="11.184446811676025">
        <ele>354</ele>
        <time>2003-09-28T09:25:45Z</time>
      </trkpt>
      <trkpt lat="44.371376037597656" lon="11.184425437822938">
        <ele>353</ele>
        <time>2003-09-28T09:25:47Z</time>
      </trkpt>
      <trkpt lat="44.371268665418029" lon="11.184446811676025">
        <ele>351</ele>
        <time>2003-09-28T09:25:49Z</time>
      </trkpt>
      <trkpt lat="44.371011340990663" lon="11.184403896331787">
        <ele>347</ele>
        <time>2003-09-28T09:25:54Z</time>
      </trkpt>
      <trkpt lat="44.370903968811035" lon="11.184382438659668">
        <ele>347</ele>
        <time>2003-09-28T09:25:56Z</time>
      </trkpt>
      <trkpt lat="44.370689392089844" lon="11.184296607971191">
        <ele>346</ele>
        <time>2003-09-28T09:26:00Z</time>
      </trkpt>
      <trkpt lat="44.370216401293874" lon="11.184302307665348">
        <ele>346</ele>
        <time>1989-12-31T00:00:00Z</time>
      </trkpt>
      <trkpt lat="44.369598403573036" lon="11.185177797451615">
        <ele>346</ele>
        <time>1989-12-31T00:00:00Z</time>
      </trkpt>
      <trkpt lat="44.369216859340668" lon="11.18536664173007">
        <ele>346</ele>
        <time>1989-12-31T00:00:00Z</time>
      </trkpt>
      <trkpt lat="44.369102530181408" lon="11.185942562296987">
        <ele>346</ele>
        <time>1989-12-31T00:00:00Z</time>
      </trkpt>
      <trkpt lat="44.369144439697266" lon="11.186301223933697">
        <ele>346</ele>
        <time>1989-12-31T00:00:00Z</time>
      </trkpt>
      <trkpt lat="44.36899951659143" lon="11.186653096228838">
        <ele>346</ele>
        <time>1989-12-31T00:00:00Z</time>
      </trkpt>
      <trkpt lat="44.369087191298604" lon="11.187018379569054">
        <ele>346</ele>
        <time>1989-12-31T00:00:00Z</time>
      </trkpt>
      <trkpt lat="44.369007060304284" lon="11.187134720385075">
        <ele>346</ele>
        <time>1989-12-31T00:00:00Z</time>
      </trkpt>
      <trkpt lat="44.368755267933011" lon="11.187170008197427">
        <ele>346</ele>
        <time>1989-12-31T00:00:00Z</time>
      </trkpt>
      <trkpt lat="44.36873666010797" lon="11.187214935198426">
        <ele>298</ele>
        <time>2004-12-08T10:43:05Z</time>
      </trkpt>
      <trkpt lat="44.368693828582764" lon="11.18757963180542">
        <ele>296</ele>
        <time>2004-12-08T10:43:13Z</time>
      </trkpt>
      <trkpt lat="44.368586540222168" lon="11.187708377838135">
        <ele>292</ele>
        <time>2004-12-08T10:43:18Z</time>
      </trkpt>
      <trkpt lat="44.36854362487793" lon="11.18781566619873">
        <ele>292</ele>
        <time>2004-12-08T10:43:20Z</time>
      </trkpt>
      <trkpt lat="44.368457794189453" lon="11.18803015910089">
        <ele>290</ele>
        <time>2004-12-08T10:43:24Z</time>
      </trkpt>
      <trkpt lat="44.368393421173096" lon="11.188223361968994">
        <ele>289</ele>
        <time>2004-12-08T10:43:27Z</time>
      </trkpt>
      <trkpt lat="44.368135929107666" lon="11.188437938690186">
        <ele>283</ele>
        <time>2004-12-08T10:43:31Z</time>
      </trkpt>
      <trkpt lat="44.368093013763428" lon="11.188502311706543">
        <ele>282</ele>
        <time>2004-12-08T10:43:32Z</time>
      </trkpt>
      <trkpt lat="44.367814064025879" lon="11.188695430755615">
        <ele>278</ele>
        <time>2004-12-08T10:43:37Z</time>
      </trkpt>
      <trkpt lat="44.367663860321045" lon="11.188781261444092">
        <ele>275</ele>
        <time>2004-12-08T10:43:41Z</time>
      </trkpt>
      <trkpt lat="44.367642402648926" lon="11.188802719116211">
        <ele>275</ele>
        <time>2004-12-08T10:43:42Z</time>
      </trkpt>
      <trkpt lat="44.367513740435243" lon="11.188802719116211">
        <ele>271</ele>
        <time>2004-12-08T10:43:46Z</time>
      </trkpt>
      <trkpt lat="44.367427825927734" lon="11.188802719116211">
        <ele>268</ele>
        <time>2004-12-08T10:43:48Z</time>
      </trkpt>
      <trkpt lat="44.367363536730409" lon="11.188609600067139">
        <ele>264</ele>
        <time>2004-12-08T10:43:55Z</time>
      </trkpt>
      <trkpt lat="44.367384910583496" lon="11.188352108001709">
        <ele>266</ele>
        <time>2004-12-08T10:48:01Z</time>
      </trkpt>
      <trkpt lat="44.367234706878662" lon="11.188373565673828">
        <ele>267</ele>
        <time>2004-12-08T10:48:09Z</time>
      </trkpt>
      <trkpt lat="44.367148876190186" lon="11.188931465148926">
        <ele>267</ele>
        <time>2004-12-08T10:48:25Z</time>
      </trkpt>
      <trkpt lat="44.367148876190186" lon="11.188995838165283">
        <ele>268</ele>
        <time>2004-12-08T10:48:27Z</time>
      </trkpt>
      <trkpt lat="44.367062961682677" lon="11.189189041033387">
        <ele>272</ele>
        <time>2004-12-08T10:48:36Z</time>
      </trkpt>
      <trkpt lat="44.366977214813232" lon="11.189360618591309">
        <ele>275</ele>
        <time>2004-12-08T10:48:46Z</time>
      </trkpt>
      <trkpt lat="44.366719722747803" lon="11.189510822296143">
        <ele>279</ele>
        <time>2004-12-08T10:49:04Z</time>
      </trkpt>
      <trkpt lat="44.366569519042969" lon="11.1895751953125">
        <ele>282</ele>
        <time>2004-12-08T10:49:15Z</time>
      </trkpt>
      <trkpt lat="44.366312026977539" lon="11.18983268737793">
        <ele>284</ele>
        <time>2004-12-08T10:49:38Z</time>
      </trkpt>
      <trkpt lat="44.366247737780213" lon="11.189982891082764">
        <ele>287</ele>
        <time>2004-12-08T10:49:48Z</time>
      </trkpt>
      <trkpt lat="44.366269111633301" lon="11.190004264935851">
        <ele>287</ele>
        <time>2004-12-08T10:49:49Z</time>
      </trkpt>
      <trkpt lat="44.366161823272705" lon="11.190197467803955">
        <ele>290</ele>
        <time>2004-12-08T10:50:02Z</time>
      </trkpt>
      <trkpt lat="44.366140365600586" lon="11.1905837059021">
        <ele>293</ele>
        <time>2004-12-08T10:50:25Z</time>
      </trkpt>
      <trkpt lat="44.365882873535156" lon="11.19107723236084">
        <ele>294</ele>
        <time>2004-12-08T10:50:46Z</time>
      </trkpt>
      <trkpt lat="44.365625381469727" lon="11.191592216491699">
        <ele>297</ele>
        <time>2004-12-08T10:51:12Z</time>
      </trkpt>
      <trkpt lat="44.365496635437012" lon="11.191871166229248">
        <ele>301</ele>
        <time>2004-12-08T10:51:28Z</time>
      </trkpt>
      <trkpt lat="44.365496635437012" lon="11.192042827606201">
        <ele>304</ele>
        <time>2004-12-08T10:51:35Z</time>
      </trkpt>
      <trkpt lat="44.365496635437012" lon="11.192085659131408">
        <ele>305</ele>
        <time>2004-12-08T10:51:37Z</time>
      </trkpt>
      <trkpt lat="44.365410804748535" lon="11.192278861999512">
        <ele>307</ele>
        <time>2004-12-08T10:51:49Z</time>
      </trkpt>
      <trkpt lat="44.365346431732178" lon="11.192257404327393">
        <ele>310</ele>
        <time>2004-12-08T10:51:55Z</time>
      </trkpt>
      <trkpt lat="44.365324974060059" lon="11.192235862836242">
        <ele>310</ele>
        <time>2004-12-08T10:51:57Z</time>
      </trkpt>
      <trkpt lat="44.36528205871582" lon="11.192235862836242">
        <ele>312</ele>
        <time>2004-12-08T10:52:00Z</time>
      </trkpt>
      <trkpt lat="44.365174770355225" lon="11.192235862836242">
        <ele>313</ele>
        <time>2004-12-08T10:52:10Z</time>
      </trkpt>
      <trkpt lat="44.364981735125184" lon="11.192450523376465">
        <ele>314</ele>
        <time>2004-12-08T10:52:28Z</time>
      </trkpt>
      <trkpt lat="44.364659786224365" lon="11.192793762311339">
        <ele>316</ele>
        <time>2004-12-08T10:52:53Z</time>
      </trkpt>
      <trkpt lat="44.364509582519531" lon="11.193029880523682">
        <ele>320</ele>
        <time>2004-12-08T10:53:06Z</time>
      </trkpt>
      <trkpt lat="44.364423835650086" lon="11.193244541063905">
        <ele>323</ele>
        <time>2004-12-08T10:53:17Z</time>
      </trkpt>
      <trkpt lat="44.364316463470459" lon="11.193523406982422">
        <ele>325</ele>
        <time>2004-12-08T10:53:33Z</time>
      </trkpt>
      <trkpt lat="44.364058971405029" lon="11.193673610687256">
        <ele>327</ele>
        <time>2004-12-08T10:53:53Z</time>
      </trkpt>
      <trkpt lat="44.363887310028076" lon="11.193780899047852">
        <ele>329</ele>
        <time>2004-12-08T10:54:07Z</time>
      </trkpt>
      <trkpt lat="44.363737106323242" lon="11.193931102752686">
        <ele>330</ele>
        <time>2004-12-08T10:54:25Z</time>
      </trkpt>
      <trkpt lat="44.363715564832091" lon="11.193974018096924">
        <ele>330</ele>
        <time>2004-12-08T10:54:44Z</time>
      </trkpt>
      <trkpt lat="44.363715564832091" lon="11.194124221801758">
        <ele>331</ele>
        <time>2004-12-08T10:55:56Z</time>
      </trkpt>
      <trkpt lat="44.363694190979004" lon="11.194231510162354">
        <ele>331</ele>
        <time>2004-12-08T10:56:05Z</time>
      </trkpt>
      <trkpt lat="44.363694190979004" lon="11.194295883178711">
        <ele>332</ele>
        <time>2004-12-08T10:56:09Z</time>
      </trkpt>
      <trkpt lat="44.363737106323242" lon="11.194725036621094">
        <ele>334</ele>
        <time>2004-12-08T10:56:31Z</time>
      </trkpt>
      <trkpt lat="44.363865936174989" lon="11.194982528686523">
        <ele>331</ele>
        <time>2004-12-08T10:56:43Z</time>
      </trkpt>
      <trkpt lat="44.363930225372314" lon="11.195218563079834">
        <ele>329</ele>
        <time>2004-12-08T10:56:46Z</time>
      </trkpt>
      <trkpt lat="44.363930225372314" lon="11.195518970489502">
        <ele>326</ele>
        <time>2004-12-08T10:56:49Z</time>
      </trkpt>
      <trkpt lat="44.3638014793396" lon="11.195840835571289">
        <ele>323</ele>
        <time>2004-12-08T10:56:52Z</time>
      </trkpt>
      <trkpt lat="44.363501071929932" lon="11.1960768699646">
        <ele>319</ele>
        <time>2004-12-08T10:56:57Z</time>
      </trkpt>
      <trkpt lat="44.363329410552979" lon="11.196098327636719">
        <ele>315</ele>
        <time>2004-12-08T10:57:00Z</time>
      </trkpt>
      <trkpt lat="44.363329410552979" lon="11.1960768699646">
        <ele>314</ele>
        <time>2004-12-08T10:57:02Z</time>
      </trkpt>
      <trkpt lat="44.363114833831787" lon="11.195926666259766">
        <ele>313</ele>
        <time>2004-12-08T10:57:20Z</time>
      </trkpt>
      <trkpt lat="44.362964630126953" lon="11.195797920227051">
        <ele>311</ele>
        <time>2004-12-08T10:57:26Z</time>
      </trkpt>
      <trkpt lat="44.362750137224793" lon="11.195669174194336">
        <ele>311</ele>
        <time>2004-12-08T10:57:34Z</time>
      </trkpt>
      <trkpt lat="44.362664222717285" lon="11.195626258850098">
        <ele>310</ele>
        <time>2004-12-08T10:57:36Z</time>
      </trkpt>
      <trkpt lat="44.362020492553711" lon="11.195089817047119">
        <ele>310</ele>
        <time>2004-12-08T10:57:54Z</time>
      </trkpt>
      <trkpt lat="44.36174145899713" lon="11.194531917572021">
        <ele>311</ele>
        <time>2004-12-08T10:58:09Z</time>
      </trkpt>
      <trkpt lat="44.36105489730835" lon="11.193630695343018">
        <ele>312</ele>
        <time>2003-09-28T09:46:44Z</time>
      </trkpt>
      <trkpt lat="44.360947608947754" lon="11.193544864654541">
        <ele>309</ele>
        <time>2003-09-28T09:46:57Z</time>
      </trkpt>
      <trkpt lat="44.360813079401851" lon="11.193443275988102">
        <ele>309</ele>
        <time>1989-12-31T00:00:00Z</time>
      </trkpt>
      <trkpt lat="44.360645273700356" lon="11.193645531311631">
        <ele>309</ele>
        <time>1989-12-31T00:00:00Z</time>
      </trkpt>
      <trkpt lat="44.360454082489014" lon="11.193952560424805">
        <ele>316</ele>
        <time>2003-09-28T09:47:35Z</time>
      </trkpt>
      <trkpt lat="44.360153675079346" lon="11.19431734085083">
        <ele>319</ele>
        <time>2003-09-28T09:47:53Z</time>
      </trkpt>
      <trkpt lat="44.36004638671875" lon="11.194467460736632">
        <ele>322</ele>
        <time>2003-09-28T09:48:01Z</time>
      </trkpt>
      <trkpt lat="44.359745979309082" lon="11.194789409637451">
        <ele>326</ele>
        <time>2003-09-28T09:48:21Z</time>
      </trkpt>
      <trkpt lat="44.35950986109674" lon="11.195003986358643">
        <ele>329</ele>
        <time>2003-09-28T09:48:38Z</time>
      </trkpt>
      <trkpt lat="44.35952109284699" lon="11.195347560569644">
        <ele>332</ele>
        <time>2003-09-28T09:48:53Z</time>
      </trkpt>
      <trkpt lat="44.359607007354498" lon="11.195776714012027">
        <ele>335</ele>
        <time>2003-09-28T09:49:09Z</time>
      </trkpt>
      <trkpt lat="44.359714295715094" lon="11.196484817191958">
        <ele>335</ele>
        <time>2003-09-28T09:49:30Z</time>
      </trkpt>
      <trkpt lat="44.359885873273015" lon="11.197429038584232">
        <ele>332</ele>
        <time>2003-09-28T09:49:43Z</time>
      </trkpt>
      <trkpt lat="44.359885873273015" lon="11.197858108207583">
        <ele>334</ele>
        <time>2003-09-28T09:49:51Z</time>
      </trkpt>
      <trkpt lat="44.359745979309082" lon="11.197943687438965">
        <ele>337</ele>
        <time>2003-09-28T09:49:58Z</time>
      </trkpt>
      <trkpt lat="44.359703063964844" lon="11.197965061292052">
        <ele>337</ele>
        <time>2003-09-28T09:50:12Z</time>
      </trkpt>
      <trkpt lat="44.35969409532845" lon="11.198403937742114">
        <ele>333</ele>
        <time>2003-09-28T09:53:30Z</time>
      </trkpt>
      <trkpt lat="44.359715469181538" lon="11.198489684611559">
        <ele>332</ele>
        <time>2003-09-28T09:53:31Z</time>
      </trkpt>
      <trkpt lat="44.359737010672688" lon="11.198661429807544">
        <ele>330</ele>
        <time>2003-09-28T09:53:33Z</time>
      </trkpt>
      <trkpt lat="44.359801299870014" lon="11.199004668742418">
        <ele>325</ele>
        <time>2003-09-28T09:53:36Z</time>
      </trkpt>
      <trkpt lat="44.359844299033284" lon="11.199262160807848">
        <ele>322</ele>
        <time>2003-09-28T09:53:38Z</time>
      </trkpt>
      <trkpt lat="44.359887214377522" lon="11.19945527985692">
        <ele>319</ele>
        <time>2003-09-28T09:53:40Z</time>
      </trkpt>
      <trkpt lat="44.359916718676686" lon="11.199666000902653">
        <ele>319</ele>
        <time>1989-12-31T00:00:00Z</time>
      </trkpt>
      <trkpt lat="44.359681606292725" lon="11.199939334765077">
        <ele>314</ele>
        <time>2003-09-28T09:53:46Z</time>
      </trkpt>
      <trkpt lat="44.359488487243652" lon="11.200175285339355">
        <ele>311</ele>
        <time>2003-09-28T09:53:49Z</time>
      </trkpt>
      <trkpt lat="44.359359741210937" lon="11.200475692749023">
        <ele>309</ele>
        <time>2003-09-28T09:53:52Z</time>
      </trkpt>
      <trkpt lat="44.359316825866699" lon="11.200926303863525">
        <ele>305</ele>
        <time>2003-09-28T09:53:56Z</time>
      </trkpt>
      <trkpt lat="44.359230995178223" lon="11.20135554112494">
        <ele>301</ele>
        <time>2003-09-28T09:53:59Z</time>
      </trkpt>
      <trkpt lat="44.35905933380127" lon="11.2015700340271">
        <ele>294</ele>
        <time>2003-09-28T09:54:02Z</time>
      </trkpt>
      <trkpt lat="44.35884484089911" lon="11.201891899108887">
        <ele>290</ele>
        <time>2003-09-28T09:54:06Z</time>
      </trkpt>
      <trkpt lat="44.358823299407959" lon="11.201999187469482">
        <ele>289</ele>
        <time>2003-09-28T09:54:07Z</time>
      </trkpt>
      <trkpt lat="44.358716011047363" lon="11.202256679534912">
        <ele>284</ele>
        <time>2003-09-28T09:54:10Z</time>
      </trkpt>
      <trkpt lat="44.358716011047363" lon="11.202278137207031">
        <ele>282</ele>
        <time>2003-09-28T09:54:11Z</time>
      </trkpt>
      <trkpt lat="44.358716011047363" lon="11.202256679534912">
        <ele>279</ele>
        <time>2003-09-28T09:54:16Z</time>
      </trkpt>
      <trkpt lat="44.358565807342529" lon="11.201720237731934">
        <ele>275</ele>
        <time>2003-09-28T09:54:22Z</time>
      </trkpt>
      <trkpt lat="44.358501434326172" lon="11.201376914978027">
        <ele>273</ele>
        <time>2003-09-28T09:54:25Z</time>
      </trkpt>
      <trkpt lat="44.358479976654053" lon="11.201097965240479">
        <ele>267</ele>
        <time>2003-09-28T09:54:28Z</time>
      </trkpt>
      <trkpt lat="44.358482407405972" lon="11.200842903926969">
        <ele>267</ele>
        <time>1989-12-31T00:00:00Z</time>
      </trkpt>
      <trkpt lat="44.358345028012991" lon="11.200902918353677">
        <ele>267</ele>
        <time>1989-12-31T00:00:00Z</time>
      </trkpt>
      <trkpt lat="44.35824578627944" lon="11.201088912785053">
        <ele>267</ele>
        <time>1989-12-31T00:00:00Z</time>
      </trkpt>
      <trkpt lat="44.358201026916504" lon="11.201226711273193">
        <ele>263</ele>
        <time>2003-09-28T09:54:35Z</time>
      </trkpt>
      <trkpt lat="44.358201026916504" lon="11.201376914978027">
        <ele>262</ele>
        <time>2003-09-28T09:54:37Z</time>
      </trkpt>
      <trkpt lat="44.358201026916504" lon="11.201527118682861">
        <ele>262</ele>
        <time>2003-09-28T09:54:39Z</time>
      </trkpt>
      <trkpt lat="44.358136737719178" lon="11.201870441436768">
        <ele>258</ele>
        <time>2003-09-28T09:54:43Z</time>
      </trkpt>
      <trkpt lat="44.358115196228027" lon="11.20202056132257">
        <ele>254</ele>
        <time>2003-09-28T09:54:46Z</time>
      </trkpt>
      <trkpt lat="44.358115196228027" lon="11.20202056132257">
        <ele>251</ele>
        <time>2003-09-28T09:54:50Z</time>
      </trkpt>
      <trkpt lat="44.358115196228027" lon="11.20202056132257">
        <ele>247</ele>
        <time>2003-09-28T09:54:52Z</time>
      </trkpt>
      <trkpt lat="44.357943534851074" lon="11.203029239550233">
        <ele>244</ele>
        <time>2003-09-28T09:54:54Z</time>
      </trkpt>
      <trkpt lat="44.357900619506836" lon="11.203265190124512">
        <ele>240</ele>
        <time>2003-09-28T09:54:56Z</time>
      </trkpt>
      <trkpt lat="44.357879161834717" lon="11.203372478485107">
        <ele>239</ele>
        <time>2003-09-28T09:54:57Z</time>
      </trkpt>
      <trkpt lat="44.357857704162598" lon="11.203608512878418">
        <ele>235</ele>
        <time>2003-09-28T09:54:59Z</time>
      </trkpt>
      <trkpt lat="44.357771873474121" lon="11.204145038500428">
        <ele>231</ele>
        <time>2003-09-28T09:55:03Z</time>
      </trkpt>
      <trkpt lat="44.357750415802002" lon="11.204273700714111">
        <ele>228</ele>
        <time>2003-09-28T09:55:04Z</time>
      </trkpt>
      <trkpt lat="44.357750415802002" lon="11.204466819763184">
        <ele>225</ele>
        <time>2003-09-28T09:55:06Z</time>
      </trkpt>
      <trkpt lat="44.357664585113525" lon="11.204681396484375">
        <ele>219</ele>
        <time>2003-09-28T09:55:09Z</time>
      </trkpt>
      <trkpt lat="44.357471466064453" lon="11.204788684844971">
        <ele>216</ele>
        <time>2003-09-28T09:55:12Z</time>
      </trkpt>
      <trkpt lat="44.357235431671143" lon="11.204831600189209">
        <ele>209</ele>
        <time>2003-09-28T09:55:15Z</time>
      </trkpt>
      <trkpt lat="44.356977939605713" lon="11.205089092254639">
        <ele>202</ele>
        <time>2003-09-28T09:55:19Z</time>
      </trkpt>
      <trkpt lat="44.356769565492868" lon="11.205397630110383">
        <ele>202</ele>
        <time>1989-12-31T00:00:00Z</time>
      </trkpt>
      <trkpt lat="44.356837375089526" lon="11.205468373373151">
        <ele>196</ele>
        <time>2003-09-28T09:55:23Z</time>
      </trkpt>
      <trkpt lat="44.357159323990345" lon="11.205747406929731">
        <ele>193</ele>
        <time>2003-09-28T09:55:28Z</time>
      </trkpt>
      <trkpt lat="44.357223613187671" lon="11.205854695290327">
        <ele>193</ele>
        <time>2003-09-28T09:55:29Z</time>
      </trkpt>
      <trkpt lat="44.357360824942589" lon="11.206201622262597">
        <ele>193</ele>
        <time>1989-12-31T00:00:00Z</time>
      </trkpt>
      <trkpt lat="44.357440872117877" lon="11.206421982496977">
        <ele>188</ele>
        <time>2003-09-28T09:55:33Z</time>
      </trkpt>
      <trkpt lat="44.357548160478473" lon="11.206679474562407">
        <ele>183</ele>
        <time>2003-09-28T09:55:35Z</time>
      </trkpt>
      <trkpt lat="44.357591075822711" lon="11.206958424299955">
        <ele>177</ele>
        <time>2003-09-28T09:55:38Z</time>
      </trkpt>
      <trkpt lat="44.357440872117877" lon="11.206958424299955">
        <ele>175</ele>
        <time>2003-09-28T09:55:41Z</time>
      </trkpt>
      <trkpt lat="44.357097465544939" lon="11.206636475399137">
        <ele>169</ele>
        <time>2003-09-28T09:55:45Z</time>
      </trkpt>
      <trkpt lat="44.356882972642779" lon="11.206486271694303">
        <ele>164</ele>
        <time>2003-09-28T09:55:47Z</time>
      </trkpt>
      <trkpt lat="44.356689769774675" lon="11.206336067989469">
        <ele>158</ele>
        <time>2003-09-28T09:55:49Z</time>
      </trkpt>
      <trkpt lat="44.356475276872516" lon="11.206250321120024">
        <ele>153</ele>
        <time>2003-09-28T09:55:51Z</time>
      </trkpt>
      <trkpt lat="44.356389362365007" lon="11.206207405775785">
        <ele>151</ele>
        <time>2003-09-28T09:55:52Z</time>
      </trkpt>
      <trkpt lat="44.356117201969028" lon="11.206047981977463">
        <ele>151</ele>
        <time>1989-12-31T00:00:00Z</time>
      </trkpt>
      <trkpt lat="44.355907402932644" lon="11.205850588157773">
        <ele>151</ele>
        <time>1989-12-31T00:00:00Z</time>
      </trkpt>
      <trkpt lat="44.35577773489058" lon="11.205947902053595">
        <ele>151</ele>
        <time>1989-12-31T00:00:00Z</time>
      </trkpt>
      <trkpt lat="44.355815872550011" lon="11.206222493201494">
        <ele>151</ele>
        <time>1989-12-31T00:00:00Z</time>
      </trkpt>
      <trkpt lat="44.355840682983398" lon="11.206355094909668">
        <ele>139</ele>
        <time>2003-09-28T09:56:01Z</time>
      </trkpt>
      <trkpt lat="44.355840682983398" lon="11.206355094909668">
        <ele>137</ele>
        <time>2003-09-28T09:56:02Z</time>
      </trkpt>
      <trkpt lat="44.355840682983398" lon="11.206355094909668">
        <ele>135</ele>
        <time>2003-09-28T09:56:05Z</time>
      </trkpt>
      <trkpt lat="44.355840682983398" lon="11.206355094909668">
        <ele>134</ele>
        <time>2003-09-28T09:56:08Z</time>
      </trkpt>
      <trkpt lat="44.35569760389626" lon="11.206414187327027">
        <ele>134</ele>
        <time>1989-12-31T00:00:00Z</time>
      </trkpt>
      <trkpt lat="44.355423012748361" lon="11.206394238397479">
        <ele>134</ele>
        <time>1989-12-31T00:00:00Z</time>
      </trkpt>
      <trkpt lat="44.355354281142354" lon="11.206464814022183">
        <ele>134</ele>
        <time>1989-12-31T00:00:00Z</time>
      </trkpt>
      <trkpt lat="44.35564043931663" lon="11.20654578320682">
        <ele>134</ele>
        <time>1989-12-31T00:00:00Z</time>
      </trkpt>
      <trkpt lat="44.355834983289242" lon="11.206733705475926">
        <ele>134</ele>
        <time>1989-12-31T00:00:00Z</time>
      </trkpt>
      <trkpt lat="44.356613159179688" lon="11.20779275894165">
        <ele>132</ele>
        <time>2003-09-28T10:00:26Z</time>
      </trkpt>
      <trkpt lat="44.356956481933594" lon="11.208415031433105">
        <ele>132</ele>
        <time>2003-09-28T10:00:35Z</time>
      </trkpt>
      <trkpt lat="44.357265522703528" lon="11.208731699734926">
        <ele>132</ele>
        <time>1989-12-31T00:00:00Z</time>
      </trkpt>
      <trkpt lat="44.357593506574631" lon="11.208632541820407">
        <ele>132</ele>
        <time>1989-12-31T00:00:00Z</time>
      </trkpt>
      <trkpt lat="44.357836162671447" lon="11.208329200744629">
        <ele>128</ele>
        <time>2003-09-28T10:00:51Z</time>
      </trkpt>
      <trkpt lat="44.358351230621338" lon="11.207578182220459">
        <ele>125</ele>
        <time>2003-09-28T10:01:02Z</time>
      </trkpt>
      <trkpt lat="44.358608722686768" lon="11.207213401794434">
        <ele>123</ele>
        <time>2003-09-28T10:01:07Z</time>
      </trkpt>
      <trkpt lat="44.359316825866699" lon="11.206204891204834">
        <ele>120</ele>
        <time>2003-09-28T10:01:19Z</time>
      </trkpt>
      <trkpt lat="44.35978889465332" lon="11.205625534057617">
        <ele>120</ele>
        <time>2003-09-28T10:01:26Z</time>
      </trkpt>
      <trkpt lat="44.360267585143447" lon="11.205090517178178">
        <ele>120</ele>
        <time>1989-12-31T00:00:00Z</time>
      </trkpt>
      <trkpt lat="44.360818862915039" lon="11.204917430877686">
        <ele>119</ele>
        <time>2003-09-28T10:01:39Z</time>
      </trkpt>
      <trkpt lat="44.361677169799805" lon="11.204617023468018">
        <ele>120</ele>
        <time>2003-09-28T10:01:49Z</time>
      </trkpt>
      <trkpt lat="44.362129205837846" lon="11.204549800604582">
        <ele>120</ele>
        <time>1989-12-31T00:00:00Z</time>
      </trkpt>
      <trkpt lat="44.362541176378727" lon="11.204783404245973">
        <ele>120</ele>
        <time>1989-12-31T00:00:00Z</time>
      </trkpt>
      <trkpt lat="44.362707138061523" lon="11.205153465270996">
        <ele>119</ele>
        <time>2003-09-28T10:02:04Z</time>
      </trkpt>
      <trkpt lat="44.363522529602051" lon="11.207191860303283">
        <ele>119</ele>
        <time>2003-09-28T10:02:26Z</time>
      </trkpt>
      <trkpt lat="44.364445209503174" lon="11.20905876159668">
        <ele>116</ele>
        <time>2003-09-28T10:02:48Z</time>
      </trkpt>
      <trkpt lat="44.364917278289795" lon="11.210024440661073">
        <ele>117</ele>
        <time>2003-09-28T10:03:00Z</time>
      </trkpt>
      <trkpt lat="44.365024566650391" lon="11.210281765088439">
        <ele>111</ele>
        <time>2004-12-08T11:05:25Z</time>
      </trkpt>
      <trkpt lat="44.36504602432251" lon="11.210432136431336">
        <ele>111</ele>
        <time>2004-12-08T11:05:30Z</time>
      </trkpt>
      <trkpt lat="44.36523905955255" lon="11.211097240447998">
        <ele>114</ele>
        <time>2004-12-08T11:05:44Z</time>
      </trkpt>
      <trkpt lat="44.365518093109131" lon="11.211934089660645">
        <ele>117</ele>
        <time>2004-12-08T11:06:00Z</time>
      </trkpt>
      <trkpt lat="44.365775585174561" lon="11.212770938873291">
        <ele>120</ele>
        <time>2004-12-08T11:06:15Z</time>
      </trkpt>
      <trkpt lat="44.366140365600586" lon="11.213457584381104">
        <ele>122</ele>
        <time>2004-12-08T11:06:27Z</time>
      </trkpt>
      <trkpt lat="44.366397941485047" lon="11.213715076446533">
        <ele>123</ele>
        <time>2004-12-08T11:06:33Z</time>
      </trkpt>
      <trkpt lat="44.367341995239258" lon="11.213972568511963">
        <ele>121</ele>
        <time>2004-12-08T11:06:48Z</time>
      </trkpt>
      <trkpt lat="44.367492198944092" lon="11.213994026184082">
        <ele>120</ele>
        <time>2004-12-08T11:06:50Z</time>
      </trkpt>
      <trkpt lat="44.368393421173096" lon="11.214659214019775">
        <ele>120</ele>
        <time>2004-12-08T11:07:05Z</time>
      </trkpt>
      <trkpt lat="44.369187438860536" lon="11.215775012969971">
        <ele>123</ele>
        <time>2004-12-08T11:07:24Z</time>
      </trkpt>
      <trkpt lat="44.37002420425415" lon="11.216933727264404">
        <ele>125</ele>
        <time>2004-12-08T11:07:45Z</time>
      </trkpt>
      <trkpt lat="44.370303237810731" lon="11.217341423034668">
        <ele>126</ele>
        <time>2004-12-08T11:07:52Z</time>
      </trkpt>
      <trkpt lat="44.370410358533263" lon="11.217749118804932">
        <ele>126</ele>
        <time>2004-12-08T11:07:57Z</time>
      </trkpt>
      <trkpt lat="44.370603561401367" lon="11.219229698181152">
        <ele>122</ele>
        <time>2004-12-08T11:08:11Z</time>
      </trkpt>
      <trkpt lat="44.371075630187988" lon="11.220581531524658">
        <ele>119</ele>
        <time>2004-12-08T11:08:23Z</time>
      </trkpt>
      <trkpt lat="44.371976936236024" lon="11.221954822540283">
        <ele>119</ele>
        <time>2004-12-08T11:08:40Z</time>
      </trkpt>
      <trkpt lat="44.373006820678711" lon="11.223113536834717">
        <ele>120</ele>
        <time>2004-12-08T11:08:57Z</time>
      </trkpt>
      <trkpt lat="44.373800838366151" lon="11.224014759063721">
        <ele>121</ele>
        <time>2004-12-08T11:09:10Z</time>
      </trkpt>
      <trkpt lat="44.374616062268615" lon="11.225109100341797">
        <ele>121</ele>
        <time>2004-12-08T11:09:27Z</time>
      </trkpt>
      <trkpt lat="44.375581741333008" lon="11.226139068603516">
        <ele>121</ele>
        <time>2004-12-08T11:09:46Z</time>
      </trkpt>
      <trkpt lat="44.376397132873535" lon="11.227576732635498">
        <ele>123</ele>
        <time>2004-12-08T11:10:06Z</time>
      </trkpt>
      <trkpt lat="44.377105236053467" lon="11.229314804077148">
        <ele>122</ele>
        <time>2004-12-08T11:10:27Z</time>
      </trkpt>
      <trkpt lat="44.377920627593994" lon="11.230409061536193">
        <ele>122</ele>
        <time>2004-12-08T11:10:44Z</time>
      </trkpt>
      <trkpt lat="44.379186630249023" lon="11.231567859649658">
        <ele>123</ele>
        <time>2004-12-08T11:11:07Z</time>
      </trkpt>
      <trkpt lat="44.379937564954162" lon="11.232190132141113">
        <ele>124</ele>
        <time>2004-12-08T11:11:21Z</time>
      </trkpt>
      <trkpt lat="44.380903160199523" lon="11.233241641893983">
        <ele>125</ele>
        <time>2004-12-08T11:11:42Z</time>
      </trkpt>
      <trkpt lat="44.381847381591797" lon="11.234228610992432">
        <ele>124</ele>
        <time>2004-12-08T11:12:00Z</time>
      </trkpt>
      <trkpt lat="44.38326358795166" lon="11.235666275024414">
        <ele>124</ele>
        <time>2004-12-08T11:12:26Z</time>
      </trkpt>
      <trkpt lat="44.384379386901855" lon="11.236352920532227">
        <ele>125</ele>
        <time>2004-12-08T11:12:46Z</time>
      </trkpt>
      <trkpt lat="44.385538101196289" lon="11.237339973449707">
        <ele>125</ele>
        <time>2004-12-08T11:13:07Z</time>
      </trkpt>
      <trkpt lat="44.386417865753174" lon="11.238670265302062">
        <ele>123</ele>
        <time>2004-12-08T11:13:26Z</time>
      </trkpt>
      <trkpt lat="44.387276172637939" lon="11.240365505218506">
        <ele>123</ele>
        <time>2004-12-08T11:13:47Z</time>
      </trkpt>
      <trkpt lat="44.387490665540099" lon="11.241695880889893">
        <ele>125</ele>
        <time>2004-12-08T11:14:02Z</time>
      </trkpt>
      <trkpt lat="44.387555122375488" lon="11.242468440905213">
        <ele>127</ele>
        <time>2004-12-08T11:14:13Z</time>
      </trkpt>
      <trkpt lat="44.387662410736084" lon="11.24276876449585">
        <ele>127</ele>
        <time>2004-12-08T11:14:18Z</time>
      </trkpt>
      <trkpt lat="44.388477802276611" lon="11.243798732757568">
        <ele>126</ele>
        <time>2004-12-08T11:14:36Z</time>
      </trkpt>
      <trkpt lat="44.389078617095947" lon="11.2445068359375">
        <ele>127</ele>
        <time>2004-12-08T11:14:48Z</time>
      </trkpt>
      <trkpt lat="44.389443397521973" lon="11.245021820068359">
        <ele>125</ele>
        <time>2004-12-08T11:14:55Z</time>
      </trkpt>
      <trkpt lat="44.390237331390381" lon="11.245450973510742">
        <ele>123</ele>
        <time>2004-12-08T11:15:06Z</time>
      </trkpt>
      <trkpt lat="44.390559196472168" lon="11.245622634887695">
        <ele>123</ele>
        <time>2004-12-08T11:15:11Z</time>
      </trkpt>
      <trkpt lat="44.390666484832764" lon="11.245901584625244">
        <ele>123</ele>
        <time>2004-12-08T11:15:15Z</time>
      </trkpt>
      <trkpt lat="44.39100980758667" lon="11.24624490737915">
        <ele>122</ele>
        <time>2004-12-08T11:15:23Z</time>
      </trkpt>
      <trkpt lat="44.391074180603027" lon="11.246201992034912">
        <ele>122</ele>
        <time>2004-12-08T11:15:24Z</time>
      </trkpt>
      <trkpt lat="44.39128884114325" lon="11.246073162183166">
        <ele>122</ele>
        <time>2004-12-08T11:15:28Z</time>
      </trkpt>
      <trkpt lat="44.391610622406006" lon="11.246073162183166">
        <ele>123</ele>
        <time>2004-12-08T11:15:33Z</time>
      </trkpt>
      <trkpt lat="44.392619132995605" lon="11.24650239944458">
        <ele>124</ele>
        <time>2004-12-08T11:15:50Z</time>
      </trkpt>
      <trkpt lat="44.39274787902832" lon="11.246523940935731">
        <ele>124</ele>
        <time>2004-12-08T11:15:52Z</time>
      </trkpt>
      <trkpt lat="44.392876625061035" lon="11.246523940935731">
        <ele>124</ele>
        <time>2004-12-08T11:15:54Z</time>
      </trkpt>
      <trkpt lat="44.393692016601563" lon="11.246910095214844">
        <ele>124</ele>
        <time>2004-12-08T11:16:12Z</time>
      </trkpt>
      <trkpt lat="44.393734931945801" lon="11.246910095214844">
        <ele>123</ele>
        <time>2004-12-08T11:16:13Z</time>
      </trkpt>
      <trkpt lat="44.393799304962158" lon="11.246738433837891">
        <ele>123</ele>
        <time>2004-12-08T11:16:18Z</time>
      </trkpt>
      <trkpt lat="44.393906593322754" lon="11.246180534362793">
        <ele>124</ele>
        <time>2004-12-08T11:16:30Z</time>
      </trkpt>
    </trkseg>
  </trk>

</gpx>
